[[{"header":{"parameterUnit":"m.s-1","parameterCategory":1,"la1":31.0,"la2":29.5877,"lo1":-88.7671,"lo2":-86.6584,"dy":0.0162,"dx":0.0185,"nx":115,"ny":88,"refTime":"2024-07-18T06:00:00:Z","depth":0,"parameterNumber":2,"parameterNumberName":"U-component_of_WINDS"},"data":[0.0,0.0,0.0,0.0,0.0,0.0,0.0,0.0,0.0,0.0,0.0,0.0,0.0,0.0,0.0,0.0,0.0,0.0,0.0,0.0,0.0,0.0,0.0,0.0,0.0,0.0,0.0,0.0,0.0,0.0,0.0,0.0,0.0,0.0,0.0,0.0,0.0,0.0,0.0,0.0,0.0,0.0,0.0,0.0,0.0,0.0,0.0,0.0,0.0,0.0,0.0,0.0,0.0,0.0,0.0,0.0,0.0,0.0,0.0,0.0,0.0,0.0,0.0,0.0,0.0,0.0,0.0,0.0,0.0,0.0,0.0,0.0,0.0,0.0,0.0,0.0,0.0,0.0,0.0,0.0,0.0,0.0,0.0,0.0,0.0,0.0,0.0,0.0,0.0,0.0,0.0,0.0,0.0,0.0,0.0,0.0,0.0,0.0,0.0,0.0,0.0,0.0,0.0,0.0,0.0,0.0,0.0,0.0,0.0,0.0,0.0,0.0,0.0,0.0,0.0,0.0,0.0,0.0,0.0,0.0,0.0,0.0,0.0,0.0,0.0,0.0,0.0,0.0,0.0,0.0,0.0,0.0,0.0,0.0,0.0,0.0,0.0,0.0,0.0,0.0,0.0,0.0,0.0,0.0,0.0,0.0,0.0,0.0,0.0,0.0,0.0,0.0,0.0,0.0,0.0,0.0,0.0,0.0,0.0,0.0,0.0,0.0,0.0,0.0,0.0,0.0,0.0,0.0,0.0,0.0,0.0,0.0,0.0,0.0,0.0,0.0,0.0,0.0,0.0,0.0,0.0,0.0,0.0,0.0,0.0,0.0,0.0,0.0,0.0,0.0,0.0,0.0,0.0,0.0,0.0,0.0,0.0,0.0,0.0,0.0,0.0,0.0,0.0,0.0,0.0,0.0,0.0,0.0,0.0,0.0,0.0,0.0,0.0,0.0,0.0,0.0,0.0,0.0,0.0,0.0,0.0,0.0,0.0,0.0,0.0,0.0,0.0,0.0,0.0,0.0,0.0,0.0,0.0,0.0,0.0,0.0,0.0,0.0,0.0,0.0,0.0,0.0,0.0,0.0,0.0,0.0,0.0,0.0,0.0,0.0,0.0,0.0,0.0,0.0,0.0,0.0,0.0,0.0,0.0,0.0,0.0,0.0,0.0,0.0,0.0,0.0,0.0,0.0,0.0,0.0,0.0,0.0,0.0,0.0,0.0,0.0,0.0,0.0,0.0,0.0,0.0,0.0,0.0,0.0,0.0,0.0,0.0,0.0,0.0,0.0,0.0,0.0,0.0,0.0,0.0,0.0,0.0,0.0,0.0,0.0,0.0,0.0,0.0,0.0,0.0,0.0,0.0,0.0,0.0,0.0,0.0,0.0,0.0,0.0,0.0,0.0,0.0,0.0,0.0,0.0,0.0,0.0,0.0,0.0,0.0,0.0,0.0,0.0,0.0,0.0,0.0,0.0,0.0,0.0,0.0,0.0,0.0,0.0,0.0,0.0,0.0,0.0,0.0,0.0,0.0,0.0,0.0,0.0,0.0,0.0,0.0,0.0,0.0,0.0,0.0,0.0,0.0,0.0,0.0,0.0,0.0,0.0,0.0,0.0,0.0,0.0,0.0,0.0,0.0,0.0,0.0,0.0,0.0,0.0,0.0,0.0,0.0,0.0,0.0,0.0,0.0,0.0,0.0,0.0,0.0,0.0,0.0,0.0,0.0,0.0,0.0,0.0,0.0,0.0,0.0,0.0,0.0,0.0,0.0,0.0,0.0,0.0,0.0,0.0,0.0,0.0,0.0,0.0,0.0,0.0,0.0,0.0,0.0,0.0,0.0,0.0,0.0,0.0,0.0,0.0,0.0,0.0,0.0,0.0,0.0,0.0,0.0,0.0,0.0,0.0,0.0,0.0,0.0,0.0,0.0,0.0,0.0,0.0,0.0,0.0,0.0,0.0,0.0,0.0,0.0,0.0,0.0,0.0,0.0,0.0,0.0,0.0,0.0,0.0,0.0,0.0,0.0,0.0,0.0,0.0,0.0,0.0,0.0,0.0,0.0,0.0,0.0,0.0,0.0,0.0,0.0,0.0,0.0,0.0,0.0,0.0,0.0,0.0,0.0,0.0,0.0,0.0,0.0,0.0,0.0,0.0,0.0,0.0,0.0,0.0,0.0,0.0,0.0,0.0,0.0,0.0,0.0,0.0,0.0,0.0,0.0,0.0,0.0,0.0,0.0,0.0,0.0,0.0,0.0,0.0,0.0,0.0,0.0,0.0,0.0,0.0,0.0,0.0,0.0,0.0,0.0,0.0,0.0,0.0,0.0,0.0,0.0,0.0,0.0,0.0,0.0,0.0,0.0,0.0,0.0,0.0,0.0,0.0,0.0,0.0,0.0,0.0,0.0,0.0,0.0,0.0,0.0,0.0,0.0,0.0,0.0,0.0,0.0,0.0,0.0,0.0,0.0,0.0,0.0,0.0,0.0,0.0,0.0,0.0,0.0,0.0,0.0,0.0,0.0,0.0,0.0,0.0,0.0,0.0,0.0,0.0,0.0,0.0,0.0,0.0,0.0,0.0,0.0,0.0,0.0,0.0,0.0,0.0,0.0,0.0,0.0,0.0,0.0,0.0,0.0,0.0,0.0,0.0,0.0,0.0,0.0,0.0,0.0,0.0,0.0,0.0,0.0,0.0,0.0,0.0,0.0,0.0,0.0,0.0,0.0,0.0,0.0,0.0,0.0,0.0,0.0,0.0,0.0,0.0,0.0,0.0,0.0,0.0,0.0,0.0,0.0,0.0,0.0,0.0,0.0,0.0,0.0,0.0,0.0,0.0,0.0,0.0,0.0,0.0,0.0,0.0,0.0,0.0,0.0,0.0,0.0,0.0,0.0,0.0,0.0,0.0,0.0,0.0,0.0,0.0,0.0,0.0,0.0,0.0,0.0,0.0,0.0,0.0,0.0,0.0,0.0,0.0,0.0,0.0,0.0,0.0,0.0,0.0,0.0,0.0,0.0,0.0,0.0,0.0,0.0,0.0,0.0,0.0,0.0,0.0,0.0,0.0,0.0,0.0,0.0,0.0,0.0,0.0,0.0,0.0,0.0,0.0,0.0,0.0,0.0,0.0,0.0,0.0,0.0,0.0,0.0,0.0,0.0,0.0,0.0,0.0,0.0,0.0,0.0,0.0,0.0,0.0,0.0,0.0,0.0,0.0,0.0,0.0,0.0,0.0,0.0,0.0,0.0,0.0,0.0,0.0,0.0,0.0,0.0,0.0,0.0,0.0,0.0,0.0,0.0,0.0,0.0,0.0,0.0,0.0,0.0,0.0,0.0,0.0,0.0,0.0,0.0,0.0,0.0,0.0,0.0,0.0,0.0,0.0,0.0,0.0,0.0,0.0,0.0,0.0,0.0,0.0,0.0,0.0,0.0,0.0,0.0,0.0,0.0,0.0,0.0,0.0,0.0,0.0,0.0,0.0,0.0,0.0,0.0,0.0,0.0,0.0,0.0,0.0,0.0,0.0,0.0,0.0,0.0,0.0,0.0,0.0,0.0,0.0,0.0,0.0,0.0,0.0,0.0,0.0,0.0,0.0,0.0,0.0,0.0,0.0,0.0,0.0,0.0,0.0,0.0,0.0,0.0,0.0,0.0,0.0,0.0,0.0,0.0,0.0,0.0,0.0,0.0,0.0,0.0,0.0,0.0,0.0,0.0,0.0,0.0,0.0,0.0,0.0,0.0,0.0,0.0,0.0,0.0,0.0,0.0,0.0,0.0,0.0,0.0,0.0,0.0,0.0,0.0,0.0,0.0,0.0,0.0,0.0,0.0,0.0,0.0,0.0,0.0,0.0,0.0,0.0,0.0,0.0,0.0,0.0,0.0,0.0,0.0,0.0,0.0,0.0,0.0,0.0,0.0,0.0,0.0,0.0,0.0,0.0,0.0,0.0,0.0,0.0,0.0,0.0,0.0,0.0,0.0,0.0,0.0,0.0,0.0,0.0,0.0,0.0,0.0,0.0,0.0,0.0,0.0,0.0,0.0,0.0,0.0,0.0,0.0,0.0,0.0,0.0,0.0,0.0,0.0,0.0,0.0,0.0,0.0,0.0,0.0,0.0,0.0,0.0,0.0,0.0,0.0,0.0,0.0,0.0,0.0,0.0,0.0,0.0,0.0,0.0,0.0,0.0,0.0,0.0,0.0,0.0,0.0,0.0,0.0,0.0,0.0,0.0,0.0,0.0,0.0,0.0,0.0,0.0,0.0,0.0,0.0,0.0,-2.8,0.0,0.0,0.0,0.0,0.0,0.0,0.0,0.0,0.0,0.0,0.0,0.0,0.0,0.0,0.0,0.0,0.0,0.0,0.0,0.0,0.0,0.0,0.0,0.0,0.0,0.0,0.0,0.0,0.0,0.0,0.0,0.0,0.0,0.0,0.0,0.0,0.0,0.0,0.0,0.0,0.0,0.0,0.0,0.0,0.0,0.0,0.0,0.0,0.0,0.0,0.0,0.0,0.0,0.0,0.0,0.0,0.0,0.0,0.0,0.0,0.0,0.0,0.0,0.0,0.0,0.0,0.0,0.0,0.0,0.0,0.0,0.0,0.0,0.0,0.0,0.0,0.0,0.0,0.0,0.0,0.0,0.0,0.0,0.0,0.0,0.0,0.0,0.0,0.0,0.0,0.0,0.0,0.0,0.0,0.0,0.0,0.0,0.0,0.0,0.0,0.0,0.0,0.0,0.0,0.0,0.0,0.0,0.0,0.0,0.0,-3.0506,-3.0495,-3.0613,-2.9809,-2.8019,0.0,0.0,0.0,0.0,0.0,0.0,0.0,0.0,0.0,0.0,0.0,0.0,0.0,0.0,0.0,0.0,0.0,0.0,0.0,0.0,0.0,0.0,0.0,0.0,0.0,0.0,0.0,0.0,0.0,0.0,0.0,0.0,0.0,0.0,0.0,0.0,0.0,0.0,0.0,0.0,0.0,0.0,0.0,0.0,0.0,0.0,0.0,0.0,0.0,0.0,0.0,0.0,0.0,0.0,0.0,0.0,0.0,0.0,0.0,0.0,0.0,0.0,0.0,0.0,0.0,0.0,0.0,0.0,0.0,0.0,0.0,0.0,0.0,0.0,0.0,0.0,0.0,0.0,0.0,0.0,0.0,0.0,0.0,0.0,0.0,0.0,0.0,0.0,0.0,0.0,0.0,0.0,0.0,0.0,0.0,0.0,0.0,0.0,0.0,0.0,0.0,0.0,0.0,0.0,0.0,0.0,0.0,0.0,0.0,0.0,0.0,0.0,-3.0918,-3.0105,-2.8373,0.0,0.0,0.0,0.0,0.0,0.0,0.0,0.0,0.0,0.0,0.0,0.0,0.0,0.0,0.0,0.0,0.0,0.0,0.0,0.0,0.0,0.0,0.0,0.0,0.0,0.0,0.0,0.0,0.0,0.0,0.0,0.0,0.0,0.0,0.0,0.0,0.0,0.0,0.0,0.0,0.0,0.0,0.0,0.0,0.0,0.0,0.0,0.0,0.0,0.0,0.0,0.0,0.0,0.0,0.0,0.0,0.0,0.0,0.0,0.0,0.0,0.0,0.0,0.0,0.0,0.0,0.0,0.0,0.0,0.0,0.0,0.0,0.0,0.0,0.0,0.0,0.0,0.0,0.0,0.0,0.0,0.0,0.0,0.0,0.0,0.0,0.0,0.0,0.0,0.0,0.0,0.0,0.0,0.0,0.0,0.0,0.0,0.0,0.0,0.0,0.0,0.0,0.0,0.0,0.0,0.0,0.0,0.0,0.0,0.0,-3.0978,-3.1766,-3.1889,0.0,-2.9353,0.0,0.0,0.0,0.0,0.0,0.0,0.0,0.0,0.0,0.0,0.0,0.0,0.0,0.0,0.0,0.0,0.0,0.0,0.0,0.0,0.0,0.0,0.0,0.0,0.0,0.0,0.0,0.0,0.0,0.0,0.0,0.0,0.0,0.0,0.0,0.0,0.0,0.0,0.0,0.0,0.0,0.0,0.0,0.0,0.0,0.0,0.0,0.0,0.0,0.0,0.0,0.0,0.0,0.0,0.0,0.0,0.0,0.0,0.0,0.0,0.0,0.0,0.0,0.0,0.0,0.0,0.0,0.0,0.0,0.0,0.0,0.0,0.0,0.0,0.0,0.0,0.0,0.0,0.0,0.0,0.0,0.0,0.0,0.0,0.0,0.0,0.0,0.0,0.0,0.0,0.0,0.0,0.0,0.0,0.0,0.0,0.0,0.0,0.0,0.0,0.0,0.0,0.0,0.0,0.0,0.0,0.0,0.0,0.0,0.0,-3.1476,-3.1941,-3.0975,-3.0108,0.0,0.0,0.0,0.0,0.0,0.0,0.0,0.0,0.0,0.0,0.0,0.0,0.0,0.0,0.0,0.0,0.0,0.0,0.0,0.0,0.0,0.0,0.0,0.0,0.0,0.0,0.0,0.0,0.0,0.0,0.0,0.0,0.0,0.0,0.0,0.0,0.0,0.0,0.0,0.0,0.0,0.0,0.0,0.0,0.0,0.0,0.0,0.0,0.0,0.0,0.0,0.0,0.0,0.0,0.0,0.0,0.0,0.0,0.0,0.0,0.0,0.0,0.0,0.0,0.0,0.0,0.0,0.0,0.0,0.0,0.0,0.0,0.0,0.0,0.0,0.0,0.0,0.0,0.0,0.0,0.0,0.0,0.0,0.0,0.0,0.0,0.0,0.0,0.0,0.0,0.0,0.0,0.0,0.0,0.0,0.0,0.0,0.0,0.0,0.0,0.0,0.0,0.0,0.0,0.0,0.0,0.0,0.0,0.0,0.0,-3.1601,-3.1965,-3.2257,-3.1052,-3.0019,-2.9332,0.0,0.0,0.0,0.0,0.0,0.0,0.0,0.0,0.0,0.0,0.0,0.0,0.0,0.0,0.0,0.0,0.0,0.0,0.0,0.0,0.0,0.0,0.0,0.0,0.0,0.0,0.0,0.0,0.0,0.0,0.0,0.0,0.0,0.0,0.0,0.0,0.0,0.0,0.0,0.0,0.0,0.0,0.0,0.0,0.0,0.0,0.0,0.0,0.0,0.0,0.0,0.0,0.0,0.0,0.0,0.0,0.0,0.0,0.0,0.0,0.0,0.0,0.0,0.0,0.0,0.0,0.0,0.0,0.0,0.0,0.0,0.0,0.0,0.0,0.0,0.0,0.0,0.0,0.0,0.0,0.0,0.0,0.0,0.0,0.0,0.0,0.0,0.0,0.0,0.0,0.0,0.0,0.0,0.0,0.0,0.0,0.0,0.0,0.0,0.0,0.0,0.0,0.0,0.0,0.0,0.0,0.0,0.0,-3.2823,-3.2245,-3.2331,-3.3205,-3.3032,-3.1784,0.0,0.0,0.0,0.0,0.0,0.0,0.0,0.0,0.0,0.0,0.0,0.0,0.0,0.0,0.0,0.0,0.0,0.0,0.0,0.0,0.0,0.0,0.0,0.0,0.0,0.0,0.0,0.0,0.0,0.0,0.0,0.0,0.0,0.0,0.0,0.0,0.0,0.0,0.0,0.0,0.0,0.0,0.0,0.0,0.0,0.0,0.0,0.0,0.0,0.0,0.0,0.0,0.0,0.0,0.0,0.0,0.0,0.0,0.0,0.0,0.0,0.0,0.0,0.0,0.0,0.0,0.0,0.0,0.0,0.0,0.0,0.0,0.0,0.0,0.0,0.0,0.0,0.0,0.0,0.0,0.0,0.0,0.0,0.0,0.0,0.0,0.0,0.0,0.0,0.0,0.0,0.0,0.0,0.0,0.0,0.0,0.0,0.0,0.0,0.0,0.0,0.0,0.0,0.0,0.0,0.0,0.0,0.0,0.0,-3.1413,-3.1838,-3.272,-3.4047,-3.1971,-3.0551,0.0,0.0,0.0,0.0,0.0,0.0,0.0,0.0,0.0,0.0,0.0,0.0,0.0,0.0,0.0,0.0,0.0,0.0,0.0,0.0,0.0,0.0,0.0,0.0,0.0,0.0,0.0,0.0,0.0,0.0,0.0,0.0,0.0,0.0,0.0,0.0,0.0,0.0,0.0,0.0,0.0,0.0,0.0,0.0,0.0,0.0,0.0,0.0,0.0,0.0,0.0,0.0,0.0,0.0,0.0,0.0,0.0,0.0,0.0,0.0,0.0,0.0,0.0,0.0,0.0,0.0,0.0,0.0,0.0,0.0,0.0,0.0,0.0,0.0,0.0,0.0,0.0,0.0,0.0,0.0,0.0,0.0,0.0,0.0,0.0,0.0,0.0,0.0,0.0,0.0,0.0,0.0,0.0,0.0,0.0,0.0,0.0,0.0,0.0,0.0,0.0,0.0,0.0,0.0,0.0,0.0,0.0,0.0,0.0,-3.1357,0.0,-3.3372,-3.407,-3.1887,-3.0353,0.0,0.0,0.0,0.0,0.0,0.0,0.0,0.0,0.0,0.0,0.0,0.0,0.0,0.0,0.0,0.0,0.0,0.0,0.0,0.0,0.0,0.0,0.0,0.0,0.0,0.0,0.0,0.0,0.0,0.0,0.0,0.0,0.0,0.0,0.0,0.0,0.0,0.0,0.0,0.0,0.0,0.0,0.0,0.0,0.0,0.0,0.0,0.0,0.0,0.0,0.0,0.0,0.0,0.0,0.0,0.0,0.0,0.0,0.0,0.0,0.0,0.0,0.0,0.0,0.0,0.0,0.0,0.0,0.0,0.0,0.0,0.0,0.0,0.0,0.0,0.0,0.0,0.0,0.0,0.0,0.0,0.0,0.0,0.0,0.0,0.0,0.0,0.0,0.0,0.0,0.0,0.0,0.0,0.0,0.0,0.0,0.0,0.0,0.0,0.0,0.0,0.0,0.0,0.0,0.0,0.0,0.0,0.0,-3.1258,-3.308,-3.407,-3.4148,-3.3261,-3.3029,-3.1413,0.0,0.0,0.0,0.0,0.0,0.0,0.0,0.0,0.0,0.0,0.0,0.0,0.0,0.0,0.0,0.0,0.0,0.0,0.0,0.0,0.0,0.0,0.0,0.0,0.0,0.0,0.0,0.0,0.0,0.0,0.0,0.0,0.0,0.0,0.0,0.0,0.0,0.0,0.0,0.0,0.0,0.0,0.0,0.0,0.0,0.0,0.0,0.0,0.0,0.0,0.0,0.0,0.0,0.0,0.0,0.0,0.0,0.0,0.0,0.0,0.0,0.0,0.0,0.0,0.0,0.0,0.0,0.0,0.0,0.0,0.0,0.0,0.0,0.0,0.0,0.0,0.0,0.0,0.0,0.0,0.0,0.0,0.0,0.0,0.0,0.0,0.0,0.0,0.0,0.0,0.0,0.0,0.0,0.0,0.0,0.0,0.0,0.0,0.0,0.0,0.0,0.0,0.0,0.0,0.0,0.0,0.0,0.0,0.0,-3.2266,-3.3256,-3.3904,-3.4024,-3.2324,-3.1107,0.0,0.0,0.0,0.0,0.0,0.0,0.0,0.0,0.0,0.0,0.0,0.0,0.0,0.0,0.0,0.0,0.0,0.0,0.0,0.0,0.0,0.0,0.0,0.0,0.0,0.0,0.0,0.0,0.0,0.0,0.0,0.0,0.0,0.0,0.0,0.0,0.0,0.0,0.0,0.0,0.0,0.0,0.0,0.0,0.0,0.0,0.0,0.0,0.0,0.0,0.0,0.0,0.0,0.0,0.0,0.0,0.0,0.0,0.0,0.0,0.0,0.0,0.0,0.0,0.0,0.0,0.0,0.0,0.0,0.0,0.0,0.0,0.0,0.0,0.0,0.0,0.0,0.0,0.0,0.0,0.0,0.0,0.0,0.0,0.0,0.0,0.0,0.0,0.0,0.0,0.0,0.0,0.0,0.0,0.0,0.0,0.0,0.0,0.0,0.0,0.0,0.0,0.0,0.0,0.0,0.0,0.0,0.0,0.0,-3.3823,-3.4762,-3.5332,-3.5414,-3.3522,-3.2081,-3.1179,0.0,0.0,0.0,0.0,0.0,0.0,0.0,0.0,0.0,0.0,0.0,0.0,0.0,0.0,0.0,0.0,0.0,0.0,0.0,0.0,0.0,0.0,0.0,0.0,0.0,0.0,0.0,0.0,0.0,0.0,0.0,0.0,0.0,0.0,0.0,0.0,0.0,0.0,0.0,0.0,0.0,0.0,0.0,0.0,0.0,0.0,0.0,0.0,0.0,0.0,0.0,0.0,0.0,0.0,0.0,0.0,0.0,0.0,0.0,0.0,0.0,0.0,0.0,0.0,0.0,0.0,0.0,0.0,0.0,0.0,0.0,0.0,0.0,0.0,0.0,0.0,0.0,0.0,0.0,0.0,0.0,0.0,0.0,0.0,0.0,0.0,0.0,0.0,0.0,0.0,0.0,0.0,0.0,0.0,0.0,0.0,0.0,0.0,0.0,0.0,0.0,0.0,0.0,0.0,0.0,0.0,0.0,0.0,-3.7099,-3.8209,-3.8264,-3.724,-3.6181,-3.4071,0.0,0.0,0.0,0.0,0.0,0.0,0.0,0.0,0.0,0.0,0.0,0.0,0.0,0.0,0.0,0.0,0.0,0.0,0.0,0.0,0.0,0.0,0.0,0.0,0.0,0.0,0.0,0.0,0.0,0.0,0.0,0.0,0.0,0.0,0.0,0.0,0.0,0.0,0.0,0.0,0.0,0.0,0.0,0.0,0.0,0.0,0.0,0.0,0.0,0.0,0.0,0.0,0.0,0.0,0.0,0.0,0.0,0.0,0.0,0.0,0.0,0.0,0.0,0.0,0.0,0.0,0.0,0.0,0.0,0.0,0.0,0.0,0.0,0.0,0.0,0.0,0.0,0.0,0.0,0.0,0.0,0.0,0.0,0.0,0.0,0.0,0.0,0.0,0.0,0.0,0.0,0.0,0.0,0.0,0.0,0.0,0.0,0.0,0.0,0.0,0.0,0.0,0.0,0.0,0.0,0.0,0.0,0.0,0.0,-3.8632,-4.0802,-4.1261,-3.9735,-3.7025,-3.5071,0.0,0.0,0.0,0.0,0.0,0.0,0.0,0.0,0.0,0.0,0.0,0.0,0.0,0.0,0.0,0.0,0.0,0.0,0.0,0.0,0.0,0.0,0.0,0.0,0.0,0.0,0.0,0.0,0.0,0.0,0.0,0.0,0.0,0.0,0.0,0.0,0.0,0.0,0.0,0.0,0.0,0.0,0.0,0.0,0.0,0.0,0.0,0.0,0.0,0.0,0.0,0.0,0.0,0.0,0.0,0.0,0.0,0.0,0.0,0.0,0.0,0.0,0.0,0.0,0.0,0.0,0.0,0.0,0.0,0.0,0.0,0.0,0.0,0.0,0.0,0.0,0.0,0.0,0.0,0.0,0.0,0.0,0.0,0.0,0.0,0.0,0.0,0.0,0.0,0.0,0.0,0.0,0.0,0.0,0.0,0.0,0.0,0.0,0.0,0.0,0.0,0.0,0.0,0.0,0.0,0.0,0.0,0.0,-3.837,-3.9769,-4.2672,-4.3698,-4.2736,-3.9038,-3.6483,0.0,0.0,0.0,0.0,0.0,0.0,0.0,0.0,0.0,0.0,0.0,0.0,0.0,0.0,0.0,0.0,0.0,0.0,0.0,0.0,0.0,0.0,0.0,0.0,0.0,0.0,0.0,0.0,0.0,0.0,0.0,0.0,0.0,0.0,0.0,0.0,0.0,0.0,0.0,0.0,0.0,0.0,0.0,0.0,0.0,0.0,0.0,0.0,0.0,0.0,0.0,0.0,0.0,0.0,0.0,0.0,0.0,0.0,0.0,0.0,0.0,0.0,0.0,0.0,0.0,0.0,0.0,0.0,0.0,0.0,0.0,0.0,0.0,0.0,0.0,0.0,0.0,0.0,0.0,0.0,0.0,0.0,0.0,0.0,0.0,0.0,0.0,0.0,0.0,0.0,0.0,0.0,0.0,0.0,0.0,0.0,0.0,0.0,0.0,0.0,0.0,0.0,0.0,0.0,0.0,0.0,0.0,0.0,-3.9712,-4.0841,-4.3868,-4.5476,-4.5351,-4.1408,-3.8038,0.0,0.0,0.0,0.0,0.0,0.0,0.0,0.0,0.0,0.0,0.0,0.0,0.0,0.0,0.0,0.0,0.0,0.0,0.0,0.0,0.0,0.0,0.0,0.0,0.0,0.0,0.0,0.0,0.0,0.0,0.0,0.0,0.0,0.0,0.0,0.0,0.0,0.0,0.0,0.0,0.0,0.0,0.0,0.0,0.0,0.0,0.0,0.0,0.0,0.0,0.0,0.0,0.0,0.0,0.0,0.0,0.0,0.0,0.0,0.0,0.0,0.0,0.0,0.0,0.0,0.0,0.0,0.0,0.0,0.0,0.0,0.0,0.0,0.0,0.0,0.0,0.0,0.0,0.0,0.0,0.0,0.0,0.0,0.0,0.0,0.0,0.0,0.0,0.0,0.0,0.0,0.0,0.0,0.0,0.0,0.0,0.0,0.0,0.0,0.0,0.0,0.0,0.0,0.0,0.0,0.0,0.0,0.0,-4.0107,-4.2288,-4.4297,-4.5329,-4.5339,-4.1245,-3.8461,0.0,0.0,0.0,0.0,0.0,0.0,0.0,0.0,0.0,0.0,0.0,0.0,0.0,0.0,0.0,0.0,0.0,0.0,0.0,0.0,0.0,0.0,0.0,0.0,0.0,0.0,0.0,0.0,0.0,0.0,0.0,0.0,0.0,0.0,0.0,0.0,0.0,0.0,0.0,0.0,0.0,0.0,0.0,0.0,0.0,0.0,0.0,0.0,-3.8046,0.0,0.0,0.0,0.0,0.0,0.0,0.0,0.0,0.0,0.0,0.0,0.0,0.0,0.0,0.0,0.0,0.0,0.0,0.0,0.0,0.0,0.0,0.0,0.0,0.0,0.0,0.0,0.0,0.0,0.0,0.0,0.0,0.0,0.0,0.0,0.0,0.0,0.0,0.0,0.0,0.0,0.0,0.0,0.0,0.0,0.0,0.0,0.0,0.0,0.0,0.0,0.0,0.0,0.0,0.0,0.0,0.0,0.0,0.0,-4.0654,-4.2756,-4.4437,-4.5277,-4.5182,-4.2354,-3.9814,0.0,0.0,0.0,0.0,0.0,0.0,0.0,0.0,0.0,0.0,0.0,0.0,0.0,0.0,0.0,0.0,0.0,0.0,0.0,0.0,0.0,0.0,0.0,0.0,0.0,0.0,0.0,0.0,0.0,0.0,0.0,0.0,0.0,0.0,0.0,0.0,0.0,0.0,0.0,0.0,0.0,0.0,0.0,0.0,0.0,0.0,0.0,0.0,0.0,0.0,0.0,0.0,0.0,0.0,0.0,0.0,0.0,0.0,0.0,0.0,0.0,0.0,0.0,0.0,0.0,0.0,0.0,0.0,0.0,0.0,0.0,0.0,0.0,0.0,0.0,0.0,0.0,0.0,0.0,0.0,0.0,0.0,0.0,0.0,0.0,0.0,0.0,0.0,0.0,0.0,0.0,0.0,0.0,0.0,0.0,0.0,0.0,0.0,0.0,0.0,0.0,0.0,0.0,0.0,0.0,0.0,0.0,-3.8639,-4.1113,-4.3138,-4.4571,-4.5277,-4.5288,-4.3692,-4.1208,-3.7846,0.0,0.0,0.0,0.0,0.0,0.0,0.0,0.0,0.0,0.0,0.0,0.0,0.0,0.0,0.0,0.0,0.0,0.0,0.0,0.0,0.0,0.0,0.0,0.0,0.0,0.0,0.0,0.0,0.0,0.0,0.0,0.0,0.0,0.0,0.0,0.0,0.0,0.0,-3.5821,-3.6986,0.0,0.0,0.0,0.0,0.0,0.0,0.0,0.0,-4.0193,0.0,0.0,0.0,0.0,0.0,0.0,0.0,0.0,0.0,0.0,0.0,0.0,0.0,0.0,0.0,0.0,0.0,0.0,0.0,0.0,0.0,0.0,0.0,0.0,0.0,0.0,0.0,0.0,0.0,0.0,0.0,0.0,0.0,0.0,0.0,0.0,0.0,0.0,0.0,0.0,0.0,0.0,0.0,0.0,0.0,0.0,0.0,0.0,0.0,0.0,0.0,0.0,0.0,0.0,0.0,0.0,-3.8251,-3.8898,-4.1055,-4.4762,-4.5154,-4.5277,-4.5239,-4.3673,-4.1189,-3.7865,0.0,0.0,0.0,0.0,0.0,0.0,0.0,0.0,0.0,0.0,0.0,0.0,0.0,0.0,0.0,0.0,0.0,0.0,0.0,0.0,0.0,0.0,0.0,0.0,0.0,0.0,0.0,0.0,0.0,0.0,0.0,0.0,0.0,0.0,0.0,0.0,0.0,0.0,0.0,-3.8457,-3.8935,0.0,0.0,0.0,0.0,0.0,0.0,0.0,0.0,-4.2441,0.0,0.0,0.0,0.0,0.0,0.0,0.0,0.0,0.0,0.0,0.0,0.0,0.0,0.0,0.0,0.0,0.0,0.0,0.0,0.0,0.0,0.0,0.0,0.0,0.0,0.0,0.0,0.0,0.0,0.0,0.0,0.0,0.0,0.0,0.0,0.0,0.0,0.0,0.0,0.0,0.0,0.0,0.0,0.0,0.0,0.0,0.0,0.0,0.0,0.0,0.0,0.0,0.0,0.0,0.0,-3.8137,-4.0024,-4.2393,-4.5163,-4.5277,-4.5277,-4.5239,-4.3233,-4.0673,0.0,0.0,0.0,0.0,0.0,0.0,0.0,0.0,0.0,0.0,0.0,0.0,0.0,0.0,0.0,0.0,0.0,0.0,0.0,0.0,0.0,0.0,0.0,0.0,0.0,0.0,0.0,0.0,0.0,0.0,0.0,0.0,0.0,0.0,0.0,0.0,0.0,0.0,0.0,0.0,-3.927,-4.0291,-4.3634,0.0,0.0,0.0,0.0,0.0,0.0,-4.2756,-4.2928,0.0,0.0,0.0,0.0,0.0,0.0,0.0,0.0,0.0,0.0,0.0,0.0,0.0,0.0,0.0,0.0,0.0,0.0,0.0,0.0,0.0,0.0,0.0,0.0,0.0,0.0,0.0,0.0,0.0,0.0,0.0,0.0,0.0,0.0,0.0,0.0,0.0,0.0,0.0,0.0,0.0,0.0,0.0,0.0,0.0,0.0,0.0,0.0,0.0,0.0,0.0,0.0,0.0,0.0,0.0,-3.7614,-4.0835,-4.3423,-4.5182,-4.5277,-4.5277,-4.5239,-4.266,-4.0043,0.0,0.0,0.0,0.0,0.0,0.0,0.0,0.0,0.0,0.0,0.0,0.0,0.0,0.0,0.0,0.0,0.0,0.0,0.0,0.0,0.0,0.0,0.0,0.0,0.0,0.0,0.0,0.0,0.0,0.0,0.0,0.0,0.0,0.0,0.0,0.0,0.0,0.0,0.0,0.0,0.0,-4.1886,-4.4848,-4.3864,0.0,0.0,0.0,0.0,-4.2354,-4.3138,0.0,0.0,0.0,0.0,0.0,0.0,0.0,0.0,0.0,0.0,0.0,0.0,0.0,0.0,0.0,0.0,0.0,0.0,0.0,0.0,0.0,0.0,0.0,0.0,0.0,0.0,0.0,0.0,0.0,0.0,0.0,0.0,0.0,0.0,0.0,0.0,0.0,0.0,0.0,0.0,0.0,0.0,0.0,0.0,0.0,0.0,0.0,0.0,0.0,0.0,0.0,0.0,0.0,0.0,0.0,0.0,-3.7498,-4.0115,-4.2711,-4.5144,-4.5277,-4.5277,-4.5239,-4.2163,-3.949,0.0,0.0,0.0,0.0,0.0,0.0,0.0,0.0,0.0,0.0,0.0,0.0,0.0,0.0,0.0,0.0,0.0,0.0,0.0,0.0,0.0,0.0,0.0,0.0,0.0,0.0,0.0,0.0,0.0,0.0,0.0,0.0,0.0,0.0,0.0,0.0,0.0,0.0,0.0,0.0,0.0,-4.3195,-4.5029,-4.3883,-4.2775,0.0,0.0,-4.4991,-4.4857,-4.6194,0.0,0.0,0.0,0.0,0.0,0.0,0.0,0.0,0.0,0.0,0.0,0.0,0.0,0.0,0.0,0.0,0.0,0.0,0.0,0.0,0.0,0.0,0.0,0.0,0.0,0.0,0.0,0.0,0.0,0.0,0.0,0.0,0.0,0.0,0.0,0.0,0.0,0.0,0.0,0.0,0.0,0.0,0.0,0.0,0.0,0.0,0.0,0.0,0.0,0.0,0.0,0.0,0.0,0.0,0.0,-3.6308,-3.7482,-4.1468,-4.4115,-4.5124,-4.5265,-4.5277,-4.5277,-4.1094,-3.8318,0.0,0.0,0.0,0.0,0.0,0.0,0.0,0.0,0.0,0.0,0.0,0.0,0.0,0.0,0.0,0.0,0.0,0.0,0.0,0.0,0.0,0.0,0.0,0.0,0.0,0.0,0.0,0.0,0.0,0.0,0.0,0.0,0.0,0.0,0.0,0.0,0.0,0.0,0.0,0.0,0.0,0.0,-4.5135,-4.4666,0.0,0.0,0.0,-4.4982,-4.4017,0.0,0.0,0.0,0.0,0.0,0.0,0.0,0.0,0.0,0.0,0.0,0.0,0.0,0.0,0.0,0.0,0.0,0.0,0.0,0.0,0.0,0.0,0.0,0.0,0.0,0.0,0.0,0.0,0.0,0.0,0.0,0.0,0.0,0.0,0.0,0.0,0.0,0.0,0.0,0.0,0.0,0.0,0.0,0.0,0.0,0.0,0.0,0.0,0.0,0.0,0.0,0.0,0.0,0.0,0.0,0.0,0.0,-3.7689,-4.2582,-4.5136,-4.5103,-4.5192,-4.5224,-4.5107,-4.0863,0.0,0.0,0.0,0.0,0.0,0.0,0.0,0.0,0.0,0.0,0.0,0.0,0.0,0.0,0.0,0.0,0.0,0.0,0.0,0.0,0.0,0.0,0.0,0.0,0.0,0.0,0.0,-2.5495,0.0,0.0,0.0,0.0,0.0,0.0,0.0,0.0,0.0,0.0,0.0,0.0,0.0,0.0,-4.4571,-4.5211,-4.5277,-4.543,0.0,0.0,-4.501,-4.4208,-4.6519,-4.7292,0.0,0.0,0.0,0.0,0.0,0.0,0.0,0.0,0.0,0.0,0.0,0.0,0.0,0.0,0.0,0.0,0.0,0.0,0.0,0.0,0.0,0.0,0.0,0.0,0.0,0.0,0.0,0.0,0.0,0.0,0.0,0.0,0.0,0.0,0.0,0.0,0.0,0.0,0.0,0.0,0.0,0.0,0.0,0.0,0.0,0.0,0.0,0.0,0.0,0.0,0.0,0.0,0.0,0.0,-3.7559,-3.8527,-4.2598,-4.4858,-4.5091,-4.5114,-4.5019,-4.4787,-4.2246,-3.9547,0.0,0.0,0.0,0.0,0.0,0.0,0.0,0.0,0.0,0.0,0.0,0.0,0.0,0.0,0.0,0.0,0.0,0.0,0.0,0.0,0.0,0.0,0.0,0.0,0.0,0.0,0.0,0.0,0.0,0.0,0.0,0.0,0.0,0.0,0.0,0.0,0.0,0.0,0.0,0.0,0.0,-4.525,-4.5288,-4.5277,-4.5851,0.0,-4.6309,-4.5804,-4.7226,-4.8945,-4.8984,-4.566,0.0,0.0,0.0,0.0,0.0,0.0,0.0,0.0,0.0,0.0,0.0,0.0,0.0,0.0,0.0,0.0,0.0,0.0,0.0,0.0,0.0,0.0,0.0,0.0,0.0,0.0,0.0,0.0,0.0,0.0,0.0,0.0,0.0,0.0,0.0,0.0,0.0,0.0,0.0,0.0,0.0,0.0,0.0,0.0,0.0,0.0,0.0,0.0,0.0,0.0,0.0,0.0,0.0,-3.7608,-3.8402,-4.261,-4.477,-4.461,-4.4701,-4.4675,-4.4493,-4.155,-3.8964,0.0,0.0,0.0,0.0,0.0,0.0,0.0,0.0,0.0,0.0,0.0,0.0,0.0,0.0,0.0,0.0,0.0,0.0,0.0,0.0,0.0,0.0,0.0,0.0,0.0,0.0,0.0,0.0,-3.1806,-3.2373,-3.2443,0.0,0.0,0.0,0.0,0.0,0.0,0.0,0.0,0.0,0.0,-4.566,-4.6691,-4.6844,0.0,0.0,-4.7253,-4.6691,-4.6309,-4.7685,-4.7616,-4.4303,-4.3749,0.0,0.0,0.0,0.0,0.0,0.0,0.0,0.0,0.0,0.0,0.0,0.0,0.0,0.0,0.0,0.0,0.0,0.0,0.0,0.0,0.0,0.0,0.0,0.0,0.0,0.0,0.0,0.0,0.0,0.0,0.0,0.0,0.0,0.0,0.0,0.0,0.0,0.0,0.0,0.0,0.0,0.0,0.0,0.0,0.0,0.0,0.0,0.0,0.0,0.0,0.0,0.0,-3.7647,-3.8128,-4.2369,-4.4435,-4.4188,-4.427,-4.4256,-4.4073,-4.1609,-3.931,0.0,0.0,0.0,0.0,0.0,0.0,0.0,0.0,0.0,0.0,0.0,0.0,0.0,0.0,0.0,0.0,0.0,0.0,0.0,0.0,0.0,0.0,0.0,0.0,0.0,0.0,0.0,0.0,-3.2518,-3.2739,-3.2471,0.0,0.0,0.0,0.0,0.0,0.0,0.0,0.0,0.0,0.0,-4.629,-4.6959,-4.6999,-4.7011,-4.7259,-4.6572,-4.5898,-4.5491,-4.6601,-4.6571,-4.3737,0.0,0.0,0.0,0.0,0.0,0.0,0.0,0.0,0.0,0.0,0.0,0.0,0.0,0.0,0.0,0.0,0.0,0.0,0.0,0.0,0.0,0.0,0.0,0.0,0.0,0.0,0.0,-2.5051,0.0,0.0,-2.3939,0.0,0.0,0.0,0.0,0.0,0.0,0.0,0.0,0.0,0.0,0.0,0.0,0.0,0.0,0.0,0.0,0.0,0.0,0.0,0.0,0.0,0.0,-3.7627,-3.7771,-4.1709,-4.3791,-4.3896,-4.3912,-4.3852,-4.3689,-4.286,-4.1146,-3.8455,0.0,0.0,0.0,0.0,0.0,0.0,0.0,0.0,0.0,0.0,0.0,0.0,0.0,0.0,0.0,0.0,0.0,0.0,0.0,0.0,0.0,0.0,0.0,0.0,0.0,0.0,-2.9725,-3.1136,-3.2383,0.0,0.0,0.0,0.0,0.0,0.0,0.0,0.0,0.0,-4.1542,-4.5105,-4.712,-4.5611,-4.5141,-4.5361,-4.6107,-4.4002,-4.3036,-4.5358,-4.6365,-4.6341,0.0,0.0,0.0,0.0,0.0,0.0,0.0,0.0,0.0,0.0,0.0,0.0,0.0,0.0,0.0,0.0,0.0,0.0,0.0,0.0,0.0,0.0,0.0,0.0,0.0,0.0,0.0,-2.6356,-2.6284,0.0,0.0,0.0,0.0,0.0,0.0,0.0,0.0,0.0,0.0,0.0,-3.5878,-3.6998,0.0,0.0,0.0,0.0,0.0,0.0,0.0,0.0,0.0,0.0,0.0,0.0,-3.7636,-3.7872,-4.1662,-4.3627,-4.3526,-4.3491,-4.3442,-4.3304,-4.2518,-4.0437,-3.6939,0.0,0.0,0.0,0.0,0.0,0.0,0.0,0.0,0.0,0.0,0.0,0.0,0.0,0.0,0.0,0.0,0.0,0.0,0.0,0.0,0.0,0.0,0.0,0.0,0.0,-3.1589,0.0,0.0,0.0,0.0,0.0,0.0,0.0,0.0,0.0,0.0,-4.0478,-4.1932,-4.3094,-4.3999,-4.4774,-4.5393,-4.5421,-4.604,0.0,0.0,0.0,0.0,0.0,0.0,0.0,0.0,0.0,0.0,0.0,0.0,0.0,0.0,-4.6063,-4.2977,-4.1736,-4.102,-4.0486,0.0,0.0,0.0,0.0,0.0,0.0,0.0,0.0,0.0,0.0,0.0,0.0,0.0,0.0,-2.9272,-2.9148,-2.7773,0.0,0.0,0.0,0.0,0.0,0.0,0.0,0.0,-3.595,-3.7529,-3.8562,-3.9645,-3.9755,0.0,-3.9577,-3.7421,0.0,0.0,0.0,0.0,0.0,0.0,0.0,0.0,-3.783,-3.8028,-4.1535,-4.3338,-4.316,-4.316,-4.3123,-4.3012,-4.2305,-4.0432,-3.7319,-3.5472,-3.3514,0.0,0.0,0.0,0.0,0.0,0.0,0.0,0.0,0.0,0.0,0.0,0.0,0.0,0.0,0.0,0.0,0.0,0.0,0.0,0.0,0.0,0.0,0.0,-3.2447,0.0,0.0,0.0,0.0,0.0,0.0,0.0,0.0,0.0,-4.0263,-4.1762,-4.3245,-4.4349,-4.4561,-4.4736,-4.5038,0.0,0.0,0.0,0.0,0.0,0.0,0.0,-4.3528,-4.2962,-4.3409,-4.4135,-4.524,-4.6756,-4.7515,-4.6507,0.0,0.0,-4.5646,-4.4481,-4.3884,-4.3645,-4.3608,-4.3552,-4.3552,-4.3552,-4.3699,0.0,0.0,0.0,0.0,0.0,0.0,0.0,0.0,-3.3917,-3.3477,0.0,-3.1177,0.0,0.0,0.0,0.0,-3.0936,-3.4268,0.0,0.0,-4.1459,-4.2754,-4.1317,-4.1332,-4.1317,-4.132,-4.1383,-4.0559,-3.8894,-3.8125,0.0,0.0,0.0,0.0,0.0,0.0,-3.8263,-3.839,-4.1379,-4.2955,-4.2955,-4.2919,-4.2901,-4.2883,-4.2232,-4.1142,-3.9616,-3.8773,-3.6947,-3.3868,-3.2211,0.0,0.0,0.0,0.0,0.0,0.0,0.0,0.0,0.0,0.0,0.0,0.0,0.0,0.0,0.0,0.0,0.0,0.0,0.0,0.0,-3.2452,0.0,0.0,0.0,0.0,0.0,0.0,0.0,0.0,0.0,-4.1408,-4.0632,-4.3219,-4.5255,-4.5183,0.0,0.0,0.0,0.0,-4.4354,-4.313,-4.1875,-4.1542,-4.2525,-4.3827,-4.4709,-4.4727,0.0,0.0,-4.8416,-4.8343,-4.8214,-4.7351,-4.915,-5.0545,-4.9684,-4.8252,-4.748,-4.8067,-4.7058,-4.614,-4.6067,-4.614,-4.614,-3.9312,0.0,0.0,0.0,0.0,-3.4588,-3.5101,-3.6344,-3.5497,-3.5144,-3.5074,-3.3915,0.0,0.0,0.0,0.0,0.0,0.0,-3.6934,-3.9038,-4.0436,-4.1725,-4.2994,-4.3638,-4.3796,-4.3592,-4.471,-4.4602,-4.3469,-4.3759,-4.1156,-3.5835,0.0,0.0,0.0,0.0,-3.9315,-3.9967,-4.2411,-4.3751,-4.3751,-4.319,-4.2919,-4.2919,-4.214,-4.1524,-4.1071,-3.9802,-3.8201,-3.6181,-3.5063,0.0,0.0,0.0,0.0,0.0,0.0,0.0,0.0,0.0,0.0,0.0,0.0,0.0,0.0,0.0,0.0,0.0,0.0,0.0,-3.2258,-3.3423,-3.3953,0.0,0.0,0.0,0.0,0.0,0.0,0.0,0.0,0.0,-4.2977,-4.3834,-4.4218,0.0,0.0,-4.3246,-4.262,-4.3156,-4.4309,-4.6305,-4.5828,0.0,-4.7278,-4.6397,-4.5553,-4.5571,-4.7774,-4.926,-4.8453,-4.9756,-5.049,-4.9132,-4.9903,-5.0729,-5.0527,-5.0582,-5.0435,-5.016,-4.9682,-4.9407,-4.9389,-4.9407,-4.9554,-4.2055,-3.8813,-3.7631,-3.7199,-3.7337,-3.6898,-3.7529,-3.8816,-3.8322,-3.8093,-3.8041,-3.6987,-3.6394,-3.6083,-3.4692,0.0,0.0,0.0,-3.8522,-4.1324,-4.1533,-4.2587,-4.4307,-4.4875,-4.5022,-4.4872,-4.6111,-4.6415,-4.5761,-4.5943,-4.3736,-3.9304,0.0,0.0,-3.7017,-3.9496,-4.1144,-4.1959,-4.3353,-4.4095,-4.4077,-4.3318,-4.2919,-4.2883,-4.2429,-4.2012,-4.1705,-4.08,-3.9604,-3.8077,-3.6886,-3.4893,0.0,0.0,0.0,0.0,0.0,0.0,0.0,0.0,0.0,0.0,0.0,-3.3665,-3.3194,0.0,0.0,0.0,-3.4208,-3.39,-3.4516,-3.556,0.0,0.0,0.0,0.0,0.0,0.0,0.0,-4.1361,-4.2864,-4.3896,-4.4077,-4.4367,-4.4512,-4.4349,-4.3914,-4.3517,-4.3284,0.0,-4.5103,-4.6881,-4.7011,-4.7289,-4.8357,-4.7901,-4.7352,-4.737,-4.8214,-4.9003,-4.893,-4.9829,-5.027,-4.9831,-5.0014,-5.0325,-5.0306,-5.0967,-5.1646,-5.1738,-5.1756,-5.1756,-5.1756,-5.1738,-5.1903,-4.4096,-4.317,-4.0813,-3.9703,-3.9498,-3.9498,-4.027,-4.1587,-4.1587,-4.1604,-4.1481,-4.0108,-3.9177,-3.8525,-3.6408,0.0,-3.8786,-3.9017,-4.08,-4.3796,-4.4032,-4.4547,-4.5291,-4.5291,-4.5291,-4.5327,-4.6124,-4.6504,-4.645,-4.5816,-4.5001,-4.4095,-4.3425,-4.2212,-4.0673,-4.2013,-4.3208,-4.4059,-4.4077,-4.4132,-4.4168,-4.3407,-4.301,-4.3009,-4.2883,-4.2448,-4.1741,-4.1578,-4.0854,-3.9423,-3.7937,-3.6379,-3.4733,0.0,0.0,0.0,0.0,0.0,0.0,0.0,0.0,0.0,0.0,0.0,0.0,0.0,0.0,0.0,-3.6021,0.0,-3.8336,-3.8536,0.0,0.0,0.0,-4.0329,-4.1741,-4.2665,-4.3172,-4.3191,0.0,0.0,-4.4476,-4.5091,-4.587,-4.6595,-4.6522,-4.6124,-4.5399,-4.5906,-4.6309,-4.5939,-4.6473,-4.7045,-4.7509,-4.845,-4.9169,-4.917,-4.8875,-4.8783,-4.9372,-4.915,-4.893,-4.9482,-4.9702,-4.9812,-4.9739,-5.0453,-5.1353,-5.2766,-5.3023,-5.3041,-5.291,-5.3004,-5.3038,-4.4269,-4.3111,-4.2361,-4.1666,-4.1082,-4.1216,-4.1406,-4.1604,-4.1604,-4.1604,-4.1569,-4.1196,-4.0976,-4.0809,-4.0264,-4.0401,-4.1117,-4.1768,-4.2674,-4.3793,-4.443,-4.4931,-4.5291,-4.5291,-4.5291,-4.5345,-4.6124,-4.6504,-4.654,-4.6939,-4.6106,-4.4204,-4.4512,-4.3317,-4.0637,-4.1488,-4.2683,-4.4077,-4.4095,-4.4385,-4.4983,-4.424,-4.3825,-4.3806,-4.2629,-4.1904,-4.1687,-4.0564,-3.9767,-3.9387,-3.8444,-3.7178,-3.5602,-3.3067,0.0,0.0,0.0,0.0,0.0,0.0,0.0,0.0,0.0,-3.4989,-3.3791,0.0,-3.4718,0.0,-3.7958,-3.9786,-4.0764,-4.1415,0.0,0.0,-4.2357,-4.3118,-4.3516,-4.4784,-4.5635,-4.5635,-4.6522,-4.7065,-4.6866,-4.7554,-4.8094,-4.8297,-4.6757,-4.5508,-4.5345,-4.5979,-4.6726,-4.7248,-4.7979,-4.8605,-4.8769,-4.865,-4.8673,-4.8618,-4.8985,-4.9372,-4.9574,-4.9958,-5.0105,-4.9794,-5.0618,-5.1077,-5.0545,-5.1169,-5.1738,-5.2197,-5.2289,-5.227,-5.2289,-5.2747,-5.3167,-4.4958,-4.3948,-4.3476,-4.264,-4.1604,-4.1719,-4.1697,-4.1604,-4.1604,-4.1604,-4.1604,-4.1604,-4.1604,-4.1622,-4.1973,-4.2247,-4.2483,-4.3354,-4.4161,-4.4877,-4.5392,-4.5874,-4.6377,-4.6377,-4.6377,-4.6395,-4.683,-4.7047,-4.7065,-4.7482,-4.7008,-4.5743,-4.616,-4.5128,-4.2737,-4.2375,-4.2665,-4.3553,-4.3914,-4.4476,-4.5254,-4.4512,-4.3769,-4.3027,-4.1831,-4.0836,-4.0166,-3.9315,-3.8536,-3.783,-3.7359,-3.6562,-3.5297,-3.3321,-3.2013,0.0,0.0,0.0,0.0,0.0,0.0,0.0,0.0,0.0,0.0,0.0,-3.6671,-3.7795,-4.0474,-4.2285,-4.2719,-4.3824,-4.4476,-4.4384,-4.549,-4.6377,-4.6739,-4.7554,-4.8098,-4.8098,-4.8496,-4.8768,-4.8786,-4.9148,-4.9438,-4.9438,-4.8279,-4.7283,-4.6975,-4.7011,-4.7252,-4.7809,-4.8637,-4.9357,-4.9911,-4.9698,-4.9426,-4.9444,-4.9811,-5.0141,-5.0141,-5.049,-5.0527,-4.9886,-5.0618,-5.1059,-5.0013,-5.0362,-5.0822,-5.049,-5.0655,-5.1042,-5.1389,-5.183,-5.2142,-4.5758,-4.5045,-4.4343,-4.3167,-4.1762,-4.1762,-4.1587,-4.1323,-4.1306,-4.1358,-4.1464,-4.1552,-4.1604,-4.1657,-4.2447,-4.2876,-4.3138,-4.4161,-4.5207,-4.6151,-4.6428,-4.6967,-4.7699,-4.7699,-4.7699,-4.7699,-4.7699,-4.7699,-4.7699,-4.7699,-4.7609,-4.7409,-4.7409,-4.6595,-4.5001,-4.3608,-4.2919,-4.2919,-4.3769,-4.4603,-4.5254,-4.4313,-4.3081,-4.1596,-4.0673,-3.9514,-3.8136,-3.8046,-3.7395,-3.6055,-3.5983,-3.5729,-3.5222,-3.361,-3.2759,0.0,-3.156,0.0,0.0,0.0,0.0,0.0,0.0,0.0,0.0,-3.9079,-3.9478,-4.1126,-4.3262,-4.4621,-4.4876,-4.6232,-4.7355,-4.7953,-4.8822,-4.9582,-5.0039,-5.0202,-5.0234,-5.0257,-5.0257,-5.0257,-5.0216,-5.0329,-5.0401,-5.0271,-5.0144,-4.9782,-4.9257,-4.8384,-4.7919,-4.8024,-4.8694,-4.9494,-5.0281,-5.0635,-5.071,-5.0765,-5.0729,-5.082,-5.0765,-5.0674,-5.0417,-4.9867,-5.027,-5.0343,-4.8875,-4.9334,-4.9536,-4.9077,-4.9279,-4.9738,-5.0453,-5.082,-5.0802,-4.5758,-4.5098,-4.494,-4.3992,-4.2587,-4.2587,-4.1499,-3.974,-3.9722,-4.0112,-4.0727,-4.1341,-4.1604,-4.1674,-4.2447,-4.2821,-4.2936,-4.4354,-4.5321,-4.5913,-4.6597,-4.7172,-4.7678,-4.7699,-4.7699,-4.7699,-4.7699,-4.7699,-4.7699,-4.7699,-4.7029,-4.578,-4.5743,-4.4947,-4.3426,0.0,0.0,0.0,-4.4331,-4.5164,-4.5218,-4.3244,-4.1687,-4.0727,-3.9369,0.0,-3.7303,-3.7212,-3.7104,-3.6814,-3.6777,0.0,0.0,0.0,0.0,0.0,0.0,0.0,0.0,0.0,0.0,0.0,-3.8826,-3.9007,-4.0202,-4.1343,-4.2936,-4.5146,-4.6377,-4.7554,-4.8862,-4.98,-5.018,-4.9764,-5.0941,-5.1375,-5.0329,-5.0651,-5.1067,-5.1049,-5.1049,-5.1067,-5.1104,-5.1611,-5.1756,-5.1199,-5.109,-5.1036,-5.085,-4.9582,-4.8731,-4.8735,-4.9034,-4.9309,-4.9596,-5.0338,-5.0894,-5.082,-5.082,-5.0839,-5.082,-5.0325,-4.9886,-4.9647,-5.027,-5.0784,-5.0325,-5.049,-5.049,-5.0343,-4.9389,-4.8802,-4.9665,-5.0343,-5.082,-4.5968,-4.56,-4.5256,-4.4431,0.0,-4.2933,-4.1692,-3.9901,-4.0288,-4.0674,-4.1082,-4.1446,-4.1604,-4.1639,-4.2043,-4.2268,-4.2432,-4.3208,-4.4236,-4.5409,-4.5839,-4.6622,-4.7699,-4.7699,-4.7699,-4.7699,-4.7699,-4.7699,-4.7699,-4.7699,-4.728,-4.6504,-4.6486,-4.6087,-4.5309,-4.5254,-4.4874,-4.4077,-4.4892,-4.5689,-4.6395,-4.4891,-4.3479,-4.2321,-4.1144,0.0,0.0,0.0,0.0,0.0,0.0,0.0,0.0,0.0,0.0,-3.9242,-3.8952,-3.9079,-3.9857,-4.031,-4.1198,-4.2774,-4.3643,-4.3751,-4.2955,-4.5055,-4.712,-4.8677,-4.9238,-4.9963,-5.114,-5.1665,-5.1719,-5.1375,-5.2009,-5.2136,-5.1484,-5.1652,-5.1882,-5.19,-5.19,-5.1882,-5.1882,-5.2208,-5.2335,-5.1955,-5.19,-5.1882,-5.1737,-5.0506,-4.9532,-4.9503,-4.937,-4.948,-4.998,-5.0796,-5.1389,-5.1426,-5.172,-5.1793,-5.1444,-5.1389,-5.1022,-5.0088,-5.0857,-5.1683,-5.0508,-5.0802,-5.1151,-5.0362,-4.9517,-4.8893,-4.9022,-4.9279,-4.9554,-4.6214,-4.6144,-4.553,-4.4834,-4.4062,-4.3465,-4.2324,-4.0941,-4.1253,0.0,0.0,-4.1552,-4.1674,-4.1815,-4.1955,-4.2207,-4.2546,-4.2731,-4.3736,-4.5318,-4.5399,-4.6227,-4.7681,-4.7699,-4.7699,-4.7699,-4.7699,-4.7699,-4.7699,-4.7699,-4.7699,-4.7699,-4.7699,-4.7699,-4.7699,-4.7699,-4.7047,-4.578,-4.5436,-4.5924,-4.721,-4.6359,-4.5182,-4.3715,-4.3027,-4.1995,-4.0564,-4.0637,-4.0419,-3.9786,-3.9786,-3.993,-4.0202,-4.0093,-4.0419,-4.1289,-4.1361,-4.1995,-4.3407,-4.3516,-4.4512,-4.6776,-4.8279,-4.8333,-4.6468,-4.8789,-5.0655,-5.1452,-5.1502,-5.1774,-5.2426,-5.2498,-5.2498,-5.2498,-5.2498,-5.2498,-5.248,-5.2498,-5.2462,-5.2498,-5.2444,-5.248,-5.2462,-5.248,-5.2498,-5.248,-5.2426,-5.2498,-5.2317,-5.1212,-5.026,-5.0134,-4.9974,-5.0083,-5.073,-5.1561,-5.2139,-5.2234,-5.2747,-5.2931,-5.2509,-5.2637,-5.2087,-5.0235,-5.1628,-5.1811,-5.0437,-5.0986,-5.1446,-5.0106,-4.9702,-4.9335,-4.8545,-4.8324,-4.8398,-4.6214,-4.6196,-4.6091,-4.56,-4.4922,-4.4817,-4.3921,-4.2394,-4.1183,-4.0678,-4.0695,-4.1323,-4.199,-4.2675,-4.3289,-4.398,-4.4712,-4.5558,-4.6221,-4.6726,-4.6891,-4.7212,-4.7678,-4.7699,-4.7699,-4.7699,-4.7699,-4.7699,-4.7717,-4.7717,-4.7699,-4.7678,-4.7699,-4.7678,-4.7699,-4.7699,-4.7609,-4.7355,-4.5997,-4.5417,-4.5617,-4.4168,-4.2973,-4.2103,-4.1994,-4.1451,-4.0546,-4.1216,-4.1488,-4.1379,-4.1379,-4.1976,-4.3299,-4.281,-4.3063,-4.4476,-4.4639,-4.5037,-4.5906,-4.5997,-4.6739,-4.8384,-4.9401,-5.0053,-5.0434,-5.085,-5.1466,-5.2208,-5.2281,-5.2353,-5.2498,-5.2498,-5.2498,-5.2498,-5.2498,-5.2498,-5.2498,-5.2498,-5.2498,-5.2498,-5.2498,-5.2498,-5.2498,-5.2498,-5.2498,-5.2498,-5.2498,-5.2498,-5.2353,-5.1719,-5.0913,-5.0475,-5.0795,-5.1267,-5.1639,-5.2304,-5.2791,-5.302,-5.3075,-5.3112,-5.2894,-5.2491,-5.183,-5.0765,-5.1426,-5.161,-5.071,-5.1353,-5.1408,-5.06,-5.0014,-4.9335,-4.8489,-4.8324,-4.8324,-4.6214,-4.6214,-4.6214,-4.6003,-4.5653,-4.5273,-4.422,-4.2798,-4.2061,-4.1745,-4.1832,-4.2535,-4.3044,-4.3377,-4.3325,-4.3518,-4.3851,-4.3879,-4.4559,-4.5717,-4.5845,-4.655,-4.7624,-4.7699,-4.7699,-4.7699,-4.7699,-4.7551,-4.728,-4.7258,-4.7147,-4.6863,-4.684,-4.684,-4.6845,-4.7107,-4.7258,-4.724,-4.6832,-4.6613,-4.6595,-4.5888,-4.5345,-4.4963,-4.4945,-4.4782,-4.444,-4.4746,-4.4945,-4.4945,-4.4945,-4.5289,-4.5979,-4.5707,-4.5834,-4.6558,-4.6613,-4.6776,-4.7138,-4.7156,-4.7844,-4.9401,-4.9872,-5.0655,-5.1864,-5.1955,-5.2118,-5.2444,-5.2498,-5.2498,-5.2498,-5.2498,-5.2498,-5.2498,-5.2498,-5.2498,-5.2498,-5.2498,-5.2498,-5.2498,-5.2498,-5.2498,-5.2498,-5.2498,-5.2498,-5.2498,-5.2498,-5.2498,-5.2498,-5.2241,-5.1869,-5.1591,-5.1628,-5.1882,-5.2337,-5.2807,-5.3106,-5.3185,-5.3185,-5.2983,-5.2692,-5.216,-5.1538,-5.0472,-5.0802,-5.0949,-5.0325,-5.0802,-5.0894,-5.0343,-4.9922,-4.928,-4.8581,-4.8324,-4.8324,-4.6214,-4.6214,-4.6214,-4.6214,-4.6144,-4.5607,-4.4466,-4.3131,-4.3237,-4.3131,-4.2903,-4.3412,-4.3851,-4.4097,-4.3588,-4.3453,-4.3557,-4.3075,-4.3713,-4.5176,-4.533,-4.6208,-4.7548,-4.7699,-4.7636,-4.7533,-4.7511,-4.7236,-4.6776,-4.673,-4.6543,-4.614,-4.6116,-4.6116,-4.6116,-4.6501,-4.673,-4.673,-4.7111,-4.745,-4.7678,-4.7699,-4.7699,-4.7699,-4.7681,-4.7699,-4.7699,-4.7699,-4.7699,-4.7699,-4.7699,-4.7699,-4.7699,-4.7699,-4.7699,-4.7699,-4.7699,-4.7699,-4.7699,-4.7699,-4.8405,-4.9967,-5.0112,-5.0715,-5.2087,-5.2298,-5.2345,-5.2475,-5.2452,-5.2428,-5.2475,-5.2345,-5.2298,-5.2298,-5.2162,-5.2114,-5.2233,-5.2186,-5.2233,-5.241,-5.2387,-5.2322,-5.2457,-5.2498,-5.2498,-5.2498,-5.2498,-5.2498,-5.2521,-5.2559,-5.2608,-5.2567,-5.2302,-5.2279,-5.2889,-5.3082,-5.3164,-5.3185,-5.3185,-5.2968,-5.2491,-5.2197,-5.1499,-5.038,-5.0398,-5.0472,-4.9904,-5.027,-5.0417,-4.9866,-4.961,-4.9335,-4.8508,-4.8324,-4.8324,-4.6214,-4.6214,-4.6214,-4.6214,-4.6179,-4.6109,-4.5179,-4.3974,-4.4553,-4.4079,-4.2973,-4.2863,-4.3746,-4.4869,-4.4869,-4.5293,-4.6124,-4.641,-4.6619,-4.697,-4.7313,-4.753,-4.7678,-4.7678,-4.745,-4.7039,-4.6976,-4.6707,-4.6196,-4.6165,-4.614,-4.6116,-4.6116,-4.6067,-4.6091,-4.614,-4.6189,-4.6172,-4.6238,-4.673,-4.7636,-4.7699,-4.7699,-4.7699,-4.7699,-4.7699,-4.7699,-4.7699,-4.7699,-4.7699,-4.7699,-4.7699,-4.7699,-4.7699,-4.7699,-4.7699,-4.7699,-4.7699,-4.7699,-4.7699,-4.8387,-4.9894,-5.0071,-5.052,-5.1553,-5.1676,-5.1909,-5.2251,-5.2246,-5.218,-5.2428,-5.2,-5.1694,-5.1651,-5.1243,-5.1061,-5.1508,-5.1191,-5.1286,-5.241,-5.1975,-5.1884,-5.2298,-5.2457,-5.2498,-5.2498,-5.2498,-5.2498,-5.2521,-5.2577,-5.2654,-5.2739,-5.2696,-5.2762,-5.2977,-5.2999,-5.3103,-5.3185,-5.3185,-5.3093,-5.2894,-5.2344,-5.1665,-5.0784,-5.0453,-5.0233,-4.9958,-5.0196,-5.0343,-4.9609,-4.9334,-4.9279,-4.8563,-4.8324,-4.8324,-4.6214,-4.6214,-4.6214,-4.5933,-4.5617,-4.6003,-4.5319,-4.4009,-4.4746,-4.4783,-4.4371,-4.422,-4.4572,-4.5258,-4.5258,-4.5841,-4.6801,-4.6795,-4.6911,-4.7116,-4.7227,-4.7338,-4.7446,-4.7298,-4.7107,-4.6886,-4.6572,-4.6165,-4.5665,-4.5337,-4.5196,-4.5213,-4.5196,-4.5222,-4.5222,-4.5503,-4.5622,-4.564,-4.5943,-4.631,-4.673,-4.7062,-4.7385,-4.7657,-4.7699,-4.7699,-4.7699,-4.7699,-4.7699,-4.7699,-4.7699,-4.7699,-4.7699,-4.7699,-4.7699,-4.7699,-4.7699,-4.7699,-4.7699,-4.7699,-4.8188,-4.9311,-4.9514,-4.9937,-5.0773,-5.0865,-5.0999,-5.1337,-5.1329,-5.1329,-5.1432,-5.1191,-5.1061,-5.1034,-5.0832,-5.0805,-5.1008,-5.0858,-5.0955,-5.1381,-5.1235,-5.1286,-5.1884,-5.2275,-5.2457,-5.2498,-5.2498,-5.2498,-5.2521,-5.2604,-5.2739,-5.2806,-5.2912,-5.3039,-5.3103,-5.3103,-5.3143,-5.3185,-5.3185,-5.3185,-5.3002,-5.2068,-5.1151,-5.0839,-5.005,-4.9407,-4.8875,-4.9022,-4.9169,-4.8838,-4.8802,-4.8691,-4.8361,-4.8324,-4.8324,-4.6214,-4.6214,-4.6214,-4.5881,-4.5466,-4.5968,-4.5442,-4.4378,-4.4852,-4.507,-4.4964,-4.4835,-4.5012,-4.5375,-4.5564,-4.61,-4.6806,-4.6684,-4.6684,-4.6847,-4.687,-4.6898,-4.6954,-4.6776,-4.6613,-4.643,-4.6049,-4.5614,-4.5125,-4.4786,-4.4598,-4.4598,-4.4598,-4.4598,-4.4626,-4.4971,-4.5098,-4.5125,-4.5503,-4.5759,-4.5918,-4.6262,-4.6794,-4.7407,-4.7636,-4.7699,-4.7699,-4.7699,-4.7699,-4.7699,-4.7699,-4.7699,-4.7699,-4.7699,-4.7699,-4.7699,-4.7699,-4.7699,-4.7699,-4.7699,-4.8043,-4.8793,-4.9093,-4.947,-4.9986,-5.0186,-5.0202,-5.0192,-5.0248,-5.0304,-5.068,-5.0562,-5.0497,-5.0497,-5.0342,-5.0276,-5.0442,-5.0387,-5.0314,-5.0626,-5.0761,-5.1008,-5.1719,-5.2233,-5.2498,-5.2498,-5.2498,-5.2498,-5.2521,-5.2618,-5.2735,-5.2802,-5.2955,-5.3082,-5.3164,-5.3185,-5.3185,-5.3185,-5.3185,-5.3093,-5.2873,-5.161,-5.06,-5.027,-4.9077,-4.8471,-4.8508,-4.8434,-4.8379,-4.8343,-4.8343,-4.8361,-4.8324,-4.8324,-4.8324,-4.6214,-4.6214,-4.6214,-4.6161,-4.6161,-4.6179,-4.5775,-4.5045,-4.5115,-4.4711,-4.4214,-4.4103,-4.4536,-4.5469,-4.5921,-4.6339,-4.6613,-4.6637,-4.6596,-4.6543,-4.6543,-4.6406,-4.6165,-4.614,-4.5893,-4.5537,-4.5425,-4.5115,-4.4682,-4.4626,-4.4598,-4.4598,-4.4598,-4.4598,-4.4598,-4.4654,-4.4637,-4.4692,-4.4748,-4.4906,-4.5294,-4.5381,-4.5925,-4.684,-4.7407,-4.7657,-4.7699,-4.7699,-4.7699,-4.7699,-4.7699,-4.7699,-4.7699,-4.7699,-4.7699,-4.7699,-4.7699,-4.7699,-4.7699,-4.7699,-4.804,-4.8753,-4.9046,-4.9298,-4.96,-4.9775,-4.9698,-4.9152,-4.9212,-4.958,-5.0342,-5.017,-4.993,-4.9919,-4.9436,-4.9436,-4.9844,-4.9509,-4.9639,-5.0397,-5.0724,-5.1183,-5.2233,-5.2457,-5.2498,-5.2498,-5.2498,-5.2498,-5.2498,-5.2521,-5.2622,-5.2739,-5.2868,-5.2912,-5.3143,-5.3185,-5.3185,-5.313,-5.3038,-5.2986,-5.216,-5.1334,-5.0545,-4.9811,-4.893,-4.8434,-4.8361,-4.8324,-4.8324,-4.8324,-4.8324,-4.8324,-4.8324,-4.8324,-4.8324,-4.6214,-4.6214,-4.6214,-4.6214,-4.6214,-4.6214,-4.6056,-4.581,-4.5835,-4.5756,-4.5587,-4.5451,-4.5657,-4.6183,-4.6196,-4.644,-4.6819,-4.6865,-4.6666,-4.6346,-4.6448,-4.6286,-4.5903,-4.5691,-4.5511,-4.5294,-4.4998,-4.4759,-4.4626,-4.4598,-4.4598,-4.4598,-4.4598,-4.4598,-4.4598,-4.4598,-4.4598,-4.4598,-4.4598,-4.4709,-4.4879,-4.5135,-4.5511,-4.5893,-4.673,-4.7363,-4.7678,-4.7699,-4.7699,-4.7699,-4.7699,-4.7699,-4.7699,-4.7699,-4.7699,-4.7699,-4.7699,-4.7699,-4.7699,-4.7699,-4.8043,-4.8775,-4.8764,-4.8921,-4.9362,-4.9407,-4.9229,-4.9063,-4.9018,-4.9273,-4.9419,-4.9436,-4.9333,-4.9303,-4.9138,-4.9077,-4.9212,-4.9138,-4.9333,-5.0085,-5.0742,-5.15,-5.1884,-5.2251,-5.248,-5.2498,-5.2498,-5.2498,-5.2521,-5.2595,-5.2712,-5.2824,-5.2934,-5.3082,-5.3164,-5.3185,-5.3148,-5.3002,-5.2892,-5.2839,-5.2289,-5.0875,-4.9941,-4.9903,-4.9077,-4.8398,-4.8324,-4.8324,-4.8324,-4.8324,-4.8324,-4.8324,-4.8324,-4.8324,-4.8324,-4.6246,-4.6319,-4.6326,-4.627,-4.6196,-4.6295,-4.627,-4.6214,-4.6214,-4.6301,-4.6398,-4.627,-4.6319,-4.644,-4.627,-4.6368,-4.6702,-4.6725,-4.6447,-4.5988,-4.6077,-4.5895,-4.545,-4.5169,-4.5072,-4.5035,-4.4759,-4.4598,-4.4598,-4.4598,-4.4598,-4.4598,-4.4598,-4.4598,-4.4598,-4.4598,-4.4598,-4.4598,-4.4598,-4.4598,-4.4654,-4.4906,-4.5135,-4.5407,-4.6172,-4.6886,-4.7446,-4.7597,-4.7699,-4.7699,-4.7699,-4.7636,-4.745,-4.7428,-4.7363,-4.7214,-4.7363,-4.7428,-4.7425,-4.7262,-4.7577,-4.8497,-4.8339,-4.8459,-4.9137,-4.9081,-4.9026,-4.9018,-4.9018,-4.9018,-4.9018,-4.9001,-4.9018,-4.9018,-4.9018,-4.9018,-4.9018,-4.9001,-4.9376,-5.0124,-5.0999,-5.1594,-5.1902,-5.2251,-5.2434,-5.2498,-5.2526,-5.2549,-5.2554,-5.2667,-5.2828,-5.2868,-5.2999,-5.3121,-5.3185,-5.3185,-5.3185,-5.3057,-5.2472,-5.2454,-5.2013,-5.0545,-4.9702,-4.9738,-4.937,-4.8655,-4.8324,-4.8324,-4.8324,-4.8324,-4.8324,-4.8324,-4.8324,-4.8324,-4.8324,-4.6368,-4.6566,-4.659,-4.6464,-4.6277,-4.6471,-4.6423,-4.6221,-4.6214,-4.6239,-4.6263,-4.6196,-4.6214,-4.6214,-4.6214,-4.6239,-4.6288,-4.6246,-4.598,-4.5503,-4.5503,-4.5203,-4.472,-4.4682,-4.4665,-4.4665,-4.4598,-4.4598,-4.4598,-4.4598,-4.4598,-4.4598,-4.4598,-4.4598,-4.4598,-4.4598,-4.4598,-4.4598,-4.4598,-4.4598,-4.4598,-4.4637,-4.4852,-4.5267,-4.5817,-4.6334,-4.6863,-4.7407,-4.7699,-4.7699,-4.7699,-4.7468,-4.7062,-4.6972,-4.6689,-4.6406,-4.6637,-4.6886,-4.6863,-4.6478,-4.6814,-4.7843,-4.7814,-4.8031,-4.8838,-4.8971,-4.9018,-4.9018,-4.9018,-4.9018,-4.9018,-4.9018,-4.9018,-4.9018,-4.9018,-4.9018,-4.9018,-4.9063,-4.9449,-5.0507,-5.1312,-5.186,-5.2298,-5.2457,-5.2498,-5.2526,-5.2559,-5.2608,-5.2627,-5.2739,-5.2868,-5.2955,-5.3042,-5.3124,-5.3164,-5.3185,-5.3185,-5.3057,-5.2307,-5.183,-5.1371,-5.027,-4.9445,-4.926,-4.8985,-4.8343,-4.8324,-4.8324,-4.8324,-4.8324,-4.8324,-4.8324,-4.8324,-4.8324,-4.8324,-4.6684,-4.6613,-4.6795,-4.6708,-4.6495,-4.6566,-4.6447,-4.6196,-4.6214,-4.6214,-4.6214,-4.6214,-4.6214,-4.6214,-4.6214,-4.6214,-4.6189,-4.6005,-4.5735,-4.545,-4.5433,-4.5142,-4.4665,-4.4468,-4.4468,-4.457,-4.4598,-4.4598,-4.4598,-4.4598,-4.4598,-4.4598,-4.4598,-4.4598,-4.4598,-4.4598,-4.4598,-4.4598,-4.4598,-4.4598,-4.4598,-4.4598,-4.4665,-4.4869,-4.5294,-4.5648,-4.585,-4.6999,-4.7657,-4.7678,-4.7699,-4.745,-4.6999,-4.6908,-4.666,-4.6196,-4.622,-4.6358,-4.6334,-4.6249,-4.6702,-4.7824,-4.7873,-4.8297,-4.9263,-4.918,-4.9032,-4.9018,-4.9018,-4.9018,-4.9018,-4.9018,-4.9032,-4.9001,-4.9018,-4.9001,-4.9138,-4.9681,-5.047,-5.1183,-5.186,-5.2275,-5.2434,-5.2498,-5.2526,-5.2559,-5.2586,-5.2631,-5.2721,-5.285,-5.2955,-5.2999,-5.3063,-5.3124,-5.3164,-5.3185,-5.3185,-5.2947,-5.2252,-5.1573,-5.1004,-5.0196,-4.9352,-4.8802,-4.8508,-4.8361,-4.8324,-4.8324,-4.8324,-4.8324,-4.8324,-4.8324,-4.8324,-4.8324,-4.8324,-4.6957,-4.6893,-4.6957,-4.6824,-4.6613,-4.6613,-4.6464,-4.6239,-4.6214,-4.6214,-4.6214,-4.6214,-4.6214,-4.6189,-4.6097,-4.6055,-4.6005,-4.5778,-4.552,-4.5283,-4.5275,-4.5052,-4.4626,-4.4468,-4.4468,-4.457,-4.4598,-4.4598,-4.4598,-4.4598,-4.4598,-4.4598,-4.4598,-4.4598,-4.4598,-4.4598,-4.4598,-4.4598,-4.4598,-4.4598,-4.4598,-4.4598,-4.4598,-4.4665,-4.5062,-4.5276,-4.5381,-4.6495,-4.7214,-4.7363,-4.7425,-4.7236,-4.6908,-4.6707,-4.6358,-4.5925,-4.58,-4.58,-4.5775,-4.5649,-4.6317,-4.7612,-4.7614,-4.7963,-4.912,-4.9168,-4.9032,-4.9018,-4.9018,-4.9018,-4.9032,-4.9229,-4.9303,-4.9333,-4.9107,-4.9107,-4.9394,-5.0135,-5.0902,-5.1482,-5.2114,-5.241,-5.2498,-5.2498,-5.2526,-5.2586,-5.2654,-5.2721,-5.285,-5.2977,-5.3039,-5.3082,-5.3143,-5.3164,-5.3185,-5.3185,-5.3185,-5.2784,-5.2252,-5.1665,-5.1114,-5.0068,-4.917,-4.8746,-4.8416,-4.8343,-4.8324,-4.8324,-4.8324,-4.8324,-4.8324,-4.8324,-4.8324,-4.8324,-4.8324,-4.721,-4.7307,-4.7124,-4.6849,-4.656,-4.6565,-4.6389,-4.6172,-4.6073,-4.6073,-4.6122,-4.6097,-4.6122,-4.6097,-4.5905,-4.5811,-4.5735,-4.5546,-4.5292,-4.5123,-4.5069,-4.4951,-4.472,-4.4609,-4.4609,-4.4692,-4.4626,-4.4598,-4.4598,-4.4598,-4.4598,-4.4598,-4.4598,-4.4598,-4.4598,-4.4598,-4.4649,-4.4767,-4.4733,-4.475,-4.4835,-4.4733,-4.4716,-4.4733,-4.5049,-4.5188,-4.5294,-4.5817,-4.6358,-4.6794,-4.6845,-4.6799,-4.6683,-4.6334,-4.58,-4.532,-4.5267,-4.5267,-4.5178,-4.5125,-4.5663,-4.7275,-4.7329,-4.7445,-4.8792,-4.9063,-4.9018,-4.9018,-4.9018,-4.9032,-4.9168,-4.9496,-4.9803,-4.9873,-4.9568,-4.9555,-4.9959,-5.0497,-5.1105,-5.1626,-5.2162,-5.2498,-5.2498,-5.2498,-5.2531,-5.2627,-5.2721,-5.2828,-5.2977,-5.3082,-5.3164,-5.3185,-5.3203,-5.3185,-5.3185,-5.3185,-5.3185,-5.2949,-5.2325,-5.1665,-5.0949,-4.9866,-4.9022,-4.8618,-4.8416,-4.8343,-4.8324,-4.8324,-4.8324,-4.8324,-4.8324,-4.8324,-4.8324,-4.8324,-4.8324,-4.8219,-4.7946,-4.7684,-4.7037,-4.6277,-4.6368,-4.6178,-4.5718,-4.539,-4.5511,-4.5684,-4.5752,-4.5735,-4.5735,-4.5684,-4.5658,-4.558,-4.5363,-4.523,-4.5177,-4.5274,-4.5159,-4.4944,-4.472,-4.4803,-4.5042,-4.4816,-4.4598,-4.4598,-4.4716,-4.4682,-4.4598,-4.4716,-4.4666,-4.4598,-4.4682,-4.4891,-4.5331,-4.5415,-4.5686,-4.5991,-4.5602,-4.5415,-4.5376,-4.5026,-4.4882,-4.4841,-4.5258,-4.5749,-4.6262,-4.631,-4.6098,-4.5868,-4.5622,-4.5346,-4.4971,-4.4797,-4.4797,-4.4861,-4.5173,-4.5908,-4.6872,-4.7348,-4.802,-4.8883,-4.9018,-4.9018,-4.9018,-4.9001,-4.9199,-4.9555,-4.9832,-5.0102,-5.0415,-5.0359,-5.0487,-5.0947,-5.1278,-5.1601,-5.2162,-5.2387,-5.2457,-5.2498,-5.2498,-5.2572,-5.2694,-5.2783,-5.289,-5.306,-5.3124,-5.3185,-5.3185,-5.3185,-5.3185,-5.3185,-5.3185,-5.3148,-5.3059,-5.2454,-5.1591,-5.0674,-4.9536,-4.8857,-4.8343,-4.8361,-4.8324,-4.8324,-4.8324,-4.8324,-4.8324,-4.8324,-4.8324,-4.8324,-4.8324,-4.8343,-4.8834,-4.89,-4.7985,-4.722,-4.6638,-4.6647,-4.6141,-4.5405,-4.5249,-4.5205,-4.5302,-4.5302,-4.5302,-4.5302,-4.5196,-4.5266,-4.5389,-4.5133,-4.5123,-4.531,-4.5363,-4.5381,-4.5284,-4.5069,-4.5206,-4.5686,-4.529,-4.5303,-4.5512,-4.5529,-4.5529,-4.5596,-4.5529,-4.55,-4.5568,-4.5563,-4.5686,-4.6092,-4.616,-4.6397,-4.6701,-4.6075,-4.5754,-4.5635,-4.5263,-4.5145,-4.5518,-4.5806,-4.6057,-4.623,-4.6153,-4.595,-4.5665,-4.5407,-4.5161,-4.4889,-4.4703,-4.4598,-4.4705,-4.5206,-4.5874,-4.66,-4.7329,-4.804,-4.8692,-4.8909,-4.8925,-4.9001,-4.9001,-4.9303,-4.9815,-5.0282,-5.0858,-5.1381,-5.1439,-5.1482,-5.1626,-5.1569,-5.1884,-5.2298,-5.2498,-5.2498,-5.2498,-5.2498,-5.2595,-5.2717,-5.2783,-5.2955,-5.3143,-5.3164,-5.3185,-5.3185,-5.3185,-5.3185,-5.3185,-5.3185,-5.2983,-5.2894,-5.1977,-5.1206,-5.027,-4.9187,-4.8746,-4.8324,-4.8324,-4.8324,-4.8324,-4.8324,-4.8324,-4.8324,-4.8324,-4.8324,-4.8324,-4.8453,-4.8453,-4.9307,-4.9992,-4.8229,-4.7467,-4.7317,-4.6995,-4.6192,-4.5211,-4.5407,-4.5416,-4.5214,-4.5054,-4.5178,-4.4974,-4.5008,-4.4917,-4.5257,-4.5062,-4.5115,-4.5372,-4.5572,-4.5718,-4.5952,-4.5587,-4.5836,-4.6355,-4.6027,-4.6167,-4.6413,-4.6633,-4.6718,-4.6566,-4.6616,-4.6718,-4.6515,-4.6633,-4.6802,-4.687,-4.6904,-4.7056,-4.7107,-4.6599,-4.6261,-4.6194,-4.594,-4.6194,-4.6599,-4.6789,-4.6703,-4.6684,-4.6274,-4.5966,-4.5879,-4.5407,-4.5214,-4.5167,-4.4922,-4.4818,-4.4874,-4.544,-4.5993,-4.6716,-4.7284,-4.7826,-4.8587,-4.8769,-4.8863,-4.894,-4.897,-4.9364,-5.0028,-5.0938,-5.1644,-5.2138,-5.2387,-5.2204,-5.186,-5.1694,-5.1927,-5.2387,-5.2498,-5.2498,-5.248,-5.2503,-5.2595,-5.2779,-5.2828,-5.2977,-5.3143,-5.3185,-5.3185,-5.3185,-5.3185,-5.3185,-5.3185,-5.3185,-5.2913,-5.2582,-5.1353,-5.0417,-4.9646,-4.8838,-4.8545,-4.8324,-4.8324,-4.8324,-4.8324,-4.8324,-4.8324,-4.8324,-4.8324,-4.8324,-4.8343,-4.8581,-4.8673,-5.0582,-5.0312,-4.9118,-4.7953,-4.6977,-4.6835,-4.6254,-4.5399,-4.5588,-4.5784,-4.5893,-4.5802,-4.5717,-4.5674,-4.5381,-4.5424,-4.5494,-4.5424,-4.5477,-4.5563,-4.6137,-4.648,-4.662,-4.619,-4.6382,-4.6853,-4.6737,-4.668,-4.6836,-4.6955,-4.6802,-4.687,-4.7005,-4.6819,-4.6887,-4.7005,-4.7124,-4.7547,-4.7682,-4.7953,-4.8189,-4.7699,-4.728,-4.7246,-4.6836,-4.6955,-4.7378,-4.7107,-4.7065,-4.7165,-4.6527,-4.5795,-4.521,-4.4964,-4.4899,-4.5007,-4.532,-4.5466,-4.564,-4.6401,-4.714,-4.7309,-4.7807,-4.8364,-4.8497,-4.8738,-4.8801,-4.8863,-4.894,-4.9436,-5.0304,-5.1131,-5.1811,-5.2275,-5.2475,-5.2452,-5.234,-5.2293,-5.2322,-5.2434,-5.2498,-5.2498,-5.2498,-5.2554,-5.2645,-5.2802,-5.2912,-5.302,-5.3103,-5.3185,-5.3185,-5.3185,-5.3185,-5.3185,-5.3185,-5.3112,-5.2803,-5.2325,-5.1132,-5.0068,-4.9297,-4.8655,-4.8398,-4.8324,-4.8324,-4.8324,-4.8324,-4.8324,-4.8324,-4.8324,-4.8343,-4.8416,-4.8526,-4.8728,-4.9095,-5.0964,-5.1185,-4.909,-4.8037,-4.7761,-4.7128,-4.6389,-4.5753,-4.5875,-4.59,-4.58,-4.5708,-4.5597,-4.5485,-4.5337,-4.5372,-4.5632,-4.5803,-4.5778,-4.5709,-4.6005,-4.6515,-4.7114,-4.6934,-4.7,-4.7829,-4.7535,-4.7505,-4.7733,-4.7784,-4.7902,-4.7817,-4.78,-4.7936,-4.7834,-4.78,-4.8054,-4.8342,-4.8426,-4.8646,-4.8832,-4.8308,-4.7906,-4.7872,-4.7564,-4.7665,-4.8261,-4.8088,-4.7885,-4.7686,-4.7111,-4.621,-4.5331,-4.5139,-4.5094,-4.5229,-4.5788,-4.6177,-4.6503,-4.7025,-4.7561,-4.7628,-4.8159,-4.8478,-4.8627,-4.8738,-4.8832,-4.8894,-4.9032,-4.9376,-5.0265,-5.1174,-5.1736,-5.2024,-5.2364,-5.2475,-5.2498,-5.2498,-5.2498,-5.2498,-5.2498,-5.2498,-5.2503,-5.2577,-5.2649,-5.2779,-5.2846,-5.2955,-5.3124,-5.3185,-5.3185,-5.3185,-5.3185,-5.3185,-5.3185,-5.302,-5.2692,-5.2087,-5.1187,-5.0251,-4.9482,-4.8875,-4.8343,-4.8324,-4.8324,-4.8324,-4.8324,-4.8324,-4.8324,-4.8324,-4.8379,-4.8526,-4.8875,-4.9389,-4.9756,-5.1202,-5.219,-4.8985,-4.8242,-4.8813,-4.7661,-4.6636,-4.602,-4.6334,-4.631,-4.5699,-4.5606,-4.5657,-4.5267,-4.5232,-4.5363,-4.5684,-4.5972,-4.6015,-4.6039,-4.6209,-4.6912,-4.7552,-4.7706,-4.7957,-4.8979,-4.8409,-4.8423,-4.8748,-4.9001,-4.8714,-4.8917,-4.8951,-4.8765,-4.89,-4.8968,-4.8866,-4.8883,-4.8883,-4.8917,-4.8951,-4.8443,-4.8206,-4.8156,-4.8139,-4.8325,-4.8781,-4.8798,-4.868,-4.8122,-4.7939,-4.7212,-4.643,-4.5889,-4.5872,-4.5906,-4.6549,-4.6904,-4.7077,-4.7497,-4.7847,-4.7796,-4.8193,-4.8545,-4.8658,-4.8769,-4.8832,-4.8909,-4.9032,-4.9333,-4.9988,-5.0786,-5.1432,-5.1817,-5.2275,-5.2434,-5.2498,-5.2498,-5.2498,-5.2498,-5.2498,-5.2498,-5.2503,-5.2572,-5.2667,-5.2757,-5.2824,-5.293,-5.31,-5.3185,-5.3185,-5.3185,-5.3185,-5.3185,-5.3185,-5.2784,-5.2454,-5.2105,-5.1279,-5.0472,-4.9739,-4.9262,-4.8765,-4.8379,-4.8324,-4.8324,-4.8324,-4.8324,-4.8324,-4.8324,-4.8361,-4.8453,-4.9132,-5.005,-5.027,-5.2119,-5.2036,-5.0378,-4.9565,-4.9109,-4.8097,-4.7269,-4.6865,-4.7245,-4.7258,-4.698,-4.6795,-4.6577,-4.633,-4.6055,-4.603,-4.6132,-4.6333,-4.6547,-4.6833,-4.7109,-4.7791,-4.8511,-4.8425,-4.8896,-4.9213,-4.8948,-4.8849,-4.8968,-4.9018,-4.9018,-4.9018,-4.9018,-4.9018,-4.9018,-4.9018,-4.9018,-4.9018,-4.9018,-4.9018,-4.8951,-4.8849,-4.8714,-4.8714,-4.868,-4.8815,-4.8917,-4.9018,-4.8951,-4.8781,-4.824,-4.7834,-4.7445,-4.6972,-4.6718,-4.6769,-4.731,-4.7716,-4.7787,-4.8206,-4.8548,-4.8604,-4.856,-4.853,-4.8627,-4.8738,-4.8863,-4.8956,-4.9077,-4.9436,-5.0452,-5.0876,-5.1381,-5.2,-5.2387,-5.2498,-5.2498,-5.2498,-5.2498,-5.2498,-5.2498,-5.2498,-5.2526,-5.2572,-5.2672,-5.2806,-5.2912,-5.2995,-5.3143,-5.3185,-5.3185,-5.3185,-5.3185,-5.3185,-5.3185,-5.2637,-5.2197,-5.2142,-5.1499,-5.0692,-5.0069,-4.9684,-4.9262,-4.8618,-4.8324,-4.8324,-4.8324,-4.8324,-4.8324,-4.8324,-4.8343,-4.8379,-4.9114,-4.9848,-5.0161,-5.1951,-5.1661,-4.9976,-4.9464,-4.9385,-4.7844,-4.7487,-4.7927,-4.7909,-4.8075,-4.8202,-4.8099,-4.7853,-4.7527,-4.7033,-4.6692,-4.6592,-4.7079,-4.738,-4.7709,-4.7824,-4.8451,-4.9218,-4.8882,-4.9062,-4.9308,-4.926,-4.9018,-4.9018,-4.9018,-4.9018,-4.9018,-4.9018,-4.9018,-4.9018,-4.9018,-4.9018,-4.9018,-4.9018,-4.9018,-4.9018,-4.9018,-4.9018,-4.9018,-4.9018,-4.9018,-4.9018,-4.9018,-4.9018,-4.8934,-4.8663,-4.8497,-4.8359,-4.8139,-4.7733,-4.7581,-4.8037,-4.8477,-4.8477,-4.8773,-4.8875,-4.8877,-4.8784,-4.8784,-4.8767,-4.8877,-4.9063,-4.9303,-4.9424,-4.9786,-5.0616,-5.0955,-5.1457,-5.1909,-5.2298,-5.2475,-5.2498,-5.2498,-5.2498,-5.2498,-5.2498,-5.2521,-5.2503,-5.2577,-5.2694,-5.2828,-5.2977,-5.3082,-5.3185,-5.3185,-5.3185,-5.3185,-5.3185,-5.3185,-5.3185,-5.2839,-5.2417,-5.227,-5.1922,-5.1114,-5.04,-5.0014,-4.926,-4.8489,-4.8342,-4.8324,-4.8324,-4.8324,-4.8324,-4.8324,-4.8324,-4.8489,-4.904,-4.9554,-4.9941,-5.1786,-5.1618,-4.9753,-4.952,-4.9897,-4.8084,-4.7898,-4.8798,-4.8552,-4.8675,-4.9216,-4.9064,-4.8848,-4.8627,-4.8133,-4.7614,-4.724,-4.8123,-4.8443,-4.8571,-4.8492,-4.8986,-4.9278,-4.9056,-4.8775,-4.9351,-4.926,-4.9001,-4.9018,-4.9018,-4.9018,-4.9018,-4.9018,-4.9018,-4.9018,-4.9018,-4.9018,-4.9018,-4.9018,-4.9018,-4.9018,-4.9018,-4.9018,-4.9018,-4.9018,-4.9018,-4.9018,-4.9018,-4.9018,-4.9018,-4.8968,-4.8968,-4.9001,-4.9001,-4.8731,-4.8359,-4.8714,-4.8934,-4.9001,-4.8984,-4.897,-4.8987,-4.9018,-4.9063,-4.9182,-4.9273,-4.9394,-4.9803,-4.9873,-5.017,-5.0849,-5.1286,-5.1626,-5.1909,-5.2251,-5.2498,-5.2498,-5.2498,-5.2498,-5.2498,-5.2521,-5.2526,-5.2554,-5.2708,-5.2828,-5.2912,-5.306,-5.3103,-5.3185,-5.3185,-5.3185,-5.3185,-5.3185,-5.3185,-5.3185,-5.3185,-5.2931,-5.2839,-5.2491,-5.1867,-5.1041,-5.0326,-4.9462,-4.8618,-4.8343,-4.8324,-4.8324,-4.8324,-4.8324,-4.8324,-4.8324,-4.8471,-4.8802,-4.9426,-4.9996,-5.241,-5.2315,-5.1324,-5.1049,-5.0914,-4.9716,-4.9336,-4.9531,-4.9293,-4.9204,-4.9513,-4.934,-4.9381,-4.9292,-4.9256,-4.9109,-4.9067,-4.9204,-4.9436,-4.959,-4.9613,-4.9642,-4.9881,-4.9838,-4.9159,-4.9273,-4.9077,-4.9001,-4.9018,-4.9018,-4.9018,-4.9018,-4.9018,-4.9018,-4.9018,-4.9018,-4.9018,-4.9018,-4.9018,-4.9018,-4.9018,-4.9018,-4.9018,-4.9018,-4.9018,-4.9018,-4.9018,-4.9018,-4.9018,-4.9018,-4.9018,-4.9018,-4.9018,-4.9018,-4.9001,-4.8917,-4.8968,-4.9018,-4.9018,-4.9018,-4.9018,-4.9018,-4.9018,-4.9273,-4.9526,-4.9686,-4.9774,-4.9861,-4.9959,-5.0477,-5.1278,-5.1551,-5.1884,-5.2138,-5.2387,-5.2498,-5.2498,-5.2498,-5.2498,-5.2526,-5.2549,-5.2581,-5.259,-5.2806,-5.2977,-5.3039,-5.3082,-5.3143,-5.3203,-5.3185,-5.3185,-5.3185,-5.3185,-5.3185,-5.3185,-5.3185,-5.3185,-5.3185,-5.2894,-5.2399,-5.1353,-5.0398,-4.9682,-4.8985,-4.8618,-4.8324,-4.8324,-4.8324,-4.8324,-4.8324,-4.8324,-4.8324,-4.8361,-4.9095,-4.9959,-5.2298,-5.1952,-5.1478,-5.1307,-5.1154,-5.0167,-5.0073,-5.0438,-5.017,-5.0342,-5.0772,-5.0722,-5.0466,-5.0139,-5.0164,-4.9984,-4.9792,-5.0196,-5.0337,-5.0264,-5.0284,-5.0192,-4.9855,-4.9555,-4.9168,-4.9124,-4.9018,-4.9001,-4.9018,-4.9018,-4.9018,-4.9018,-4.9018,-4.9018,-4.9018,-4.9018,-4.9018,-4.9018,-4.9018,-4.9018,-4.9018,-4.9018,-4.9018,-4.9018,-4.9018,-4.9018,-4.9018,-4.9018,-4.9018,-4.9018,-4.9018,-4.9018,-4.9018,-4.9018,-4.9001,-4.9001,-4.9001,-4.9018,-4.9018,-4.9018,-4.9018,-4.9001,-4.9063,-4.9273,-4.9715,-4.993,-5.0254,-5.0858,-5.0858,-5.127,-5.186,-5.209,-5.2233,-5.241,-5.2498,-5.2498,-5.2498,-5.2498,-5.2498,-5.2526,-5.2577,-5.2608,-5.268,-5.285,-5.2999,-5.306,-5.3103,-5.3164,-5.3185,-5.3185,-5.3185,-5.3185,-5.3185,-5.3185,-5.3185,-5.3185,-5.3185,-5.3185,-5.313,-5.2491,-5.1371,-5.0453,-4.9701,-4.904,-4.8508,-4.8324,-4.8324,-4.8324,-4.8324,-4.8324,-4.8324,-4.8324,-4.8379,-4.8967,-4.9776,-5.2228,-5.1831,-5.1672,-5.1593,-5.1516,-5.0672,-5.078,-5.1378,-5.1018,-5.1291,-5.1886,-5.1891,-5.1501,-5.1149,-5.1173,-5.105,-5.0546,-5.1253,-5.103,-5.0773,-5.0506,-5.0234,-4.9698,-4.9199,-4.9032,-4.9018,-4.9018,-4.9018,-4.9018,-4.9018,-4.9018,-4.9018,-4.9018,-4.9018,-4.9018,-4.9018,-4.9018,-4.9018,-4.9018,-4.9018,-4.9018,-4.9018,-4.9018,-4.9018,-4.9018,-4.9018,-4.9018,-4.9018,-4.9018,-4.9018,-4.9018,-4.9018,-4.9018,-4.9018,-4.9018,-4.9018,-4.9018,-4.9018,-4.9018,-4.9018,-4.9018,-4.9063,-4.9229,-4.9496,-4.9803,-4.9988,-5.0449,-5.1398,-5.1449,-5.1811,-5.2317,-5.2475,-5.2457,-5.2457,-5.2498,-5.2498,-5.2498,-5.2498,-5.2498,-5.2526,-5.2577,-5.2672,-5.2743,-5.2893,-5.2999,-5.306,-5.3103,-5.3185,-5.3185,-5.3185,-5.3185,-5.3185,-5.3185,-5.3185,-5.3185,-5.3185,-5.3185,-5.3093,-5.3057,-5.2451,-5.1261,-5.038,-4.9646,-4.9022,-4.8398,-4.8324,-4.8324,-4.8324,-4.8324,-4.8324,-4.8324,-4.8324,-4.8508,-4.9022,-4.9315,-5.2475,-5.2434,-5.2402,-5.2371,-5.2353,-5.2096,-5.1946,-5.1976,-5.1721,-5.1782,-5.2132,-5.2275,-5.2309,-5.2266,-5.217,-5.2157,-5.2198,-5.2371,-5.162,-5.0962,-5.0608,-5.0079,-4.9449,-4.9094,-4.9018,-4.9018,-4.9018,-4.9018,-4.9018,-4.9018,-4.9018,-4.9018,-4.9018,-4.9018,-4.9018,-4.9018,-4.9018,-4.9018,-4.9018,-4.9018,-4.9018,-4.9018,-4.9018,-4.9018,-4.9018,-4.9018,-4.9018,-4.9018,-4.9018,-4.9018,-4.9018,-4.9018,-4.9018,-4.9018,-4.9018,-4.9018,-4.9018,-4.9018,-4.9018,-4.9018,-4.9018,-4.9168,-4.9394,-4.9674,-4.989,-5.0387,-5.0929,-5.15,-5.1694,-5.1975,-5.2317,-5.2498,-5.2498,-5.2498,-5.2498,-5.2498,-5.2498,-5.2498,-5.2498,-5.2503,-5.2572,-5.2627,-5.2721,-5.285,-5.302,-5.3103,-5.3124,-5.3185,-5.3185,-5.3185,-5.3185,-5.3185,-5.3185,-5.3185,-5.3185,-5.3185,-5.3185,-5.2968,-5.2766,-5.2032,-5.1041,-5.027,-4.9554,-4.8893,-4.8324,-4.8324,-4.8324,-4.8324,-4.8324,-4.8324,-4.8324,-4.8324,-4.8324,-4.86,-4.8673,-5.2498,-5.2498,-5.2498,-5.2498,-5.2498,-5.2387,-5.234,-5.234,-5.2246,-5.2246,-5.2358,-5.2452,-5.2498,-5.2498,-5.2498,-5.2498,-5.2498,-5.2498,-5.1701,-5.1043,-5.0572,-5.0011,-4.9376,-4.9018,-4.9018,-4.9018,-4.9018,-4.9018,-4.9018,-4.9018,-4.9018,-4.9018,-4.9018,-4.9018,-4.9018,-4.9018,-4.9018,-4.9018,-4.9018,-4.9018,-4.9018,-4.9018,-4.9018,-4.9018,-4.9018,-4.9018,-4.9018,-4.9018,-4.9018,-4.9018,-4.9018,-4.9018,-4.9018,-4.9018,-4.9018,-4.9018,-4.9018,-4.9018,-4.9018,-4.9018,-4.9018,-4.9032,-4.9229,-4.9496,-4.9861,-5.0387,-5.0955,-5.1475,-5.1927,-5.2186,-5.2387,-5.2498,-5.2498,-5.2498,-5.2498,-5.2498,-5.2498,-5.2498,-5.2498,-5.2521,-5.2526,-5.2577,-5.2672,-5.2765,-5.2977,-5.3124,-5.3164,-5.3185,-5.3185,-5.313,-5.3112,-5.3112,-5.3093,-5.3057,-5.3038,-5.3093,-5.3148,-5.2803,-5.2417,-5.1536,-5.0655,-5.0123,-4.9445,-4.8765,-4.8324,-4.8324,-4.8324,-4.8324,-4.8324,-4.8324,-4.8324,-4.8324,-4.8324,-4.8324,-4.8324,-5.2498,-5.2498,-5.2498,-5.2498,-5.2498,-5.2498,-5.2498,-5.2498,-5.2475,-5.2498,-5.2498,-5.2498,-5.2498,-5.2498,-5.2498,-5.234,-5.2251,-5.2072,-5.1406,-5.0822,-5.0304,-4.9855,-4.9303,-4.9018,-4.9018,-4.9018,-4.9018,-4.9018,-4.9018,-4.9018,-4.9018,-4.9018,-4.9018,-4.9018,-4.9018,-4.9018,-4.9018,-4.9018,-4.9018,-4.9018,-4.9018,-4.9018,-4.9018,-4.9018,-4.9018,-4.9018,-4.9018,-4.9018,-4.9018,-4.9018,-4.9018,-4.9018,-4.9018,-4.9018,-4.9018,-4.9018,-4.9018,-4.9018,-4.9018,-4.9018,-4.9018,-4.9032,-4.9032,-4.9364,-4.9815,-5.0265,-5.0678,-5.1525,-5.1975,-5.2298,-5.241,-5.2498,-5.2498,-5.2498,-5.2498,-5.2498,-5.2498,-5.2498,-5.2498,-5.2498,-5.2526,-5.2549,-5.2672,-5.2787,-5.2977,-5.3124,-5.3185,-5.3185,-5.3185,-5.3112,-5.2986,-5.2986,-5.3004,-5.2931,-5.2876,-5.2729,-5.2527,-5.2234,-5.1756,-5.1004,-5.0251,-4.9739,-4.9242,-4.8618,-4.8324,-4.8324,-4.8324,-4.8324,-4.8324,-4.8324,-4.8324,-4.8324,-4.8324,-4.8324,-4.8324,-5.2498,-5.2498,-5.2498,-5.2498,-5.2434,-5.2498,-5.2498,-5.2498,-5.2498,-5.2457,-5.241,-5.241,-5.241,-5.241,-5.2364,-5.2072,-5.1719,-5.1644,-5.1096,-5.0282,-5.0056,-4.9585,-4.9229,-4.9018,-4.9018,-4.9018,-4.9018,-4.9018,-4.9018,-4.9018,-4.9018,-4.9018,-4.9018,-4.9018,-4.9018,-4.9018,-4.9018,-4.9018,-4.9018,-4.9018,-4.9018,-4.9018,-4.9018,-4.9018,-4.9018,-4.9018,-4.9018,-4.9018,-4.9018,-4.9018,-4.9018,-4.9018,-4.9018,-4.9018,-4.9018,-4.9018,-4.9018,-4.9018,-4.9018,-4.9018,-4.9018,-4.9018,-4.9001,-4.926,-4.9686,-5.0028,-5.0404,-5.1329,-5.1743,-5.2048,-5.2275,-5.2498,-5.2498,-5.2498,-5.2498,-5.2498,-5.2498,-5.2498,-5.2498,-5.2498,-5.2521,-5.2544,-5.2672,-5.2828,-5.2999,-5.3124,-5.3185,-5.3185,-5.3185,-5.3093,-5.2968,-5.2674,-5.2637,-5.2362,-5.2215,-5.2087,-5.1885,-5.1612,-5.1153,-5.0437,-4.9756,-4.9169,-4.8728,-4.8361,-4.8324,-4.8324,-4.8324,-4.8324,-4.8324,-4.8324,-4.8324,-4.8324,-4.8324,-4.8361,-4.8398,-5.2498,-5.2498,-5.2498,-5.2275,-5.2,-5.234,-5.2498,-5.2498,-5.2475,-5.2275,-5.1951,-5.1909,-5.1909,-5.1909,-5.1909,-5.1651,-5.1157,-5.15,-5.0991,-5.0005,-4.9861,-4.9526,-4.9168,-4.9018,-4.9018,-4.9018,-4.9018,-4.9018,-4.9018,-4.9018,-4.9018,-4.9018,-4.9018,-4.9018,-4.9018,-4.9018,-4.9018,-4.9018,-4.9018,-4.9018,-4.9018,-4.9018,-4.9018,-4.9018,-4.9018,-4.9018,-4.9018,-4.9018,-4.9018,-4.9018,-4.9018,-4.9018,-4.9018,-4.9018,-4.9018,-4.9018,-4.9018,-4.9018,-4.9018,-4.9018,-4.9018,-4.9018,-4.9032,-4.9124,-4.9303,-5.0096,-5.0579,-5.1087,-5.1719,-5.2072,-5.2457,-5.2498,-5.2498,-5.2498,-5.2498,-5.2498,-5.2498,-5.2498,-5.2498,-5.2498,-5.2498,-5.2595,-5.2717,-5.2806,-5.2955,-5.3124,-5.3185,-5.3185,-5.3185,-5.3093,-5.2968,-5.2417,-5.2123,-5.1793,-5.1555,-5.1499,-5.1426,-5.1206,-5.0655,-4.9941,-4.9279,-4.8728,-4.8526,-4.8324,-4.8324,-4.8324,-4.8324,-4.8324,-4.8324,-4.8324,-4.8324,-4.8324,-4.8324,-4.8434,-4.86,-5.2498,-5.2498,-5.2498,-5.2162,-5.1719,-5.2024,-5.2096,-5.1909,-5.1866,-5.1651,-5.1381,-5.15,-5.1475,-5.1457,-5.1651,-5.12,-5.0607,-5.0982,-5.0669,-4.9732,-4.9585,-4.9303,-4.9077,-4.9018,-4.9018,-4.9018,-4.9018,-4.9018,-4.9018,-4.9018,-4.9018,-4.9018,-4.9018,-4.9018,-4.9018,-4.9018,-4.9018,-4.9018,-4.9018,-4.9018,-4.9018,-4.9018,-4.9018,-4.9018,-4.9018,-4.9018,-4.9018,-4.9018,-4.9018,-4.9018,-4.9018,-4.9018,-4.9018,-4.9018,-4.9018,-4.9018,-4.9018,-4.9018,-4.9018,-4.9018,-4.9018,-4.9018,-4.9001,-4.9018,-4.9138,-4.9826,-5.0359,-5.0929,-5.1701,-5.2162,-5.2457,-5.2457,-5.2498,-5.2498,-5.2498,-5.2498,-5.2498,-5.2498,-5.2498,-5.2498,-5.2521,-5.2622,-5.2739,-5.2824,-5.2912,-5.306,-5.3185,-5.3185,-5.3185,-5.3112,-5.2839,-5.216,-5.1811,-5.1591,-5.1298,-5.1041,-5.093,-5.0802,-5.0288,-4.9721,-4.9022,-4.8508,-4.8398,-4.8324,-4.8324,-4.8324,-4.8324,-4.8324,-4.8361,-4.8361,-4.8324,-4.8324,-4.8324,-4.8508,-4.8728,-5.2498,-5.2498,-5.2498,-5.2096,-5.1619,-5.1449,-5.1157,-5.0707,-5.0751,-5.0751,-5.0707,-5.1226,-5.1122,-5.0955,-5.1793,-5.1296,-5.0244,-5.047,-4.9971,-4.9394,-4.9199,-4.9032,-4.9032,-4.9018,-4.9018,-4.9018,-4.9018,-4.9018,-4.9018,-4.9018,-4.9018,-4.9018,-4.9018,-4.9018,-4.9018,-4.9018,-4.9018,-4.9018,-4.9018,-4.9018,-4.9018,-4.9018,-4.9018,-4.9018,-4.9018,-4.9018,-4.9018,-4.9018,-4.9018,-4.9018,-4.9018,-4.9018,-4.9018,-4.9018,-4.9018,-4.9018,-4.9018,-4.9032,-4.9138,-4.9168,-4.9273,-4.9346,-4.9256,-4.9138,-4.9333,-4.9913,-5.0552,-5.0999,-5.1626,-5.2048,-5.2387,-5.2434,-5.2498,-5.2498,-5.2498,-5.2498,-5.2498,-5.2498,-5.2498,-5.2498,-5.2498,-5.2572,-5.2694,-5.2806,-5.289,-5.3039,-5.3164,-5.3185,-5.3185,-5.3185,-5.2747,-5.1738,-5.1463,-5.1463,-5.1151,-5.0747,-5.0453,-5.0325,-5.027,-4.9756,-4.904,-4.8508,-4.8526,-4.8489,-4.8361,-4.8324,-4.8324,-4.8379,-4.8471,-4.8471,-4.86,-4.8765,-4.8912,-4.8728,-4.893,-5.2498,-5.2457,-5.2048,-5.1508,-5.0876,-5.0113,-4.9873,-5.0142,-5.0507,-5.0525,-5.0142,-5.031,-5.0366,-5.0198,-5.0477,-5.0056,-4.9815,-4.9686,-4.9585,-4.926,-4.9018,-4.9018,-4.9018,-4.9018,-4.9018,-4.9018,-4.9018,-4.9018,-4.9018,-4.9018,-4.9018,-4.9018,-4.9018,-4.9018,-4.9018,-4.9018,-4.9018,-4.9018,-4.9018,-4.9018,-4.9018,-4.9018,-4.9018,-4.9018,-4.9018,-4.9018,-4.9018,-4.9018,-4.9018,-4.9018,-4.9018,-4.9018,-4.9018,-4.9018,-4.9018,-4.9018,-4.9063,-4.9138,-4.9526,-4.9627,-4.9727,-5.0011,-5.0135,-4.9942,-5.0056,-5.0422,-5.1052,-5.1329,-5.1743,-5.2251,-5.2434,-5.2457,-5.2498,-5.2498,-5.2498,-5.2498,-5.2498,-5.2498,-5.2498,-5.2498,-5.2498,-5.2572,-5.2694,-5.2783,-5.2868,-5.302,-5.3124,-5.3164,-5.3185,-5.3185,-5.2763,-5.1756,-5.1206,-5.1224,-5.0857,-5.0435,-5.0105,-4.9848,-5.0086,-5.0013,-4.9205,-4.8802,-4.8765,-4.8746,-4.8765,-4.8563,-4.8324,-4.8563,-4.9114,-4.9058,-4.9169,-4.9352,-4.9462,-4.937,-4.9517,-5.2498,-5.241,-5.186,-5.1131,-5.0321,-4.9406,-4.9229,-4.9568,-4.9896,-4.9797,-4.9568,-4.9832,-4.9774,-4.9656,-4.9999,-4.9884,-4.9138,-4.9627,-4.9585,-4.9155,-4.9018,-4.9018,-4.9018,-4.9018,-4.9018,-4.9018,-4.9018,-4.9018,-4.9018,-4.9018,-4.9018,-4.9018,-4.9018,-4.9018,-4.9018,-4.9018,-4.9018,-4.9018,-4.9018,-4.9018,-4.9018,-4.9018,-4.9018,-4.9018,-4.9018,-4.9018,-4.9018,-4.9018,-4.9018,-4.9018,-4.9018,-4.9018,-4.9094,-4.9199,-4.9568,-4.9639,-4.9768,-4.9925,-5.0153,-5.0209,-5.0397,-5.067,-5.0911,-5.0876,-5.0867,-5.1122,-5.1398,-5.1619,-5.2114,-5.2498,-5.2498,-5.2498,-5.2498,-5.2498,-5.2498,-5.2498,-5.2498,-5.2498,-5.2498,-5.2498,-5.2526,-5.2577,-5.2667,-5.2739,-5.289,-5.306,-5.3164,-5.3185,-5.3185,-5.3185,-5.2766,-5.1977,-5.1371,-5.0986,-5.0655,-5.0582,-5.0508,-5.06,-5.1022,-5.071,-4.9664,-4.9187,-4.9224,-4.9242,-4.926,-4.9187,-4.9224,-4.9591,-5.0013,-4.9903,-4.9921,-5.0251,-5.038,-5.0288,-5.0582,-5.2475,-5.2345,-5.1719,-5.0777,-4.9832,-4.9229,-4.9032,-4.9018,-4.9107,-4.9032,-4.9155,-4.9585,-4.9496,-4.9333,-4.9797,-4.971,-4.9303,-4.9483,-4.9466,-4.9001,-4.9018,-4.9018,-4.9018,-4.9018,-4.9018,-4.9018,-4.9018,-4.9018,-4.9018,-4.9018,-4.9018,-4.9018,-4.9018,-4.9018,-4.9018,-4.9018,-4.9018,-4.9018,-4.9018,-4.9018,-4.9018,-4.9018,-4.9018,-4.9018,-4.9018,-4.9018,-4.9018,-4.9018,-4.9018,-4.9018,-4.9094,-4.9124,-4.9436,-4.9669,-5.0181,-5.0387,-5.0425,-5.0589,-5.0715,-5.0796,-5.0858,-5.1113,-5.1337,-5.1533,-5.1669,-5.1694,-5.1835,-5.1927,-5.234,-5.2475,-5.2498,-5.2498,-5.2498,-5.2498,-5.2498,-5.2498,-5.2498,-5.2498,-5.2498,-5.2503,-5.2531,-5.2599,-5.2672,-5.2743,-5.2912,-5.3121,-5.3203,-5.3185,-5.3185,-5.3185,-5.2876,-5.2252,-5.1738,-5.1334,-5.1389,-5.1316,-5.1261,-5.1444,-5.1793,-5.1408,-5.038,-4.9958,-4.9721,-4.9811,-4.9939,-5.0306,-5.0508,-5.0729,-5.0747,-5.0618,-5.0747,-5.1206,-5.1298,-5.1132,-5.1499,-5.2228,-5.1701,-5.0723,-4.989,-4.9243,-4.9063,-4.9018,-4.9018,-4.9018,-4.9018,-4.9032,-4.9138,-4.9168,-4.9168,-4.9346,-4.9273,-4.9199,-4.9199,-4.9107,-4.9032,-4.9018,-4.9018,-4.9018,-4.9018,-4.9018,-4.9018,-4.9018,-4.9018,-4.9018,-4.9018,-4.9018,-4.9018,-4.9018,-4.9018,-4.9018,-4.9018,-4.9018,-4.9018,-4.9018,-4.9018,-4.9018,-4.9018,-4.9018,-4.9018,-4.9018,-4.9018,-4.9018,-4.9018,-4.9018,-4.9032,-4.9513,-4.9873,-5.0258,-5.0442,-5.0562,-5.068,-5.0841,-5.1043,-5.1286,-5.1432,-5.1533,-5.1842,-5.212,-5.2209,-5.2275,-5.2275,-5.2293,-5.234,-5.2364,-5.2434,-5.2498,-5.2498,-5.2498,-5.2498,-5.2498,-5.2498,-5.2498,-5.2498,-5.2498,-5.2526,-5.2554,-5.2604,-5.2676,-5.2787,-5.2955,-5.306,-5.3164,-5.3185,-5.3185,-5.3185,-5.3185,-5.2692,-5.2179,-5.1885,-5.1977,-5.1885,-5.172,-5.1885,-5.2197,-5.1701,-5.1041,-5.093,-5.0784,-5.06,-5.0674,-5.1096,-5.1389,-5.1481,-5.1463,-5.1389,-5.1573,-5.2032,-5.1977,-5.1793,-5.2289,-5.2138,-5.1475,-5.0366,-4.9555,-4.9063,-4.9018,-4.9018,-4.9018,-4.9018,-4.9018,-4.9018,-4.9018,-4.9018,-4.9018,-4.9018,-4.9018,-4.9018,-4.9001,-4.9032,-4.9032,-4.9018,-4.9018,-4.9018,-4.9018,-4.9018,-4.9018,-4.9018,-4.9018,-4.9063,-4.9018,-4.9018,-4.9032,-4.9032,-4.9032,-4.9032,-4.9032,-4.9032,-4.9018,-4.9063,-4.9063,-4.9063,-4.9032,-4.9001,-4.9018,-4.9018,-4.9018,-4.9018,-4.9018,-4.9018,-4.9168,-4.9555,-5.0366,-5.0796,-5.1078,-5.1278,-5.1457,-5.1626,-5.1651,-5.1884,-5.2024,-5.2114,-5.2387,-5.2498,-5.241,-5.241,-5.241,-5.241,-5.2434,-5.2434,-5.2498,-5.2498,-5.2498,-5.2498,-5.2498,-5.2498,-5.2498,-5.2498,-5.2498,-5.2498,-5.2503,-5.2554,-5.2631,-5.2721,-5.2853,-5.2999,-5.3103,-5.3185,-5.3185,-5.3185,-5.3185,-5.3185,-5.3057,-5.2527,-5.2454,-5.2619,-5.238,-5.205,-5.227,-5.2527,-5.2197,-5.1756,-5.1885,-5.1867,-5.1573,-5.1573,-5.1995,-5.2234,-5.2234,-5.2344,-5.2344,-5.2525,-5.2858,-5.2656,-5.2435,-5.2747,-5.1975,-5.1252,-5.0198,-4.9466,-4.9063,-4.9018,-4.9018,-4.9018,-4.9018,-4.9018,-4.9018,-4.9018,-4.9018,-4.9018,-4.9018,-4.9018,-4.9018,-4.9018,-4.9018,-4.9018,-4.9018,-4.9018,-4.9018,-4.9018,-4.9018,-4.9018,-4.9018,-4.9124,-4.9229,-4.9124,-4.9063,-4.9124,-4.9107,-4.9077,-4.9138,-4.9168,-4.9243,-4.9406,-4.9449,-4.9346,-4.9212,-4.9046,-4.9032,-4.9018,-4.9018,-4.9018,-4.9018,-4.9018,-4.9018,-4.9483,-4.9902,-5.0786,-5.1355,-5.1719,-5.1933,-5.212,-5.2209,-5.2275,-5.241,-5.2387,-5.2434,-5.2498,-5.2498,-5.2475,-5.2457,-5.2434,-5.2434,-5.2475,-5.2475,-5.2498,-5.2498,-5.2498,-5.2498,-5.2498,-5.2498,-5.2498,-5.2498,-5.2498,-5.2498,-5.2498,-5.2577,-5.2654,-5.2765,-5.2915,-5.302,-5.3124,-5.3185,-5.3185,-5.3185,-5.3185,-5.3185,-5.3093,-5.2803,-5.2858,-5.2949,-5.2858,-5.2435,-5.2399,-5.2582,-5.2509,-5.2472,-5.2509,-5.2509,-5.2399,-5.2491,-5.2674,-5.2839,-5.2855,-5.3002,-5.2983,-5.302,-5.3057,-5.302,-5.2873,-5.3002,-5.1148,-5.0159,-4.9436,-4.9124,-4.9001,-4.9018,-4.9018,-4.9018,-4.9018,-4.9018,-4.9018,-4.9018,-4.9018,-4.9018,-4.9018,-4.9018,-4.9018,-4.9018,-4.9018,-4.9018,-4.9018,-4.9018,-4.9063,-4.9107,-4.9032,-4.9094,-4.9199,-4.935,-4.9598,-4.9364,-4.9496,-5.0209,-4.9303,-4.9479,-5.022,-5.0096,-4.9873,-5.0011,-5.0192,-5.0163,-4.9953,-4.9652,-4.9094,-4.9018,-4.9018,-4.9018,-4.9018,-4.9018,-4.932,-4.9861,-5.0614,-5.1449,-5.1933,-5.2209,-5.2345,-5.2369,-5.2498,-5.2498,-5.2498,-5.2498,-5.2498,-5.248,-5.2457,-5.2387,-5.2364,-5.2298,-5.234,-5.2387,-5.2387,-5.2434,-5.2457,-5.2498,-5.2498,-5.2498,-5.2498,-5.2498,-5.2498,-5.2498,-5.2498,-5.2526,-5.2559,-5.2654,-5.2783,-5.2893,-5.3042,-5.3124,-5.3185,-5.3185,-5.3185,-5.3185,-5.3185,-5.3075,-5.2968,-5.2564,-5.2362,-5.3004,-5.2858,-5.2766,-5.2711,-5.2784,-5.2894,-5.3038,-5.3002,-5.2821,-5.2876,-5.3002,-5.3167,-5.3185,-5.3167,-5.3112,-5.313,-5.3167,-5.3185,-5.3185,-5.3185]},{"header":{"parameterUnit":"m.s-1","parameterCategory":1,"la1":31.0,"la2":29.5877,"lo1":-88.7671,"lo2":-86.6584,"dy":0.0162,"dx":0.0185,"nx":115,"ny":88,"refTime":"2024-07-18T06:00:00:Z","depth":0,"parameterNumber":3,"parameterNumberName":"V-component_of_WINDS"},"data":[0.0,0.0,0.0,0.0,0.0,0.0,0.0,0.0,0.0,0.0,0.0,0.0,0.0,0.0,0.0,0.0,0.0,0.0,0.0,0.0,0.0,0.0,0.0,0.0,0.0,0.0,0.0,0.0,0.0,0.0,0.0,0.0,0.0,0.0,0.0,0.0,0.0,0.0,0.0,0.0,0.0,0.0,0.0,0.0,0.0,0.0,0.0,0.0,0.0,0.0,0.0,0.0,0.0,0.0,0.0,0.0,0.0,0.0,0.0,0.0,0.0,0.0,0.0,0.0,0.0,0.0,0.0,0.0,0.0,0.0,0.0,0.0,0.0,0.0,0.0,0.0,0.0,0.0,0.0,0.0,0.0,0.0,0.0,0.0,0.0,0.0,0.0,0.0,0.0,0.0,0.0,0.0,0.0,0.0,0.0,0.0,0.0,0.0,0.0,0.0,0.0,0.0,0.0,0.0,0.0,0.0,0.0,0.0,0.0,0.0,0.0,0.0,0.0,0.0,0.0,0.0,0.0,0.0,0.0,0.0,0.0,0.0,0.0,0.0,0.0,0.0,0.0,0.0,0.0,0.0,0.0,0.0,0.0,0.0,0.0,0.0,0.0,0.0,0.0,0.0,0.0,0.0,0.0,0.0,0.0,0.0,0.0,0.0,0.0,0.0,0.0,0.0,0.0,0.0,0.0,0.0,0.0,0.0,0.0,0.0,0.0,0.0,0.0,0.0,0.0,0.0,0.0,0.0,0.0,0.0,0.0,0.0,0.0,0.0,0.0,0.0,0.0,0.0,0.0,0.0,0.0,0.0,0.0,0.0,0.0,0.0,0.0,0.0,0.0,0.0,0.0,0.0,0.0,0.0,0.0,0.0,0.0,0.0,0.0,0.0,0.0,0.0,0.0,0.0,0.0,0.0,0.0,0.0,0.0,0.0,0.0,0.0,0.0,0.0,0.0,0.0,0.0,0.0,0.0,0.0,0.0,0.0,0.0,0.0,0.0,0.0,0.0,0.0,0.0,0.0,0.0,0.0,0.0,0.0,0.0,0.0,0.0,0.0,0.0,0.0,0.0,0.0,0.0,0.0,0.0,0.0,0.0,0.0,0.0,0.0,0.0,0.0,0.0,0.0,0.0,0.0,0.0,0.0,0.0,0.0,0.0,0.0,0.0,0.0,0.0,0.0,0.0,0.0,0.0,0.0,0.0,0.0,0.0,0.0,0.0,0.0,0.0,0.0,0.0,0.0,0.0,0.0,0.0,0.0,0.0,0.0,0.0,0.0,0.0,0.0,0.0,0.0,0.0,0.0,0.0,0.0,0.0,0.0,0.0,0.0,0.0,0.0,0.0,0.0,0.0,0.0,0.0,0.0,0.0,0.0,0.0,0.0,0.0,0.0,0.0,0.0,0.0,0.0,0.0,0.0,0.0,0.0,0.0,0.0,0.0,0.0,0.0,0.0,0.0,0.0,0.0,0.0,0.0,0.0,0.0,0.0,0.0,0.0,0.0,0.0,0.0,0.0,0.0,0.0,0.0,0.0,0.0,0.0,0.0,0.0,0.0,0.0,0.0,0.0,0.0,0.0,0.0,0.0,0.0,0.0,0.0,0.0,0.0,0.0,0.0,0.0,0.0,0.0,0.0,0.0,0.0,0.0,0.0,0.0,0.0,0.0,0.0,0.0,0.0,0.0,0.0,0.0,0.0,0.0,0.0,0.0,0.0,0.0,0.0,0.0,0.0,0.0,0.0,0.0,0.0,0.0,0.0,0.0,0.0,0.0,0.0,0.0,0.0,0.0,0.0,0.0,0.0,0.0,0.0,0.0,0.0,0.0,0.0,0.0,0.0,0.0,0.0,0.0,0.0,0.0,0.0,0.0,0.0,0.0,0.0,0.0,0.0,0.0,0.0,0.0,0.0,0.0,0.0,0.0,0.0,0.0,0.0,0.0,0.0,0.0,0.0,0.0,0.0,0.0,0.0,0.0,0.0,0.0,0.0,0.0,0.0,0.0,0.0,0.0,0.0,0.0,0.0,0.0,0.0,0.0,0.0,0.0,0.0,0.0,0.0,0.0,0.0,0.0,0.0,0.0,0.0,0.0,0.0,0.0,0.0,0.0,0.0,0.0,0.0,0.0,0.0,0.0,0.0,0.0,0.0,0.0,0.0,0.0,0.0,0.0,0.0,0.0,0.0,0.0,0.0,0.0,0.0,0.0,0.0,0.0,0.0,0.0,0.0,0.0,0.0,0.0,0.0,0.0,0.0,0.0,0.0,0.0,0.0,0.0,0.0,0.0,0.0,0.0,0.0,0.0,0.0,0.0,0.0,0.0,0.0,0.0,0.0,0.0,0.0,0.0,0.0,0.0,0.0,0.0,0.0,0.0,0.0,0.0,0.0,0.0,0.0,0.0,0.0,0.0,0.0,0.0,0.0,0.0,0.0,0.0,0.0,0.0,0.0,0.0,0.0,0.0,0.0,0.0,0.0,0.0,0.0,0.0,0.0,0.0,0.0,0.0,0.0,0.0,0.0,0.0,0.0,0.0,0.0,0.0,0.0,0.0,0.0,0.0,0.0,0.0,0.0,0.0,0.0,0.0,0.0,0.0,0.0,0.0,0.0,0.0,0.0,0.0,0.0,0.0,0.0,0.0,0.0,0.0,0.0,0.0,0.0,0.0,0.0,0.0,0.0,0.0,0.0,0.0,0.0,0.0,0.0,0.0,0.0,0.0,0.0,0.0,0.0,0.0,0.0,0.0,0.0,0.0,0.0,0.0,0.0,0.0,0.0,0.0,0.0,0.0,0.0,0.0,0.0,0.0,0.0,0.0,0.0,0.0,0.0,0.0,0.0,0.0,0.0,0.0,0.0,0.0,0.0,0.0,0.0,0.0,0.0,0.0,0.0,0.0,0.0,0.0,0.0,0.0,0.0,0.0,0.0,0.0,0.0,0.0,0.0,0.0,0.0,0.0,0.0,0.0,0.0,0.0,0.0,0.0,0.0,0.0,0.0,0.0,0.0,0.0,0.0,0.0,0.0,0.0,0.0,0.0,0.0,0.0,0.0,0.0,0.0,0.0,0.0,0.0,0.0,0.0,0.0,0.0,0.0,0.0,0.0,0.0,0.0,0.0,0.0,0.0,0.0,0.0,0.0,0.0,0.0,0.0,0.0,0.0,0.0,0.0,0.0,0.0,0.0,0.0,0.0,0.0,0.0,0.0,0.0,0.0,0.0,0.0,0.0,0.0,0.0,0.0,0.0,0.0,0.0,0.0,0.0,0.0,0.0,0.0,0.0,0.0,0.0,0.0,0.0,0.0,0.0,0.0,0.0,0.0,0.0,0.0,0.0,0.0,0.0,0.0,0.0,0.0,0.0,0.0,0.0,0.0,0.0,0.0,0.0,0.0,0.0,0.0,0.0,0.0,0.0,0.0,0.0,0.0,0.0,0.0,0.0,0.0,0.0,0.0,0.0,0.0,0.0,0.0,0.0,0.0,0.0,0.0,0.0,0.0,0.0,0.0,0.0,0.0,0.0,0.0,0.0,0.0,0.0,0.0,0.0,0.0,0.0,0.0,0.0,0.0,0.0,0.0,0.0,0.0,0.0,0.0,0.0,0.0,0.0,0.0,0.0,0.0,0.0,0.0,0.0,0.0,0.0,0.0,0.0,0.0,0.0,0.0,0.0,0.0,0.0,0.0,0.0,0.0,0.0,0.0,0.0,0.0,0.0,0.0,0.0,0.0,0.0,0.0,0.0,0.0,0.0,0.0,0.0,0.0,0.0,0.0,0.0,0.0,0.0,0.0,0.0,0.0,0.0,0.0,0.0,0.0,0.0,0.0,0.0,0.0,0.0,0.0,0.0,0.0,0.0,0.0,0.0,0.0,0.0,0.0,0.0,0.0,0.0,0.0,0.0,0.0,0.0,0.0,0.0,0.0,0.0,0.0,0.0,0.0,0.0,0.0,0.0,0.0,0.0,0.0,0.0,0.0,0.0,0.0,0.0,0.0,0.0,0.0,0.0,0.0,0.0,0.0,0.0,0.0,0.0,0.0,0.0,0.0,0.0,0.0,0.0,0.0,0.0,0.0,0.0,0.0,0.0,0.0,0.0,0.0,0.0,0.0,0.0,0.0,0.0,0.0,0.0,0.0,0.0,0.0,0.0,0.0,0.0,0.0,0.0,0.0,0.0,0.0,0.0,0.0,0.0,0.0,0.0,0.0,0.0,0.0,0.0,0.0,0.0,0.0,0.0,0.0,0.0,0.0,0.0,0.0,0.0,0.0,0.0,0.0,-0.4623,0.0,0.0,0.0,0.0,0.0,0.0,0.0,0.0,0.0,0.0,0.0,0.0,0.0,0.0,0.0,0.0,0.0,0.0,0.0,0.0,0.0,0.0,0.0,0.0,0.0,0.0,0.0,0.0,0.0,0.0,0.0,0.0,0.0,0.0,0.0,0.0,0.0,0.0,0.0,0.0,0.0,0.0,0.0,0.0,0.0,0.0,0.0,0.0,0.0,0.0,0.0,0.0,0.0,0.0,0.0,0.0,0.0,0.0,0.0,0.0,0.0,0.0,0.0,0.0,0.0,0.0,0.0,0.0,0.0,0.0,0.0,0.0,0.0,0.0,0.0,0.0,0.0,0.0,0.0,0.0,0.0,0.0,0.0,0.0,0.0,0.0,0.0,0.0,0.0,0.0,0.0,0.0,0.0,0.0,0.0,0.0,0.0,0.0,0.0,0.0,0.0,0.0,0.0,0.0,0.0,0.0,0.0,0.0,0.0,0.0,-0.4253,-0.4184,-0.3218,-0.3199,-0.425,0.0,0.0,0.0,0.0,0.0,0.0,0.0,0.0,0.0,0.0,0.0,0.0,0.0,0.0,0.0,0.0,0.0,0.0,0.0,0.0,0.0,0.0,0.0,0.0,0.0,0.0,0.0,0.0,0.0,0.0,0.0,0.0,0.0,0.0,0.0,0.0,0.0,0.0,0.0,0.0,0.0,0.0,0.0,0.0,0.0,0.0,0.0,0.0,0.0,0.0,0.0,0.0,0.0,0.0,0.0,0.0,0.0,0.0,0.0,0.0,0.0,0.0,0.0,0.0,0.0,0.0,0.0,0.0,0.0,0.0,0.0,0.0,0.0,0.0,0.0,0.0,0.0,0.0,0.0,0.0,0.0,0.0,0.0,0.0,0.0,0.0,0.0,0.0,0.0,0.0,0.0,0.0,0.0,0.0,0.0,0.0,0.0,0.0,0.0,0.0,0.0,0.0,0.0,0.0,0.0,0.0,0.0,0.0,0.0,0.0,0.0,0.0,-0.2909,-0.2998,-0.3547,0.0,0.0,0.0,0.0,0.0,0.0,0.0,0.0,0.0,0.0,0.0,0.0,0.0,0.0,0.0,0.0,0.0,0.0,0.0,0.0,0.0,0.0,0.0,0.0,0.0,0.0,0.0,0.0,0.0,0.0,0.0,0.0,0.0,0.0,0.0,0.0,0.0,0.0,0.0,0.0,0.0,0.0,0.0,0.0,0.0,0.0,0.0,0.0,0.0,0.0,0.0,0.0,0.0,0.0,0.0,0.0,0.0,0.0,0.0,0.0,0.0,0.0,0.0,0.0,0.0,0.0,0.0,0.0,0.0,0.0,0.0,0.0,0.0,0.0,0.0,0.0,0.0,0.0,0.0,0.0,0.0,0.0,0.0,0.0,0.0,0.0,0.0,0.0,0.0,0.0,0.0,0.0,0.0,0.0,0.0,0.0,0.0,0.0,0.0,0.0,0.0,0.0,0.0,0.0,0.0,0.0,0.0,0.0,0.0,0.0,-0.329,-0.3269,-0.202,0.0,-0.2859,0.0,0.0,0.0,0.0,0.0,0.0,0.0,0.0,0.0,0.0,0.0,0.0,0.0,0.0,0.0,0.0,0.0,0.0,0.0,0.0,0.0,0.0,0.0,0.0,0.0,0.0,0.0,0.0,0.0,0.0,0.0,0.0,0.0,0.0,0.0,0.0,0.0,0.0,0.0,0.0,0.0,0.0,0.0,0.0,0.0,0.0,0.0,0.0,0.0,0.0,0.0,0.0,0.0,0.0,0.0,0.0,0.0,0.0,0.0,0.0,0.0,0.0,0.0,0.0,0.0,0.0,0.0,0.0,0.0,0.0,0.0,0.0,0.0,0.0,0.0,0.0,0.0,0.0,0.0,0.0,0.0,0.0,0.0,0.0,0.0,0.0,0.0,0.0,0.0,0.0,0.0,0.0,0.0,0.0,0.0,0.0,0.0,0.0,0.0,0.0,0.0,0.0,0.0,0.0,0.0,0.0,0.0,0.0,0.0,0.0,-0.3586,-0.2654,-0.271,-0.2965,0.0,0.0,0.0,0.0,0.0,0.0,0.0,0.0,0.0,0.0,0.0,0.0,0.0,0.0,0.0,0.0,0.0,0.0,0.0,0.0,0.0,0.0,0.0,0.0,0.0,0.0,0.0,0.0,0.0,0.0,0.0,0.0,0.0,0.0,0.0,0.0,0.0,0.0,0.0,0.0,0.0,0.0,0.0,0.0,0.0,0.0,0.0,0.0,0.0,0.0,0.0,0.0,0.0,0.0,0.0,0.0,0.0,0.0,0.0,0.0,0.0,0.0,0.0,0.0,0.0,0.0,0.0,0.0,0.0,0.0,0.0,0.0,0.0,0.0,0.0,0.0,0.0,0.0,0.0,0.0,0.0,0.0,0.0,0.0,0.0,0.0,0.0,0.0,0.0,0.0,0.0,0.0,0.0,0.0,0.0,0.0,0.0,0.0,0.0,0.0,0.0,0.0,0.0,0.0,0.0,0.0,0.0,0.0,0.0,0.0,-0.402,-0.3607,-0.2362,-0.3332,-0.3919,-0.3894,0.0,0.0,0.0,0.0,0.0,0.0,0.0,0.0,0.0,0.0,0.0,0.0,0.0,0.0,0.0,0.0,0.0,0.0,0.0,0.0,0.0,0.0,0.0,0.0,0.0,0.0,0.0,0.0,0.0,0.0,0.0,0.0,0.0,0.0,0.0,0.0,0.0,0.0,0.0,0.0,0.0,0.0,0.0,0.0,0.0,0.0,0.0,0.0,0.0,0.0,0.0,0.0,0.0,0.0,0.0,0.0,0.0,0.0,0.0,0.0,0.0,0.0,0.0,0.0,0.0,0.0,0.0,0.0,0.0,0.0,0.0,0.0,0.0,0.0,0.0,0.0,0.0,0.0,0.0,0.0,0.0,0.0,0.0,0.0,0.0,0.0,0.0,0.0,0.0,0.0,0.0,0.0,0.0,0.0,0.0,0.0,0.0,0.0,0.0,0.0,0.0,0.0,0.0,0.0,0.0,0.0,0.0,0.0,-0.3667,-0.3567,-0.3113,-0.2249,-0.3363,-0.3973,0.0,0.0,0.0,0.0,0.0,0.0,0.0,0.0,0.0,0.0,0.0,0.0,0.0,0.0,0.0,0.0,0.0,0.0,0.0,0.0,0.0,0.0,0.0,0.0,0.0,0.0,0.0,0.0,0.0,0.0,0.0,0.0,0.0,0.0,0.0,0.0,0.0,0.0,0.0,0.0,0.0,0.0,0.0,0.0,0.0,0.0,0.0,0.0,0.0,0.0,0.0,0.0,0.0,0.0,0.0,0.0,0.0,0.0,0.0,0.0,0.0,0.0,0.0,0.0,0.0,0.0,0.0,0.0,0.0,0.0,0.0,0.0,0.0,0.0,0.0,0.0,0.0,0.0,0.0,0.0,0.0,0.0,0.0,0.0,0.0,0.0,0.0,0.0,0.0,0.0,0.0,0.0,0.0,0.0,0.0,0.0,0.0,0.0,0.0,0.0,0.0,0.0,0.0,0.0,0.0,0.0,0.0,0.0,0.0,-0.4101,-0.2926,-0.218,-0.1933,-0.2762,-0.3245,0.0,0.0,0.0,0.0,0.0,0.0,0.0,0.0,0.0,0.0,0.0,0.0,0.0,0.0,0.0,0.0,0.0,0.0,0.0,0.0,0.0,0.0,0.0,0.0,0.0,0.0,0.0,0.0,0.0,0.0,0.0,0.0,0.0,0.0,0.0,0.0,0.0,0.0,0.0,0.0,0.0,0.0,0.0,0.0,0.0,0.0,0.0,0.0,0.0,0.0,0.0,0.0,0.0,0.0,0.0,0.0,0.0,0.0,0.0,0.0,0.0,0.0,0.0,0.0,0.0,0.0,0.0,0.0,0.0,0.0,0.0,0.0,0.0,0.0,0.0,0.0,0.0,0.0,0.0,0.0,0.0,0.0,0.0,0.0,0.0,0.0,0.0,0.0,0.0,0.0,0.0,0.0,0.0,0.0,0.0,0.0,0.0,0.0,0.0,0.0,0.0,0.0,0.0,0.0,0.0,0.0,0.0,0.0,0.0,-0.392,0.0,-0.1749,-0.2196,-0.2825,-0.3257,0.0,0.0,0.0,0.0,0.0,0.0,0.0,0.0,0.0,0.0,0.0,0.0,0.0,0.0,0.0,0.0,0.0,0.0,0.0,0.0,0.0,0.0,0.0,0.0,0.0,0.0,0.0,0.0,0.0,0.0,0.0,0.0,0.0,0.0,0.0,0.0,0.0,0.0,0.0,0.0,0.0,0.0,0.0,0.0,0.0,0.0,0.0,0.0,0.0,0.0,0.0,0.0,0.0,0.0,0.0,0.0,0.0,0.0,0.0,0.0,0.0,0.0,0.0,0.0,0.0,0.0,0.0,0.0,0.0,0.0,0.0,0.0,0.0,0.0,0.0,0.0,0.0,0.0,0.0,0.0,0.0,0.0,0.0,0.0,0.0,0.0,0.0,0.0,0.0,0.0,0.0,0.0,0.0,0.0,0.0,0.0,0.0,0.0,0.0,0.0,0.0,0.0,0.0,0.0,0.0,0.0,0.0,0.0,-0.4776,-0.3076,-0.186,-0.1864,-0.3239,-0.3581,-0.4101,0.0,0.0,0.0,0.0,0.0,0.0,0.0,0.0,0.0,0.0,0.0,0.0,0.0,0.0,0.0,0.0,0.0,0.0,0.0,0.0,0.0,0.0,0.0,0.0,0.0,0.0,0.0,0.0,0.0,0.0,0.0,0.0,0.0,0.0,0.0,0.0,0.0,0.0,0.0,0.0,0.0,0.0,0.0,0.0,0.0,0.0,0.0,0.0,0.0,0.0,0.0,0.0,0.0,0.0,0.0,0.0,0.0,0.0,0.0,0.0,0.0,0.0,0.0,0.0,0.0,0.0,0.0,0.0,0.0,0.0,0.0,0.0,0.0,0.0,0.0,0.0,0.0,0.0,0.0,0.0,0.0,0.0,0.0,0.0,0.0,0.0,0.0,0.0,0.0,0.0,0.0,0.0,0.0,0.0,0.0,0.0,0.0,0.0,0.0,0.0,0.0,0.0,0.0,0.0,0.0,0.0,0.0,0.0,0.0,-0.389,-0.2362,-0.2037,-0.3051,-0.3184,-0.3716,0.0,0.0,0.0,0.0,0.0,0.0,0.0,0.0,0.0,0.0,0.0,0.0,0.0,0.0,0.0,0.0,0.0,0.0,0.0,0.0,0.0,0.0,0.0,0.0,0.0,0.0,0.0,0.0,0.0,0.0,0.0,0.0,0.0,0.0,0.0,0.0,0.0,0.0,0.0,0.0,0.0,0.0,0.0,0.0,0.0,0.0,0.0,0.0,0.0,0.0,0.0,0.0,0.0,0.0,0.0,0.0,0.0,0.0,0.0,0.0,0.0,0.0,0.0,0.0,0.0,0.0,0.0,0.0,0.0,0.0,0.0,0.0,0.0,0.0,0.0,0.0,0.0,0.0,0.0,0.0,0.0,0.0,0.0,0.0,0.0,0.0,0.0,0.0,0.0,0.0,0.0,0.0,0.0,0.0,0.0,0.0,0.0,0.0,0.0,0.0,0.0,0.0,0.0,0.0,0.0,0.0,0.0,0.0,0.0,-0.419,-0.266,-0.2354,-0.3488,-0.3375,-0.3797,-0.4903,0.0,0.0,0.0,0.0,0.0,0.0,0.0,0.0,0.0,0.0,0.0,0.0,0.0,0.0,0.0,0.0,0.0,0.0,0.0,0.0,0.0,0.0,0.0,0.0,0.0,0.0,0.0,0.0,0.0,0.0,0.0,0.0,0.0,0.0,0.0,0.0,0.0,0.0,0.0,0.0,0.0,0.0,0.0,0.0,0.0,0.0,0.0,0.0,0.0,0.0,0.0,0.0,0.0,0.0,0.0,0.0,0.0,0.0,0.0,0.0,0.0,0.0,0.0,0.0,0.0,0.0,0.0,0.0,0.0,0.0,0.0,0.0,0.0,0.0,0.0,0.0,0.0,0.0,0.0,0.0,0.0,0.0,0.0,0.0,0.0,0.0,0.0,0.0,0.0,0.0,0.0,0.0,0.0,0.0,0.0,0.0,0.0,0.0,0.0,0.0,0.0,0.0,0.0,0.0,0.0,0.0,0.0,0.0,-0.4268,-0.2923,-0.2969,-0.4408,-0.4042,-0.441,0.0,0.0,0.0,0.0,0.0,0.0,0.0,0.0,0.0,0.0,0.0,0.0,0.0,0.0,0.0,0.0,0.0,0.0,0.0,0.0,0.0,0.0,0.0,0.0,0.0,0.0,0.0,0.0,0.0,0.0,0.0,0.0,0.0,0.0,0.0,0.0,0.0,0.0,0.0,0.0,0.0,0.0,0.0,0.0,0.0,0.0,0.0,0.0,0.0,0.0,0.0,0.0,0.0,0.0,0.0,0.0,0.0,0.0,0.0,0.0,0.0,0.0,0.0,0.0,0.0,0.0,0.0,0.0,0.0,0.0,0.0,0.0,0.0,0.0,0.0,0.0,0.0,0.0,0.0,0.0,0.0,0.0,0.0,0.0,0.0,0.0,0.0,0.0,0.0,0.0,0.0,0.0,0.0,0.0,0.0,0.0,0.0,0.0,0.0,0.0,0.0,0.0,0.0,0.0,0.0,0.0,0.0,0.0,0.0,-0.6292,-0.5508,-0.5158,-0.5231,-0.5162,-0.5672,0.0,0.0,0.0,0.0,0.0,0.0,0.0,0.0,0.0,0.0,0.0,0.0,0.0,0.0,0.0,0.0,0.0,0.0,0.0,0.0,0.0,0.0,0.0,0.0,0.0,0.0,0.0,0.0,0.0,0.0,0.0,0.0,0.0,0.0,0.0,0.0,0.0,0.0,0.0,0.0,0.0,0.0,0.0,0.0,0.0,0.0,0.0,0.0,0.0,0.0,0.0,0.0,0.0,0.0,0.0,0.0,0.0,0.0,0.0,0.0,0.0,0.0,0.0,0.0,0.0,0.0,0.0,0.0,0.0,0.0,0.0,0.0,0.0,0.0,0.0,0.0,0.0,0.0,0.0,0.0,0.0,0.0,0.0,0.0,0.0,0.0,0.0,0.0,0.0,0.0,0.0,0.0,0.0,0.0,0.0,0.0,0.0,0.0,0.0,0.0,0.0,0.0,0.0,0.0,0.0,0.0,0.0,0.0,-0.6895,-0.6834,-0.6997,-0.7019,-0.6721,-0.6227,-0.6351,0.0,0.0,0.0,0.0,0.0,0.0,0.0,0.0,0.0,0.0,0.0,0.0,0.0,0.0,0.0,0.0,0.0,0.0,0.0,0.0,0.0,0.0,0.0,0.0,0.0,0.0,0.0,0.0,0.0,0.0,0.0,0.0,0.0,0.0,0.0,0.0,0.0,0.0,0.0,0.0,0.0,0.0,0.0,0.0,0.0,0.0,0.0,0.0,0.0,0.0,0.0,0.0,0.0,0.0,0.0,0.0,0.0,0.0,0.0,0.0,0.0,0.0,0.0,0.0,0.0,0.0,0.0,0.0,0.0,0.0,0.0,0.0,0.0,0.0,0.0,0.0,0.0,0.0,0.0,0.0,0.0,0.0,0.0,0.0,0.0,0.0,0.0,0.0,0.0,0.0,0.0,0.0,0.0,0.0,0.0,0.0,0.0,0.0,0.0,0.0,0.0,0.0,0.0,0.0,0.0,0.0,0.0,0.0,-0.7047,-0.6697,-0.7883,-0.8531,-0.8456,-0.7208,-0.675,0.0,0.0,0.0,0.0,0.0,0.0,0.0,0.0,0.0,0.0,0.0,0.0,0.0,0.0,0.0,0.0,0.0,0.0,0.0,0.0,0.0,0.0,0.0,0.0,0.0,0.0,0.0,0.0,0.0,0.0,0.0,0.0,0.0,0.0,0.0,0.0,0.0,0.0,0.0,0.0,0.0,0.0,0.0,0.0,0.0,0.0,0.0,0.0,0.0,0.0,0.0,0.0,0.0,0.0,0.0,0.0,0.0,0.0,0.0,0.0,0.0,0.0,0.0,0.0,0.0,0.0,0.0,0.0,0.0,0.0,0.0,0.0,0.0,0.0,0.0,0.0,0.0,0.0,0.0,0.0,0.0,0.0,0.0,0.0,0.0,0.0,0.0,0.0,0.0,0.0,0.0,0.0,0.0,0.0,0.0,0.0,0.0,0.0,0.0,0.0,0.0,0.0,0.0,0.0,0.0,0.0,0.0,0.0,-0.8205,-0.8555,-0.9063,-0.9377,-0.9327,-0.8391,-0.7869,0.0,0.0,0.0,0.0,0.0,0.0,0.0,0.0,0.0,0.0,0.0,0.0,0.0,0.0,0.0,0.0,0.0,0.0,0.0,0.0,0.0,0.0,0.0,0.0,0.0,0.0,0.0,0.0,0.0,0.0,0.0,0.0,0.0,0.0,0.0,0.0,0.0,0.0,0.0,0.0,0.0,0.0,0.0,0.0,0.0,0.0,0.0,0.0,-0.7654,0.0,0.0,0.0,0.0,0.0,0.0,0.0,0.0,0.0,0.0,0.0,0.0,0.0,0.0,0.0,0.0,0.0,0.0,0.0,0.0,0.0,0.0,0.0,0.0,0.0,0.0,0.0,0.0,0.0,0.0,0.0,0.0,0.0,0.0,0.0,0.0,0.0,0.0,0.0,0.0,0.0,0.0,0.0,0.0,0.0,0.0,0.0,0.0,0.0,0.0,0.0,0.0,0.0,0.0,0.0,0.0,0.0,0.0,0.0,-0.8641,-0.9088,-0.9445,-0.9624,-0.9604,-0.9003,-0.8463,0.0,0.0,0.0,0.0,0.0,0.0,0.0,0.0,0.0,0.0,0.0,0.0,0.0,0.0,0.0,0.0,0.0,0.0,0.0,0.0,0.0,0.0,0.0,0.0,0.0,0.0,0.0,0.0,0.0,0.0,0.0,0.0,0.0,0.0,0.0,0.0,0.0,0.0,0.0,0.0,0.0,0.0,0.0,0.0,0.0,0.0,0.0,0.0,0.0,0.0,0.0,0.0,0.0,0.0,0.0,0.0,0.0,0.0,0.0,0.0,0.0,0.0,0.0,0.0,0.0,0.0,0.0,0.0,0.0,0.0,0.0,0.0,0.0,0.0,0.0,0.0,0.0,0.0,0.0,0.0,0.0,0.0,0.0,0.0,0.0,0.0,0.0,0.0,0.0,0.0,0.0,0.0,0.0,0.0,0.0,0.0,0.0,0.0,0.0,0.0,0.0,0.0,0.0,0.0,0.0,0.0,0.0,-0.8257,-0.8739,-0.9169,-0.9474,-0.9624,-0.9575,-0.9287,-0.8759,-0.8044,0.0,0.0,0.0,0.0,0.0,0.0,0.0,0.0,0.0,0.0,0.0,0.0,0.0,0.0,0.0,0.0,0.0,0.0,0.0,0.0,0.0,0.0,0.0,0.0,0.0,0.0,0.0,0.0,0.0,0.0,0.0,0.0,0.0,0.0,0.0,0.0,0.0,0.0,-0.7614,-0.7862,0.0,0.0,0.0,0.0,0.0,0.0,0.0,0.0,-0.8269,0.0,0.0,0.0,0.0,0.0,0.0,0.0,0.0,0.0,0.0,0.0,0.0,0.0,0.0,0.0,0.0,0.0,0.0,0.0,0.0,0.0,0.0,0.0,0.0,0.0,0.0,0.0,0.0,0.0,0.0,0.0,0.0,0.0,0.0,0.0,0.0,0.0,0.0,0.0,0.0,0.0,0.0,0.0,0.0,0.0,0.0,0.0,0.0,0.0,0.0,0.0,0.0,0.0,0.0,0.0,0.0,-0.8568,-0.8446,-0.8727,-0.9514,-0.9546,-0.9624,-0.9616,-0.9283,-0.8755,-0.8048,0.0,0.0,0.0,0.0,0.0,0.0,0.0,0.0,0.0,0.0,0.0,0.0,0.0,0.0,0.0,0.0,0.0,0.0,0.0,0.0,0.0,0.0,0.0,0.0,0.0,0.0,0.0,0.0,0.0,0.0,0.0,0.0,0.0,0.0,0.0,0.0,0.0,0.0,0.0,-0.8174,-0.8276,0.0,0.0,0.0,0.0,0.0,0.0,0.0,0.0,-0.8973,0.0,0.0,0.0,0.0,0.0,0.0,0.0,0.0,0.0,0.0,0.0,0.0,0.0,0.0,0.0,0.0,0.0,0.0,0.0,0.0,0.0,0.0,0.0,0.0,0.0,0.0,0.0,0.0,0.0,0.0,0.0,0.0,0.0,0.0,0.0,0.0,0.0,0.0,0.0,0.0,0.0,0.0,0.0,0.0,0.0,0.0,0.0,0.0,0.0,0.0,0.0,0.0,0.0,0.0,0.0,-0.863,-0.869,-0.9011,-0.96,-0.9624,-0.9624,-0.9616,-0.919,-0.8831,0.0,0.0,0.0,0.0,0.0,0.0,0.0,0.0,0.0,0.0,0.0,0.0,0.0,0.0,0.0,0.0,0.0,0.0,0.0,0.0,0.0,0.0,0.0,0.0,0.0,0.0,0.0,0.0,0.0,0.0,0.0,0.0,0.0,0.0,0.0,0.0,0.0,0.0,0.0,0.0,-0.8392,-0.8564,-0.9275,0.0,0.0,0.0,0.0,0.0,0.0,-0.9088,-0.9125,0.0,0.0,0.0,0.0,0.0,0.0,0.0,0.0,0.0,0.0,0.0,0.0,0.0,0.0,0.0,0.0,0.0,0.0,0.0,0.0,0.0,0.0,0.0,0.0,0.0,0.0,0.0,0.0,0.0,0.0,0.0,0.0,0.0,0.0,0.0,0.0,0.0,0.0,0.0,0.0,0.0,0.0,0.0,0.0,0.0,0.0,0.0,0.0,0.0,0.0,0.0,0.0,0.0,0.0,0.0,-0.8641,-0.9006,-0.9329,-0.9604,-0.9624,-0.9624,-0.9616,-0.9068,-0.8877,0.0,0.0,0.0,0.0,0.0,0.0,0.0,0.0,0.0,0.0,0.0,0.0,0.0,0.0,0.0,0.0,0.0,0.0,0.0,0.0,0.0,0.0,0.0,0.0,0.0,0.0,0.0,0.0,0.0,0.0,0.0,0.0,0.0,0.0,0.0,0.0,0.0,0.0,0.0,0.0,0.0,-0.8951,-0.9482,-0.9324,0.0,0.0,0.0,0.0,-0.9003,-0.9169,0.0,0.0,0.0,0.0,0.0,0.0,0.0,0.0,0.0,0.0,0.0,0.0,0.0,0.0,0.0,0.0,0.0,0.0,0.0,0.0,0.0,0.0,0.0,0.0,0.0,0.0,0.0,0.0,0.0,0.0,0.0,0.0,0.0,0.0,0.0,0.0,0.0,0.0,0.0,0.0,0.0,0.0,0.0,0.0,0.0,0.0,0.0,0.0,0.0,0.0,0.0,0.0,0.0,0.0,0.0,0.0,-0.9046,-0.9354,-0.9567,-0.9596,-0.9624,-0.9624,-0.9616,-0.8962,-0.8755,0.0,0.0,0.0,0.0,0.0,0.0,0.0,0.0,0.0,0.0,0.0,0.0,0.0,0.0,0.0,0.0,0.0,0.0,0.0,0.0,0.0,0.0,0.0,0.0,0.0,0.0,0.0,0.0,0.0,0.0,0.0,0.0,0.0,0.0,0.0,0.0,0.0,0.0,0.0,0.0,0.0,-0.9181,-0.9571,-0.9328,-0.9092,0.0,0.0,-0.9563,-0.9535,-0.9819,0.0,0.0,0.0,0.0,0.0,0.0,0.0,0.0,0.0,0.0,0.0,0.0,0.0,0.0,0.0,0.0,0.0,0.0,0.0,0.0,0.0,0.0,0.0,0.0,0.0,0.0,0.0,0.0,0.0,0.0,0.0,0.0,0.0,0.0,0.0,0.0,0.0,0.0,0.0,0.0,0.0,0.0,0.0,0.0,0.0,0.0,0.0,0.0,0.0,0.0,0.0,0.0,0.0,0.0,0.0,-0.9221,-0.9519,-0.9574,-0.973,-1.0055,-0.9776,-0.9624,-0.9624,-0.8735,-0.8715,0.0,0.0,0.0,0.0,0.0,0.0,0.0,0.0,0.0,0.0,0.0,0.0,0.0,0.0,0.0,0.0,0.0,0.0,0.0,0.0,0.0,0.0,0.0,0.0,0.0,0.0,0.0,0.0,0.0,0.0,0.0,0.0,0.0,0.0,0.0,0.0,0.0,0.0,0.0,0.0,0.0,0.0,-0.9542,-0.9494,0.0,0.0,0.0,-0.951,-0.9356,0.0,0.0,0.0,0.0,0.0,0.0,0.0,0.0,0.0,0.0,0.0,0.0,0.0,0.0,0.0,0.0,0.0,0.0,0.0,0.0,0.0,0.0,0.0,0.0,0.0,0.0,0.0,0.0,0.0,0.0,0.0,0.0,0.0,0.0,0.0,0.0,0.0,0.0,0.0,0.0,0.0,0.0,0.0,0.0,0.0,0.0,0.0,0.0,0.0,0.0,0.0,0.0,0.0,0.0,0.0,0.0,0.0,-0.9967,-1.0125,-1.0265,-1.0413,-1.0019,-0.9871,-0.9948,-0.9059,0.0,0.0,0.0,0.0,0.0,0.0,0.0,0.0,0.0,0.0,0.0,0.0,0.0,0.0,0.0,0.0,0.0,0.0,0.0,0.0,0.0,0.0,0.0,0.0,0.0,0.0,0.0,-0.5915,0.0,0.0,0.0,0.0,0.0,0.0,0.0,0.0,0.0,0.0,0.0,0.0,0.0,0.0,-0.9474,-0.9558,-0.9624,-0.9657,0.0,0.0,-0.9567,-0.9397,-0.9888,-1.0106,0.0,0.0,0.0,0.0,0.0,0.0,0.0,0.0,0.0,0.0,0.0,0.0,0.0,0.0,0.0,0.0,0.0,0.0,0.0,0.0,0.0,0.0,0.0,0.0,0.0,0.0,0.0,0.0,0.0,0.0,0.0,0.0,0.0,0.0,0.0,0.0,0.0,0.0,0.0,0.0,0.0,0.0,0.0,0.0,0.0,0.0,0.0,0.0,0.0,0.0,0.0,0.0,0.0,0.0,-1.0372,-1.0233,-1.1265,-1.134,-1.0462,-1.0364,-1.06,-1.1063,-1.0435,-1.0504,0.0,0.0,0.0,0.0,0.0,0.0,0.0,0.0,0.0,0.0,0.0,0.0,0.0,0.0,0.0,0.0,0.0,0.0,0.0,0.0,0.0,0.0,0.0,0.0,0.0,0.0,0.0,0.0,0.0,0.0,0.0,0.0,0.0,0.0,0.0,0.0,0.0,0.0,0.0,0.0,0.0,-0.9567,-0.9575,-0.9624,-0.9746,0.0,-0.9843,-0.9684,-1.0038,-1.0404,-1.0412,-0.9705,0.0,0.0,0.0,0.0,0.0,0.0,0.0,0.0,0.0,0.0,0.0,0.0,0.0,0.0,0.0,0.0,0.0,0.0,0.0,0.0,0.0,0.0,0.0,0.0,0.0,0.0,0.0,0.0,0.0,0.0,0.0,0.0,0.0,0.0,0.0,0.0,0.0,0.0,0.0,0.0,0.0,0.0,0.0,0.0,0.0,0.0,0.0,0.0,0.0,0.0,0.0,0.0,0.0,-1.0341,-1.0695,-1.1218,-1.1683,-1.2058,-1.1717,-1.1814,-1.2339,-1.1621,-1.1357,0.0,0.0,0.0,0.0,0.0,0.0,0.0,0.0,0.0,0.0,0.0,0.0,0.0,0.0,0.0,0.0,0.0,0.0,0.0,0.0,0.0,0.0,0.0,0.0,0.0,0.0,0.0,0.0,-0.897,-0.8826,-0.8014,0.0,0.0,0.0,0.0,0.0,0.0,0.0,0.0,0.0,0.0,-0.9705,-0.9925,-0.9957,0.0,0.0,-1.0098,-0.9925,-0.9843,-1.0136,-1.0175,-0.9417,-0.9299,0.0,0.0,0.0,0.0,0.0,0.0,0.0,0.0,0.0,0.0,0.0,0.0,0.0,0.0,0.0,0.0,0.0,0.0,0.0,0.0,0.0,0.0,0.0,0.0,0.0,0.0,0.0,0.0,0.0,0.0,0.0,0.0,0.0,0.0,0.0,0.0,0.0,0.0,0.0,0.0,0.0,0.0,0.0,0.0,0.0,0.0,0.0,0.0,0.0,0.0,0.0,0.0,-1.1062,-1.1566,-1.2099,-1.2689,-1.3457,-1.3113,-1.3162,-1.3632,-1.3069,-1.263,0.0,0.0,0.0,0.0,0.0,0.0,0.0,0.0,0.0,0.0,0.0,0.0,0.0,0.0,0.0,0.0,0.0,0.0,0.0,0.0,0.0,0.0,0.0,0.0,0.0,0.0,0.0,0.0,-0.9671,-0.9543,-0.9273,0.0,0.0,0.0,0.0,0.0,0.0,0.0,0.0,0.0,0.0,-0.9839,-0.9981,-1.0258,-1.0476,-1.0531,-1.0645,-1.0702,-1.0555,-1.0866,-1.0912,-1.0248,0.0,0.0,0.0,0.0,0.0,0.0,0.0,0.0,0.0,0.0,0.0,0.0,0.0,0.0,0.0,0.0,0.0,0.0,0.0,0.0,0.0,0.0,0.0,0.0,0.0,0.0,0.0,-0.9679,0.0,0.0,-0.9249,0.0,0.0,0.0,0.0,0.0,0.0,0.0,0.0,0.0,0.0,0.0,0.0,0.0,0.0,0.0,0.0,0.0,0.0,0.0,0.0,0.0,0.0,-1.2864,-1.2867,-1.4209,-1.4758,-1.4316,-1.4268,-1.4513,-1.4937,-1.4706,-1.452,-1.4378,0.0,0.0,0.0,0.0,0.0,0.0,0.0,0.0,0.0,0.0,0.0,0.0,0.0,0.0,0.0,0.0,0.0,0.0,0.0,0.0,0.0,0.0,0.0,0.0,0.0,0.0,-0.9515,-0.9039,-0.9439,0.0,0.0,0.0,0.0,0.0,0.0,0.0,0.0,0.0,-0.8877,-0.9587,-1.0069,-0.9747,-1.0422,-1.11,-1.1336,-1.1687,-1.2036,-1.2579,-1.2967,-1.3124,0.0,0.0,0.0,0.0,0.0,0.0,0.0,0.0,0.0,0.0,0.0,0.0,0.0,0.0,0.0,0.0,0.0,0.0,0.0,0.0,0.0,0.0,0.0,0.0,0.0,0.0,0.0,-1.1289,-1.1259,0.0,0.0,0.0,0.0,0.0,0.0,0.0,0.0,0.0,0.0,0.0,-1.0288,-1.0565,0.0,0.0,0.0,0.0,0.0,0.0,0.0,0.0,0.0,0.0,0.0,0.0,-1.2959,-1.2994,-1.4345,-1.5235,-1.552,-1.5561,-1.5812,-1.6298,-1.6003,-1.532,-1.4133,0.0,0.0,0.0,0.0,0.0,0.0,0.0,0.0,0.0,0.0,0.0,0.0,0.0,0.0,0.0,0.0,0.0,0.0,0.0,0.0,0.0,0.0,0.0,0.0,0.0,-1.2047,0.0,0.0,0.0,0.0,0.0,0.0,0.0,0.0,0.0,0.0,-1.1464,-1.1777,-1.19,-1.1996,-1.205,-1.2004,-1.2277,-1.2606,0.0,0.0,0.0,0.0,0.0,0.0,0.0,0.0,0.0,0.0,0.0,0.0,0.0,0.0,-1.4138,-1.3602,-1.4066,-1.4526,-1.4337,0.0,0.0,0.0,0.0,0.0,0.0,0.0,0.0,0.0,0.0,0.0,0.0,0.0,0.0,-1.3572,-1.3515,-1.3136,0.0,0.0,0.0,0.0,0.0,0.0,0.0,0.0,-1.1594,-1.1653,-1.1882,-1.2215,-1.2583,0.0,-1.3194,-1.2249,0.0,0.0,0.0,0.0,0.0,0.0,0.0,0.0,-1.3816,-1.3841,-1.5169,-1.6096,-1.6567,-1.6567,-1.677,-1.7106,-1.6718,-1.5876,-1.4559,-1.3705,-1.2865,0.0,0.0,0.0,0.0,0.0,0.0,0.0,0.0,0.0,0.0,0.0,0.0,0.0,0.0,0.0,0.0,0.0,0.0,0.0,0.0,0.0,0.0,0.0,-1.2699,0.0,0.0,0.0,0.0,0.0,0.0,0.0,0.0,0.0,-1.2791,-1.3168,-1.3531,-1.3665,-1.3571,-1.3464,-1.3341,0.0,0.0,0.0,0.0,0.0,0.0,0.0,-1.3672,-1.3649,-1.3791,-1.434,-1.5412,-1.5928,-1.6303,-1.6813,0.0,0.0,-1.555,-1.5751,-1.6027,-1.5939,-1.5872,-1.5852,-1.5852,-1.5852,-1.5905,0.0,0.0,0.0,0.0,0.0,0.0,0.0,0.0,-1.6314,-1.6283,0.0,-1.5206,0.0,0.0,0.0,0.0,-1.3492,-1.3672,0.0,0.0,-1.4631,-1.4773,-1.4327,-1.4282,-1.4327,-1.4379,-1.4553,-1.4363,-1.3916,-1.3688,0.0,0.0,0.0,0.0,0.0,0.0,-1.5411,-1.5462,-1.6666,-1.7301,-1.7301,-1.7286,-1.7279,-1.7271,-1.6795,-1.6258,-1.5655,-1.5078,-1.4275,-1.3086,-1.2445,0.0,0.0,0.0,0.0,0.0,0.0,0.0,0.0,0.0,0.0,0.0,0.0,0.0,0.0,0.0,0.0,0.0,0.0,0.0,0.0,-1.2416,0.0,0.0,0.0,0.0,0.0,0.0,0.0,0.0,0.0,-1.5843,-1.33,-1.3679,-1.4106,-1.4138,0.0,0.0,0.0,0.0,-1.5164,-1.4641,-1.5035,-1.5377,-1.5478,-1.5898,-1.6273,-1.6279,0.0,0.0,-1.7622,-1.7595,-1.7549,-1.7293,-1.7889,-1.8397,-1.8022,-1.7503,-1.734,-1.7495,-1.7128,-1.6794,-1.6767,-1.6794,-1.6794,-1.5091,0.0,0.0,0.0,0.0,-1.5991,-1.6554,-1.7531,-1.7265,-1.7141,-1.7107,-1.6542,0.0,0.0,0.0,0.0,0.0,0.0,-1.4363,-1.4547,-1.4418,-1.452,-1.4856,-1.5026,-1.5402,-1.6028,-1.6439,-1.6787,-1.7013,-1.7182,-1.5901,-1.3354,0.0,0.0,0.0,0.0,-1.5884,-1.6148,-1.7135,-1.7677,-1.7677,-1.745,-1.7286,-1.7286,-1.6972,-1.6724,-1.6542,-1.593,-1.5144,-1.4252,-1.3944,0.0,0.0,0.0,0.0,0.0,0.0,0.0,0.0,0.0,0.0,0.0,0.0,0.0,0.0,0.0,0.0,0.0,0.0,0.0,-1.2911,-1.283,-1.2864,0.0,0.0,0.0,0.0,0.0,0.0,0.0,0.0,0.0,-1.6444,-1.6553,-1.6642,0.0,0.0,-1.6062,-1.5671,-1.6135,-1.6622,-1.6911,-1.6964,0.0,-1.7208,-1.6887,-1.658,-1.6587,-1.7388,-1.7929,-1.7635,-1.811,-1.8377,-1.7883,-1.8163,-1.8464,-1.839,-1.841,-1.8357,-1.8257,-1.8083,-1.7983,-1.7976,-1.7983,-1.8036,-1.7743,-1.5978,-1.6216,-1.6903,-1.7809,-1.755,-1.7951,-1.888,-1.8691,-1.8579,-1.8554,-1.804,-1.7652,-1.7308,-1.6687,0.0,0.0,0.0,-1.576,-1.6278,-1.5735,-1.5817,-1.6346,-1.65,-1.6833,-1.7337,-1.7816,-1.8167,-1.8489,-1.8562,-1.7504,-1.5383,0.0,0.0,-1.5003,-1.5957,-1.6623,-1.6952,-1.7516,-1.7816,-1.7808,-1.7447,-1.7286,-1.7271,-1.7143,-1.7027,-1.6903,-1.6536,-1.5951,-1.5191,-1.4856,-1.4054,0.0,0.0,0.0,0.0,0.0,0.0,0.0,0.0,0.0,0.0,0.0,-1.3601,-1.3411,0.0,0.0,0.0,-1.3821,-1.3697,-1.3945,-1.3963,0.0,0.0,0.0,0.0,0.0,0.0,0.0,-1.6711,-1.7318,-1.7735,-1.7808,-1.7925,-1.7984,-1.7918,-1.7743,-1.7527,-1.7269,0.0,-1.7767,-1.7937,-1.787,-1.7798,-1.784,-1.7494,-1.7235,-1.7241,-1.7549,-1.7836,-1.7809,-1.8136,-1.8297,-1.8075,-1.8142,-1.8317,-1.831,-1.8551,-1.8798,-1.8831,-1.8838,-1.8838,-1.8838,-1.8831,-1.8891,-1.9806,-1.939,-1.8815,-1.8884,-1.9264,-1.9264,-1.9641,-2.0283,-2.0283,-2.0292,-2.0232,-1.9616,-1.8897,-1.8221,-1.7171,0.0,-1.8034,-1.7576,-1.7793,-1.859,-1.8126,-1.8055,-1.8299,-1.8299,-1.8299,-1.8313,-1.8635,-1.8789,-1.8767,-1.8511,-1.8182,-1.7816,-1.7545,-1.7055,-1.6485,-1.6974,-1.7457,-1.7801,-1.7808,-1.783,-1.7845,-1.7538,-1.7323,-1.7377,-1.7271,-1.715,-1.6917,-1.6851,-1.6558,-1.5928,-1.5279,-1.4652,-1.4033,0.0,0.0,0.0,0.0,0.0,0.0,0.0,0.0,0.0,0.0,0.0,0.0,0.0,0.0,0.0,-1.4599,0.0,-1.544,-1.557,0.0,0.0,0.0,-1.6294,-1.6917,-1.7238,-1.7443,-1.7395,0.0,0.0,-1.7969,-1.8218,-1.8533,-1.8825,-1.8796,-1.8635,-1.8343,-1.8547,-1.8593,-1.8096,-1.8072,-1.8,-1.7822,-1.7814,-1.7896,-1.7836,-1.7789,-1.7756,-1.7909,-1.7889,-1.7809,-1.7949,-1.8029,-1.8069,-1.8042,-1.8364,-1.8691,-1.9205,-1.9299,-1.9305,-1.9323,-1.9292,-1.937,-2.0878,-1.9989,-2.0205,-2.0209,-1.9982,-1.9659,-1.9805,-2.0292,-2.0292,-2.0292,-2.0275,-2.0148,-1.993,-1.9739,-1.9475,-1.9325,-1.9228,-1.931,-1.9111,-1.8646,-1.8745,-1.8611,-1.8299,-1.8299,-1.8299,-1.8321,-1.8635,-1.8789,-1.8803,-1.8964,-1.8628,-1.786,-1.7984,-1.7501,-1.647,-1.6815,-1.7245,-1.7808,-1.7816,-1.7933,-1.8174,-1.7874,-1.7651,-1.7699,-1.7223,-1.693,-1.6895,-1.6389,-1.6067,-1.5913,-1.5484,-1.5021,-1.4384,-1.336,0.0,0.0,0.0,0.0,0.0,0.0,0.0,0.0,0.0,-1.4181,-1.3653,0.0,-1.4071,0.0,-1.5384,-1.6125,-1.6521,-1.6733,0.0,0.0,-1.7113,-1.7421,-1.7582,-1.8094,-1.8438,-1.8438,-1.8796,-1.9016,-1.8935,-1.9213,-1.9492,-1.9513,-1.8891,-1.8386,-1.8321,-1.8577,-1.876,-1.8611,-1.8779,-1.884,-1.8355,-1.7948,-1.7716,-1.7695,-1.7829,-1.7909,-1.7982,-1.8183,-1.8237,-1.8062,-1.8424,-1.8591,-1.8397,-1.8624,-1.8831,-1.8998,-1.9032,-1.9025,-1.9032,-1.9199,-1.9417,-2.1746,-2.0962,-2.1087,-2.0797,-2.0292,-2.0011,-2.0056,-2.0292,-2.0292,-2.0292,-2.0292,-2.0292,-2.0292,-2.03,-2.0472,-2.0264,-1.981,-1.9929,-1.9662,-1.8992,-1.8976,-1.8885,-1.8738,-1.8738,-1.8738,-1.8745,-1.8921,-1.9008,-1.9016,-1.9184,-1.9052,-1.8482,-1.865,-1.8233,-1.7267,-1.7121,-1.7238,-1.7541,-1.7743,-1.7969,-1.8284,-1.7984,-1.7684,-1.7384,-1.6954,-1.6551,-1.6228,-1.5884,-1.557,-1.5284,-1.5094,-1.4772,-1.4306,-1.3462,-1.2893,0.0,0.0,0.0,0.0,0.0,0.0,0.0,0.0,0.0,0.0,0.0,-1.4816,-1.5318,-1.6352,-1.7084,-1.726,-1.7706,-1.7969,-1.7989,-1.8379,-1.8738,-1.8884,-1.9213,-1.9433,-1.9433,-1.9594,-1.9703,-1.9711,-1.9857,-1.9974,-1.9974,-1.9506,-1.9103,-1.8979,-1.8994,-1.8971,-1.8893,-1.8975,-1.9008,-1.8537,-1.8211,-1.7989,-1.7996,-1.813,-1.825,-1.825,-1.8377,-1.839,-1.8095,-1.8424,-1.8584,-1.8203,-1.833,-1.8435,-1.8377,-1.8437,-1.8515,-1.8704,-1.8865,-1.8978,-2.2379,-2.197,-2.1627,-2.1054,-2.0369,-2.0369,-2.0283,-2.0155,-2.0146,-2.0172,-2.0223,-2.0266,-2.0292,-2.0317,-2.0703,-2.0623,-2.0116,-2.0183,-1.9951,-1.959,-1.9231,-1.9155,-1.9272,-1.9272,-1.9272,-1.9272,-1.9272,-1.9272,-1.9272,-1.9272,-1.9235,-1.9155,-1.9155,-1.8825,-1.8182,-1.7563,-1.7286,-1.7286,-1.7684,-1.8021,-1.8284,-1.7904,-1.7406,-1.6859,-1.6485,-1.5965,-1.536,-1.5323,-1.5109,-1.4567,-1.4538,-1.4435,-1.4231,-1.3579,-1.3236,0.0,-1.2711,0.0,0.0,0.0,0.0,0.0,0.0,0.0,0.0,-1.5789,-1.595,-1.6668,-1.7479,-1.8028,-1.8074,-1.8679,-1.9133,-1.9374,-1.9725,-2.0033,-2.0154,-2.0219,-2.0296,-2.0241,-2.0241,-2.0241,-2.0289,-2.027,-2.03,-2.0311,-2.0259,-2.0113,-1.9901,-1.961,-1.93,-1.9038,-1.8936,-1.8813,-1.855,-1.8492,-1.8457,-1.8477,-1.8464,-1.8497,-1.8477,-1.8444,-1.835,-1.8089,-1.8297,-1.8323,-1.7789,-1.7956,-1.8029,-1.7862,-1.7936,-1.8103,-1.8364,-1.8497,-1.849,-2.2379,-2.1996,-2.1919,-2.1456,-2.0771,-2.0771,-2.024,-1.9436,-1.9428,-1.9564,-1.9864,-2.0163,-2.0292,-2.0326,-2.0703,-2.0827,-2.0768,-2.1334,-2.1073,-2.0142,-2.0382,-2.0084,-1.9324,-1.9272,-1.9272,-1.9272,-1.9272,-1.9272,-1.9272,-1.9272,-1.9001,-1.8496,-1.8482,-1.816,-1.749,0.0,0.0,0.0,-1.7911,-1.8247,-1.8269,-1.7472,-1.6895,-1.6507,-1.5906,0.0,-1.5024,-1.4988,-1.4944,-1.4827,-1.4812,0.0,0.0,0.0,0.0,0.0,0.0,0.0,0.0,0.0,0.0,0.0,-1.5687,-1.576,-1.6243,-1.6704,-1.7347,-1.824,-1.8738,-1.9213,-1.9679,-2.012,-2.0274,-2.0106,-2.0581,-2.0757,-2.027,-2.0464,-2.0633,-2.0625,-2.0625,-2.0633,-2.0647,-2.0852,-2.0911,-2.0621,-2.0577,-2.0555,-2.0545,-2.0033,-1.9689,-1.9628,-1.9192,-1.8805,-1.8543,-1.8508,-1.8524,-1.8497,-1.8497,-1.8504,-1.8497,-1.8317,-1.8095,-1.8009,-1.8297,-1.8484,-1.8317,-1.8377,-1.8377,-1.8323,-1.7976,-1.7762,-1.8015,-1.8323,-1.8497,-2.2482,-2.2302,-2.2073,-2.167,0.0,-2.0998,-2.0335,-1.9461,-1.965,-1.9838,-1.9982,-2.0215,-2.0292,-2.0309,-2.0506,-2.0445,-2.0239,-2.0609,-2.0393,-1.9685,-1.9872,-1.973,-1.9272,-1.9272,-1.9272,-1.9272,-1.9272,-1.9272,-1.9272,-1.9272,-1.9162,-1.8789,-1.8782,-1.8621,-1.8306,-1.8284,-1.813,-1.7808,-1.8138,-1.846,-1.8745,-1.8194,-1.7622,-1.7099,-1.6623,0.0,0.0,0.0,0.0,0.0,0.0,0.0,0.0,0.0,0.0,-1.5855,-1.5738,-1.5789,-1.6053,-1.6235,-1.6645,-1.7282,-1.7633,-1.7677,-1.7355,-1.8203,-1.9038,-1.9667,-1.9894,-2.0186,-2.0662,-2.0874,-2.0896,-2.0757,-2.1013,-2.1064,-2.0801,-2.0803,-2.0962,-2.0969,-2.0969,-2.0962,-2.0962,-2.1094,-2.1145,-2.0991,-2.0969,-2.0962,-2.0903,-2.0406,-1.9949,-1.9812,-1.9137,-1.8685,-1.8687,-1.8677,-1.8704,-1.8718,-1.8824,-1.8851,-1.8724,-1.8704,-1.8571,-1.8169,-1.851,-1.8811,-1.8384,-1.849,-1.8617,-1.833,-1.8023,-1.7796,-1.7842,-1.7936,-1.8036,-2.2603,-2.2568,-2.2268,-2.1867,-2.149,-2.1199,-2.0643,-1.9913,-2.0121,0.0,0.0,-2.0266,-2.0326,-2.0394,-2.0463,-2.0302,-1.9953,-1.9926,-1.9702,-1.9353,-1.9212,-1.9207,-1.9264,-1.9272,-1.9272,-1.9272,-1.9272,-1.9272,-1.9272,-1.9272,-1.9272,-1.9272,-1.9272,-1.9272,-1.9272,-1.9272,-1.9008,-1.8496,-1.8357,-1.8555,-1.9074,-1.873,-1.8255,-1.7662,-1.7384,-1.6967,-1.6441,-1.647,-1.633,-1.6074,-1.6074,-1.6133,-1.6243,-1.6199,-1.633,-1.6682,-1.6711,-1.6967,-1.7538,-1.7582,-1.7984,-1.8899,-1.9506,-1.9528,-1.8774,-1.965,-2.0402,-2.0723,-2.0808,-2.0918,-2.1181,-2.1211,-2.1211,-2.1211,-2.1211,-2.1211,-2.1203,-2.1211,-2.1196,-2.1211,-2.1189,-2.1203,-2.1196,-2.1203,-2.1211,-2.1203,-2.1181,-2.1211,-2.1137,-2.0691,-2.0179,-1.9811,-1.9308,-1.8912,-1.8967,-1.9086,-1.9042,-1.9011,-1.9199,-1.9265,-1.9112,-1.9158,-1.8958,-1.8222,-1.8791,-1.8858,-1.8295,-1.8557,-1.8661,-1.8175,-1.8029,-1.7896,-1.7669,-1.7589,-1.7615,-2.2603,-2.2594,-2.2542,-2.2302,-2.191,-2.1859,-2.1422,-2.0677,-2.0086,-1.9785,-1.9794,-2.0155,-2.048,-2.0814,-2.1114,-2.1391,-2.1627,-2.1487,-2.1125,-2.0621,-2.0146,-1.9737,-1.9324,-1.9272,-1.9272,-1.9272,-1.9272,-1.9272,-1.9279,-1.9279,-1.9272,-1.9324,-1.9272,-1.9324,-1.9272,-1.9272,-1.9235,-1.9133,-1.8584,-1.835,-1.843,-1.7845,-1.7362,-1.7064,-1.702,-1.68,-1.6433,-1.6705,-1.6815,-1.6771,-1.6771,-1.7013,-1.7494,-1.7242,-1.7399,-1.7969,-1.8035,-1.8196,-1.8547,-1.8584,-1.8884,-1.961,-1.9959,-2.0223,-2.0377,-2.0545,-2.0794,-2.1094,-2.1123,-2.1152,-2.1211,-2.1211,-2.1211,-2.1211,-2.1211,-2.1211,-2.1211,-2.1211,-2.1211,-2.1211,-2.1211,-2.1211,-2.1211,-2.1211,-2.1211,-2.1211,-2.1211,-2.1211,-2.1152,-2.0896,-2.0441,-2.001,-1.9945,-1.9808,-1.9436,-1.9555,-1.9476,-1.9363,-1.9383,-1.9397,-1.9252,-1.9105,-1.8865,-1.8477,-1.8718,-1.8784,-1.8457,-1.8691,-1.8711,-1.8417,-1.8142,-1.7896,-1.7649,-1.7589,-1.7589,-2.2603,-2.2603,-2.2603,-2.25,-2.2328,-2.2081,-2.1567,-2.0874,-2.0514,-2.036,-2.0403,-2.0746,-2.0994,-2.1156,-2.1131,-2.1225,-2.1388,-2.1106,-2.0719,-2.0295,-2.0053,-1.9699,-1.9302,-1.9272,-1.9272,-1.9272,-1.9272,-1.9635,-2.013,-2.0181,-2.0439,-2.0987,-2.1038,-2.1038,-2.0979,-2.0483,-2.0181,-2.0174,-1.9279,-1.8833,-1.8825,-1.854,-1.8321,-1.8223,-1.8216,-1.815,-1.7955,-1.8135,-1.8216,-1.8216,-1.8216,-1.8355,-1.8577,-1.8467,-1.8518,-1.8811,-1.8833,-1.8899,-1.9045,-1.9052,-1.933,-1.9959,-2.015,-2.0402,-2.0955,-2.0991,-2.1057,-2.1189,-2.1211,-2.1211,-2.1211,-2.1211,-2.1211,-2.1211,-2.1211,-2.1211,-2.1211,-2.1211,-2.1211,-2.1211,-2.1211,-2.1211,-2.1211,-2.1211,-2.1211,-2.1211,-2.1211,-2.1211,-2.1211,-2.0908,-2.0628,-2.0322,-2.0012,-1.9786,-1.9633,-1.9547,-1.9526,-1.9424,-1.9424,-1.935,-1.9178,-1.8985,-1.8695,-1.837,-1.849,-1.8544,-1.8317,-1.849,-1.8524,-1.8323,-1.8109,-1.7876,-1.7682,-1.7589,-1.7589,-2.2603,-2.2603,-2.2603,-2.2603,-2.2568,-2.2244,-2.1687,-2.1037,-2.1088,-2.1037,-2.0925,-2.1174,-2.1388,-2.1508,-2.1259,-2.1135,-2.1009,-2.0661,-2.0268,-1.9878,-1.9769,-1.9555,-1.9332,-1.9272,-1.9428,-1.9628,-1.968,-2.0233,-2.1132,-2.1234,-2.1641,-2.2442,-2.2492,-2.2492,-2.2492,-2.1684,-2.1234,-2.1234,-2.0423,-1.9776,-1.9324,-1.9272,-1.9272,-1.9272,-1.9264,-1.9272,-1.9272,-1.9272,-1.9272,-1.9272,-1.9272,-1.9272,-1.9272,-1.9272,-1.9272,-1.9272,-1.9272,-1.9272,-1.9272,-1.9272,-1.9557,-2.0124,-2.0183,-2.0619,-2.1442,-2.1596,-2.1482,-2.1268,-2.1325,-2.1382,-2.1268,-2.1482,-2.1596,-2.1596,-2.1873,-2.1987,-2.1702,-2.1816,-2.1702,-2.1375,-2.1432,-2.1539,-2.1261,-2.1211,-2.1211,-2.1211,-2.1211,-2.1211,-2.1153,-2.0902,-2.0723,-2.0508,-1.9946,-1.9676,-1.9774,-1.9649,-1.9482,-1.9424,-1.9424,-1.9279,-1.9105,-1.8998,-1.8744,-1.8337,-1.8343,-1.837,-1.8102,-1.8297,-1.835,-1.815,-1.7995,-1.7896,-1.7655,-1.7589,-1.7589,-2.2603,-2.2603,-2.2603,-2.2603,-2.2585,-2.2551,-2.2096,-2.1448,-2.173,-2.1499,-2.096,-2.0964,-2.1336,-2.1884,-2.1884,-2.1725,-2.1569,-2.1089,-2.0574,-2.0059,-1.9598,-1.9324,-1.9324,-1.9324,-1.9776,-2.0637,-2.0731,-2.1285,-2.2282,-2.2391,-2.2442,-2.2492,-2.2492,-2.2593,-2.2542,-2.2442,-2.2341,-2.2333,-2.224,-2.1234,-1.9428,-1.9272,-1.9272,-1.9272,-1.9272,-1.9272,-1.9272,-1.9272,-1.9272,-1.9272,-1.9272,-1.9272,-1.9272,-1.9272,-1.9272,-1.9272,-1.9272,-1.9272,-1.9272,-1.9272,-1.955,-2.0095,-2.023,-2.0991,-2.255,-2.2805,-2.2369,-2.171,-2.1774,-2.1881,-2.1382,-2.2207,-2.2813,-2.2862,-2.3623,-2.4014,-2.3135,-2.3735,-2.3575,-2.1375,-2.2263,-2.2425,-2.1596,-2.1261,-2.1211,-2.1211,-2.1211,-2.1211,-2.1153,-2.091,-2.0608,-2.0443,-2.0228,-2.0056,-1.9873,-1.9815,-1.9591,-1.9424,-1.9424,-1.939,-1.9252,-1.9052,-1.8804,-1.8484,-1.8364,-1.8283,-1.8183,-1.827,-1.8323,-1.8056,-1.7956,-1.7936,-1.7675,-1.7589,-1.7589,-2.2603,-2.2603,-2.2603,-2.2465,-2.2311,-2.25,-2.2165,-2.1465,-2.1824,-2.1661,-2.1164,-2.1389,-2.1559,-2.1527,-2.1527,-2.1437,-2.1267,-2.1326,-2.107,-2.0609,-2.0351,-2.0094,-1.9835,-2.0138,-2.0483,-2.0936,-2.1532,-2.2391,-2.3393,-2.4106,-2.4412,-2.4421,-2.4412,-2.4362,-2.4362,-2.375,-2.3434,-2.3443,-2.2844,-2.2089,-2.1234,-2.0585,-1.9931,-1.9376,-1.9272,-1.9272,-1.9272,-1.9272,-1.9272,-1.9272,-1.9272,-1.9272,-1.9272,-1.9272,-1.9272,-1.9272,-1.9272,-1.9272,-1.9272,-1.9272,-1.9469,-1.9923,-2.0763,-2.1713,-2.2672,-2.3786,-2.4189,-2.3463,-2.3528,-2.3528,-2.3303,-2.3735,-2.4014,-2.4069,-2.445,-2.4505,-2.4125,-2.4394,-2.4236,-2.3416,-2.3687,-2.3575,-2.2425,-2.1653,-2.1261,-2.1211,-2.1211,-2.1211,-2.1153,-2.0788,-2.0443,-2.027,-2.0046,-1.9764,-1.9591,-1.9591,-1.954,-1.9424,-1.9424,-1.9424,-1.9357,-1.8951,-1.8617,-1.8504,-1.8217,-1.7983,-1.7789,-1.7842,-1.7896,-1.7776,-1.7762,-1.7722,-1.7602,-1.7589,-1.7589,-2.2603,-2.2603,-2.2603,-2.2439,-2.2175,-2.2482,-2.2225,-2.1645,-2.1876,-2.1739,-2.1327,-2.1686,-2.159,-2.1279,-2.1429,-2.1436,-2.1208,-2.1522,-2.1522,-2.1165,-2.1113,-2.1003,-2.0783,-2.1132,-2.1489,-2.1836,-2.2584,-2.3493,-2.4501,-2.5274,-2.5684,-2.5684,-2.5684,-2.5684,-2.5635,-2.4864,-2.455,-2.4501,-2.375,-2.3253,-2.2894,-2.219,-2.114,-1.9879,-1.9428,-1.9272,-1.9272,-1.9272,-1.9272,-1.9272,-1.9272,-1.9272,-1.9272,-1.9272,-1.9272,-1.9272,-1.9272,-1.9272,-1.9272,-1.9272,-1.9411,-1.99,-2.1155,-2.2285,-2.3176,-2.4749,-2.5717,-2.5781,-2.5672,-2.5562,-2.4718,-2.5003,-2.5177,-2.5177,-2.5443,-2.5617,-2.5287,-2.5397,-2.5498,-2.4829,-2.4552,-2.4125,-2.2757,-2.1702,-2.1211,-2.1211,-2.1211,-2.1211,-2.1153,-2.0859,-2.0507,-2.0335,-1.9931,-1.9649,-1.9482,-1.9424,-1.9424,-1.9424,-1.9424,-1.939,-1.931,-1.8784,-1.8417,-1.8297,-1.7862,-1.7642,-1.7655,-1.7629,-1.7609,-1.7595,-1.7595,-1.7602,-1.7589,-1.7589,-1.7589,-2.2603,-2.2603,-2.2603,-2.2577,-2.2577,-2.2585,-2.2388,-2.197,-2.2004,-2.1807,-2.1445,-2.1451,-2.1362,-2.1263,-2.2088,-2.2165,-2.1674,-2.1623,-2.1666,-2.1641,-2.1641,-2.1887,-2.2391,-2.2442,-2.2944,-2.3642,-2.3899,-2.4559,-2.5538,-2.5635,-2.5684,-2.5684,-2.5684,-2.5684,-2.5684,-2.5586,-2.5577,-2.5479,-2.5382,-2.502,-2.4146,-2.3939,-2.2835,-2.1038,-1.9879,-1.9376,-1.9272,-1.9272,-1.9272,-1.9272,-1.9272,-1.9272,-1.9272,-1.9272,-1.9272,-1.9272,-1.9272,-1.9272,-1.9272,-1.9272,-1.947,-1.9946,-2.1262,-2.2662,-2.3991,-2.5567,-2.6844,-2.795,-2.7843,-2.706,-2.5443,-2.5908,-2.6409,-2.6472,-2.7403,-2.7403,-2.6572,-2.7232,-2.6952,-2.5333,-2.4671,-2.3799,-2.1702,-2.1261,-2.1211,-2.1211,-2.1211,-2.1211,-2.1211,-2.1153,-2.0795,-2.0443,-2.0162,-2.0046,-1.954,-1.9424,-1.9424,-1.9403,-1.937,-1.9285,-1.8985,-1.8684,-1.8397,-1.813,-1.7809,-1.7629,-1.7602,-1.7589,-1.7589,-1.7589,-1.7589,-1.7589,-1.7589,-1.7589,-1.7589,-2.2603,-2.2603,-2.2603,-2.2603,-2.2603,-2.2603,-2.2525,-2.2405,-2.2355,-2.207,-2.1744,-2.1984,-2.1961,-2.1535,-2.2282,-2.2089,-2.1275,-2.1173,-2.1514,-2.2106,-2.1844,-2.2139,-2.3011,-2.3343,-2.3692,-2.4146,-2.4815,-2.5323,-2.5635,-2.5684,-2.5684,-2.5684,-2.5684,-2.5684,-2.5684,-2.5684,-2.5684,-2.5684,-2.5684,-2.5489,-2.5069,-2.4442,-2.3692,-2.2944,-2.1234,-1.9983,-1.9324,-1.9272,-1.9272,-1.9272,-1.9272,-1.9272,-1.9272,-1.9272,-1.9272,-1.9272,-1.9272,-1.9272,-1.9272,-1.9272,-1.9411,-1.9892,-2.1903,-2.3465,-2.4477,-2.627,-2.7853,-2.8184,-2.8301,-2.7736,-2.7394,-2.7403,-2.7628,-2.7682,-2.8014,-2.8121,-2.7843,-2.8014,-2.7628,-2.6073,-2.468,-2.3199,-2.2425,-2.171,-2.1203,-2.1211,-2.1211,-2.1211,-2.1153,-2.0917,-2.0565,-2.0277,-1.9989,-1.9649,-1.9482,-1.9424,-1.941,-1.9357,-1.9316,-1.9232,-1.9032,-1.8517,-1.8115,-1.8163,-1.7862,-1.7615,-1.7589,-1.7589,-1.7589,-1.7589,-1.7589,-1.7589,-1.7589,-1.7589,-1.7589,-2.2493,-2.2342,-2.2283,-2.2443,-2.2594,-2.2392,-2.2443,-2.2603,-2.2603,-2.2333,-2.2131,-2.2443,-2.2342,-2.2089,-2.2443,-2.2241,-2.153,-2.1479,-2.203,-2.2929,-2.266,-2.307,-2.3976,-2.4461,-2.4599,-2.4707,-2.5323,-2.5684,-2.5684,-2.5684,-2.5684,-2.5684,-2.5684,-2.5684,-2.5684,-2.5684,-2.5684,-2.5684,-2.5684,-2.5684,-2.5586,-2.502,-2.4442,-2.389,-2.2333,-2.0936,-1.9835,-1.9472,-1.9272,-1.9272,-1.9272,-1.9428,-1.9776,-1.9828,-1.9983,-2.0285,-1.9983,-1.9828,-1.9887,-2.0122,-2.0379,-2.0461,-2.2734,-2.4492,-2.4969,-2.6996,-2.8092,-2.8301,-2.8301,-2.8301,-2.8301,-2.8291,-2.8301,-2.8301,-2.8301,-2.8301,-2.8301,-2.8291,-2.7511,-2.5954,-2.4189,-2.3038,-2.2433,-2.171,-2.1318,-2.1211,-2.1089,-2.1031,-2.0967,-2.068,-2.0213,-2.0162,-1.9815,-1.9597,-1.9424,-1.9424,-1.9424,-1.9377,-1.9098,-1.9092,-1.8931,-1.8397,-1.8029,-1.8103,-1.7969,-1.7709,-1.7589,-1.7589,-1.7589,-1.7589,-1.7589,-1.7589,-1.7589,-1.7589,-1.7589,-2.2241,-2.1776,-2.1725,-2.2038,-2.2384,-2.1979,-2.208,-2.2544,-2.2603,-2.2552,-2.2502,-2.2594,-2.2603,-2.2603,-2.2603,-2.2552,-2.2451,-2.2493,-2.2987,-2.3877,-2.3877,-2.448,-2.543,-2.5538,-2.5528,-2.5528,-2.5684,-2.5684,-2.5684,-2.5684,-2.5684,-2.5684,-2.5684,-2.5684,-2.5684,-2.5684,-2.5684,-2.5684,-2.5684,-2.5684,-2.5684,-2.5577,-2.5118,-2.4196,-2.3094,-2.2038,-2.0987,-1.9879,-1.9272,-1.9272,-1.9272,-1.9783,-2.0585,-2.079,-2.1277,-2.1887,-2.1438,-2.0936,-2.0987,-2.1735,-2.1892,-2.1993,-2.3905,-2.5404,-2.5968,-2.7355,-2.8301,-2.8301,-2.8301,-2.8301,-2.8301,-2.8301,-2.8301,-2.8301,-2.8301,-2.8301,-2.8301,-2.8184,-2.734,-2.5113,-2.3519,-2.2482,-2.1596,-2.1261,-2.1211,-2.1089,-2.0902,-2.0723,-2.073,-2.0443,-2.0162,-1.9931,-1.97,-1.9533,-1.9482,-1.9424,-1.9424,-1.9377,-1.9038,-1.8865,-1.8698,-1.8297,-1.7935,-1.7929,-1.7829,-1.7595,-1.7589,-1.7589,-1.7589,-1.7589,-1.7589,-1.7589,-1.7589,-1.7589,-1.7589,-2.1522,-2.1674,-2.1326,-2.1471,-2.1928,-2.1776,-2.203,-2.2594,-2.2603,-2.2603,-2.2603,-2.2603,-2.2603,-2.2603,-2.2603,-2.2603,-2.2653,-2.2937,-2.3429,-2.3976,-2.3967,-2.451,-2.5528,-2.5868,-2.5868,-2.5732,-2.5684,-2.5684,-2.5684,-2.5684,-2.5684,-2.5684,-2.5684,-2.5684,-2.5684,-2.5684,-2.5684,-2.5684,-2.5684,-2.5684,-2.5684,-2.5684,-2.5528,-2.5128,-2.4146,-2.3384,-2.2985,-2.068,-1.9376,-1.9324,-1.9272,-1.9776,-2.068,-2.0885,-2.1387,-2.2282,-2.2232,-2.1988,-2.2038,-2.2308,-2.2715,-2.3132,-2.4524,-2.5612,-2.6332,-2.7542,-2.8237,-2.8301,-2.8301,-2.8301,-2.8301,-2.8301,-2.8237,-2.8291,-2.8301,-2.8291,-2.8014,-2.6834,-2.5232,-2.3799,-2.2482,-2.1653,-2.1318,-2.1211,-2.1089,-2.0902,-2.078,-2.0666,-2.0436,-2.0155,-1.9931,-1.9815,-1.9642,-1.9533,-1.9482,-1.9424,-1.9424,-1.9336,-1.9018,-1.8771,-1.8564,-1.827,-1.7963,-1.7762,-1.7655,-1.7602,-1.7589,-1.7589,-1.7589,-1.7589,-1.7589,-1.7589,-1.7589,-1.7589,-1.7589,-2.0968,-2.1062,-2.0968,-2.1216,-2.1674,-2.1674,-2.2038,-2.2552,-2.2603,-2.2603,-2.2603,-2.2603,-2.2603,-2.2653,-2.2795,-2.2837,-2.2937,-2.3388,-2.3886,-2.4332,-2.4264,-2.4716,-2.5635,-2.5868,-2.5868,-2.5732,-2.5684,-2.5684,-2.5684,-2.5684,-2.5684,-2.5684,-2.5684,-2.5684,-2.5684,-2.5684,-2.5684,-2.5684,-2.5684,-2.5684,-2.5684,-2.5684,-2.5684,-2.5528,-2.4658,-2.4137,-2.3939,-2.1743,-2.0285,-1.9983,-1.9887,-2.0233,-2.0885,-2.1285,-2.1988,-2.2835,-2.3085,-2.3085,-2.3135,-2.3511,-2.3791,-2.4391,-2.5317,-2.6313,-2.7088,-2.796,-2.8237,-2.8301,-2.8301,-2.8301,-2.8237,-2.7853,-2.7682,-2.7628,-2.8067,-2.8067,-2.752,-2.5891,-2.4347,-2.3191,-2.1987,-2.1375,-2.1211,-2.1211,-2.1089,-2.078,-2.0608,-2.0436,-2.0155,-1.9873,-1.9764,-1.9649,-1.954,-1.9482,-1.9424,-1.9424,-1.9424,-1.9212,-1.9018,-1.8804,-1.8604,-1.8223,-1.7836,-1.7742,-1.7622,-1.7595,-1.7589,-1.7589,-1.7589,-1.7589,-1.7589,-1.7589,-1.7589,-1.7589,-1.7589,-2.0589,-2.0264,-2.0735,-2.135,-2.1835,-2.1962,-2.2376,-2.2644,-2.2846,-2.2846,-2.2745,-2.2795,-2.2745,-2.2795,-2.3138,-2.3279,-2.3429,-2.3836,-2.4273,-2.4627,-2.4726,-2.4981,-2.543,-2.5625,-2.5625,-2.5479,-2.5635,-2.5684,-2.5684,-2.5684,-2.5684,-2.5684,-2.5684,-2.5684,-2.5684,-2.5684,-2.5713,-2.5781,-2.5762,-2.5771,-2.582,-2.5762,-2.5752,-2.5762,-2.4843,-2.4344,-2.4146,-2.3094,-2.1988,-2.114,-2.0979,-2.1081,-2.1336,-2.2038,-2.3085,-2.4097,-2.4196,-2.4196,-2.4402,-2.4949,-2.5507,-2.5535,-2.637,-2.7393,-2.8028,-2.8184,-2.8301,-2.8301,-2.8301,-2.8237,-2.796,-2.7295,-2.669,-2.6518,-2.7124,-2.7187,-2.6354,-2.5177,-2.3966,-2.2918,-2.1873,-2.1211,-2.1211,-2.1211,-2.1024,-2.073,-2.0436,-2.0213,-1.9873,-1.9649,-1.9482,-1.9424,-1.943,-1.9424,-1.9424,-1.9424,-1.9424,-1.9272,-1.9045,-1.8804,-1.8544,-1.815,-1.7842,-1.7695,-1.7622,-1.7595,-1.7589,-1.7589,-1.7589,-1.7589,-1.7589,-1.7589,-1.7589,-1.7589,-1.7589,-2.0468,-2.1097,-2.1543,-2.2059,-2.2696,-2.3562,-2.372,-2.3546,-2.4007,-2.3818,-2.3529,-2.3438,-2.3429,-2.3429,-2.3529,-2.3578,-2.3728,-2.4183,-2.443,-2.4529,-2.439,-2.452,-2.4913,-2.543,-2.5284,-2.4775,-2.542,-2.5684,-2.5684,-2.5752,-2.5732,-2.5684,-2.5752,-2.5723,-2.5684,-2.5732,-2.5918,-2.6172,-2.6221,-2.6377,-2.6553,-2.6328,-2.6221,-2.6132,-2.5604,-2.5264,-2.5177,-2.4254,-2.3185,-2.219,-2.2089,-2.2484,-2.2994,-2.3434,-2.4048,-2.4864,-2.5216,-2.5216,-2.5381,-2.5819,-2.6305,-2.6586,-2.713,-2.7725,-2.8223,-2.8301,-2.8301,-2.8301,-2.8291,-2.7906,-2.7187,-2.6636,-2.6082,-2.5342,-2.5452,-2.5241,-2.43,-2.364,-2.2974,-2.1873,-2.1432,-2.1261,-2.1211,-2.1211,-2.0974,-2.0558,-2.0328,-2.0104,-1.9707,-1.9533,-1.9424,-1.9424,-1.9424,-1.9424,-1.9424,-1.9424,-1.941,-1.9312,-1.9092,-1.8778,-1.8444,-1.8029,-1.7782,-1.7595,-1.7602,-1.7589,-1.7589,-1.7589,-1.7589,-1.7589,-1.7589,-1.7589,-1.7589,-1.7589,-1.7595,-2.0415,-2.1009,-2.2058,-2.2586,-2.2936,-2.3961,-2.434,-2.427,-2.4313,-2.4353,-2.4214,-2.4214,-2.4214,-2.4214,-2.4412,-2.4322,-2.4134,-2.4569,-2.4627,-2.4282,-2.4183,-2.4066,-2.4205,-2.4726,-2.4801,-2.4612,-2.5494,-2.6024,-2.621,-2.622,-2.622,-2.6259,-2.622,-2.6269,-2.6309,-2.6239,-2.6377,-2.6611,-2.665,-2.6787,-2.6963,-2.6602,-2.6416,-2.6348,-2.6133,-2.6064,-2.6082,-2.5653,-2.4748,-2.3619,-2.2948,-2.2785,-2.3393,-2.389,-2.4393,-2.5011,-2.5421,-2.5684,-2.581,-2.6231,-2.6753,-2.7176,-2.7671,-2.8157,-2.8396,-2.8451,-2.8461,-2.8291,-2.8291,-2.7682,-2.6626,-2.5689,-2.4531,-2.3416,-2.3239,-2.3191,-2.2918,-2.3095,-2.2425,-2.1596,-2.1211,-2.1211,-2.1211,-2.1211,-2.0917,-2.05,-2.0328,-1.9931,-1.954,-1.9482,-1.9424,-1.9424,-1.9424,-1.9424,-1.9424,-1.9424,-1.935,-1.9252,-1.8918,-1.8637,-1.8297,-1.7903,-1.7742,-1.7589,-1.7589,-1.7589,-1.7589,-1.7589,-1.7589,-1.7589,-1.7589,-1.7589,-1.7589,-1.7635,-1.7635,-2.055,-2.058,-2.2554,-2.3151,-2.3014,-2.3881,-2.4496,-2.4548,-2.4016,-2.3958,-2.4295,-2.459,-2.4402,-2.4737,-2.4756,-2.4962,-2.4381,-2.4658,-2.4559,-2.4125,-2.3786,-2.3546,-2.3604,-2.4303,-2.45,-2.4647,-2.5777,-2.652,-2.6797,-2.6924,-2.6973,-2.6885,-2.6914,-2.6973,-2.6855,-2.6924,-2.7021,-2.706,-2.708,-2.7168,-2.7197,-2.6904,-2.6709,-2.667,-2.6523,-2.667,-2.6904,-2.681,-2.6289,-2.515,-2.3705,-2.3232,-2.3188,-2.389,-2.4295,-2.4587,-2.5351,-2.581,-2.5908,-2.6567,-2.7092,-2.7518,-2.8131,-2.8595,-2.8691,-2.8727,-2.8568,-2.8398,-2.8344,-2.7574,-2.6182,-2.4364,-2.2926,-2.193,-2.1432,-2.1824,-2.2482,-2.2813,-2.2377,-2.1432,-2.1211,-2.1211,-2.1203,-2.1146,-2.0917,-2.0392,-2.0213,-1.9873,-1.954,-1.9424,-1.9424,-1.9424,-1.9424,-1.9424,-1.9424,-1.9424,-1.9259,-1.9138,-1.8691,-1.835,-1.807,-1.7776,-1.7669,-1.7589,-1.7589,-1.7589,-1.7589,-1.7589,-1.7589,-1.7589,-1.7589,-1.7589,-1.7595,-1.7682,-1.7716,-2.1146,-2.2073,-2.3956,-2.4367,-2.413,-2.5363,-2.5245,-2.3949,-2.3543,-2.3203,-2.2944,-2.3211,-2.342,-2.3461,-2.4066,-2.4026,-2.3935,-2.4026,-2.3926,-2.3719,-2.2627,-2.2858,-2.3498,-2.4624,-2.4597,-2.4455,-2.5907,-2.6883,-2.7041,-2.7109,-2.7021,-2.706,-2.7139,-2.7031,-2.707,-2.7139,-2.7207,-2.7451,-2.7529,-2.7685,-2.7822,-2.7539,-2.7366,-2.7346,-2.7041,-2.7109,-2.7353,-2.7197,-2.7036,-2.6821,-2.6123,-2.5189,-2.4996,-2.5117,-2.5273,-2.5399,-2.5837,-2.625,-2.6417,-2.7128,-2.7837,-2.7936,-2.8513,-2.8989,-2.8996,-2.8781,-2.8674,-2.8568,-2.8398,-2.7403,-2.5562,-2.3911,-2.2595,-2.1653,-2.1268,-2.1325,-2.1546,-2.166,-2.1539,-2.1318,-2.1211,-2.1211,-2.1211,-2.0967,-2.0737,-2.0335,-2.0046,-1.9758,-1.9591,-1.9424,-1.9424,-1.9424,-1.9424,-1.9424,-1.9424,-1.9397,-1.9219,-1.9045,-1.8611,-1.8223,-1.7943,-1.7709,-1.7615,-1.7589,-1.7589,-1.7589,-1.7589,-1.7589,-1.7589,-1.7589,-1.7595,-1.7622,-1.7662,-1.7736,-1.7869,-2.1896,-2.2123,-2.4542,-2.4675,-2.3618,-2.473,-2.4666,-2.3564,-2.2935,-2.2885,-2.3085,-2.3352,-2.361,-2.3868,-2.4106,-2.4125,-2.3628,-2.3338,-2.3388,-2.3479,-2.2937,-2.2876,-2.3426,-2.4889,-2.5386,-2.4567,-2.6281,-2.7289,-2.7559,-2.7588,-2.7656,-2.7607,-2.7598,-2.7676,-2.7617,-2.7598,-2.7744,-2.791,-2.7959,-2.8086,-2.8193,-2.7891,-2.7728,-2.7708,-2.7461,-2.7519,-2.7933,-2.7764,-2.7646,-2.7601,-2.7268,-2.668,-2.6172,-2.5996,-2.6035,-2.6113,-2.6435,-2.666,-2.6916,-2.7493,-2.8085,-2.8125,-2.8723,-2.8913,-2.893,-2.8781,-2.8621,-2.8514,-2.8237,-2.7511,-2.568,-2.3863,-2.2765,-2.215,-2.1489,-2.1268,-2.1211,-2.1211,-2.1211,-2.1211,-2.1211,-2.1211,-2.1146,-2.091,-2.0673,-2.0392,-2.022,-1.9931,-1.9533,-1.9424,-1.9424,-1.9424,-1.9424,-1.9424,-1.9424,-1.9363,-1.9178,-1.8958,-1.8631,-1.829,-1.7949,-1.7789,-1.7595,-1.7589,-1.7589,-1.7589,-1.7589,-1.7589,-1.7589,-1.7589,-1.7609,-1.7662,-1.7789,-1.7976,-1.811,-2.233,-2.1551,-2.449,-2.4316,-2.2503,-2.3246,-2.3379,-2.282,-2.2038,-2.2089,-2.3285,-2.3552,-2.3452,-2.4196,-2.4304,-2.4057,-2.3529,-2.3046,-2.3005,-2.3521,-2.3228,-2.3262,-2.3774,-2.5099,-2.6039,-2.5701,-2.7041,-2.7887,-2.8144,-2.8291,-2.8125,-2.8242,-2.8262,-2.8154,-2.8232,-2.8271,-2.8213,-2.8223,-2.8223,-2.8242,-2.8262,-2.7969,-2.7832,-2.7803,-2.7793,-2.79,-2.8164,-2.8174,-2.8105,-2.7783,-2.7748,-2.7327,-2.6807,-2.6494,-2.6484,-2.6504,-2.6875,-2.708,-2.7249,-2.7769,-2.8254,-2.8224,-2.8743,-2.8953,-2.8877,-2.8727,-2.8621,-2.8451,-2.8237,-2.7628,-2.63,-2.4633,-2.3303,-2.2531,-2.1653,-2.1318,-2.1211,-2.1211,-2.1211,-2.1211,-2.1211,-2.1211,-2.1146,-2.0974,-2.068,-2.045,-2.0277,-2.0053,-1.9655,-1.9424,-1.9424,-1.9424,-1.9424,-1.9424,-1.9424,-1.9212,-1.9092,-1.8965,-1.8664,-1.837,-1.8042,-1.7869,-1.7749,-1.7609,-1.7589,-1.7589,-1.7589,-1.7589,-1.7589,-1.7589,-1.7602,-1.7635,-1.7883,-1.8217,-1.8297,-2.1722,-2.2021,-2.3025,-2.2784,-2.1993,-2.2236,-2.1979,-2.1173,-2.0359,-2.0181,-2.0917,-2.1326,-2.2029,-2.2409,-2.2837,-2.2887,-2.2813,-2.2536,-2.2766,-2.3159,-2.304,-2.3245,-2.4518,-2.541,-2.6067,-2.6999,-2.7834,-2.8203,-2.8271,-2.8301,-2.8301,-2.8301,-2.8301,-2.8301,-2.8301,-2.8301,-2.8301,-2.8301,-2.8301,-2.8301,-2.8262,-2.8203,-2.8125,-2.8125,-2.8105,-2.8184,-2.8242,-2.8301,-2.8262,-2.8164,-2.7851,-2.7617,-2.7393,-2.7119,-2.6973,-2.7002,-2.7314,-2.7549,-2.766,-2.8183,-2.8526,-2.8701,-2.889,-2.9016,-2.893,-2.8781,-2.8568,-2.8408,-2.8121,-2.7403,-2.5223,-2.4403,-2.3416,-2.2207,-2.1432,-2.1211,-2.1211,-2.1211,-2.1211,-2.1211,-2.1211,-2.1211,-2.1089,-2.0974,-2.0615,-2.027,-2.0046,-1.988,-1.954,-1.9424,-1.9424,-1.9424,-1.9424,-1.9424,-1.9424,-1.9158,-1.8998,-1.8978,-1.8744,-1.845,-1.8162,-1.8022,-1.7869,-1.7695,-1.7589,-1.7589,-1.7589,-1.7589,-1.7589,-1.7589,-1.7595,-1.7609,-1.7876,-1.8143,-1.8195,-2.232,-2.2597,-2.3105,-2.2347,-2.1217,-2.1615,-2.1267,-2.0405,-2.0398,-2.0655,-2.1147,-2.1667,-2.2251,-2.2669,-2.2749,-2.2647,-2.2223,-2.2016,-2.2157,-2.2374,-2.3132,-2.3631,-2.4808,-2.5718,-2.65,-2.7191,-2.7799,-2.8301,-2.8301,-2.8301,-2.8301,-2.8301,-2.8301,-2.8301,-2.8301,-2.8301,-2.8301,-2.8301,-2.8301,-2.8301,-2.8301,-2.8301,-2.8301,-2.8301,-2.8301,-2.8301,-2.8301,-2.8301,-2.8301,-2.8252,-2.8096,-2.807,-2.792,-2.7793,-2.7559,-2.7471,-2.7734,-2.7988,-2.7988,-2.8373,-2.8432,-2.8504,-2.8664,-2.8664,-2.8654,-2.8504,-2.8184,-2.7682,-2.7466,-2.6681,-2.4893,-2.4236,-2.3247,-2.2369,-2.1596,-2.1268,-2.1211,-2.1211,-2.1211,-2.1211,-2.1211,-2.1153,-2.1146,-2.091,-2.0558,-2.0213,-1.9873,-1.9649,-1.9424,-1.9424,-1.9424,-1.9424,-1.9424,-1.9424,-1.9424,-1.9232,-1.9078,-1.9025,-1.8898,-1.8604,-1.8282,-1.8142,-1.7929,-1.7649,-1.7655,-1.7589,-1.7589,-1.7589,-1.7589,-1.7589,-1.7589,-1.7649,-1.7849,-1.8036,-1.8115,-2.2652,-2.2645,-2.2936,-2.1983,-2.0604,-2.122,-2.1013,-2.04,-2.1174,-2.1671,-2.2041,-2.2424,-2.2843,-2.3129,-2.2894,-2.2393,-2.1715,-2.1614,-2.1759,-2.2327,-2.3455,-2.4091,-2.4906,-2.6015,-2.7385,-2.7356,-2.7799,-2.8291,-2.8301,-2.8301,-2.8301,-2.8301,-2.8301,-2.8301,-2.8301,-2.8301,-2.8301,-2.8301,-2.8301,-2.8301,-2.8301,-2.8301,-2.8301,-2.8301,-2.8301,-2.8301,-2.8301,-2.8301,-2.8301,-2.8301,-2.8271,-2.8271,-2.8291,-2.8291,-2.8135,-2.792,-2.8125,-2.8252,-2.8291,-2.8281,-2.8344,-2.8354,-2.8301,-2.8184,-2.7897,-2.7736,-2.752,-2.669,-2.6518,-2.5908,-2.4458,-2.3575,-2.2918,-2.2369,-2.171,-2.1211,-2.1211,-2.1211,-2.1211,-2.1211,-2.1153,-2.1089,-2.0967,-2.063,-2.0213,-2.0046,-1.9707,-1.9591,-1.9424,-1.9424,-1.9424,-1.9424,-1.9424,-1.9424,-1.9424,-1.9424,-1.9265,-1.9232,-1.9105,-1.8878,-1.8577,-1.8255,-1.8003,-1.7695,-1.7595,-1.7589,-1.7589,-1.7589,-1.7589,-1.7589,-1.7589,-1.7642,-1.7762,-1.7989,-1.8135,-2.1375,-2.1402,-2.1193,-2.0885,-2.07,-2.1039,-2.1133,-2.1025,-2.1625,-2.1971,-2.2045,-2.2097,-2.2245,-2.2204,-2.2188,-2.1993,-2.1846,-2.1779,-2.2075,-2.273,-2.3465,-2.4616,-2.5828,-2.6291,-2.746,-2.7736,-2.8121,-2.8291,-2.8301,-2.8301,-2.8301,-2.8301,-2.8301,-2.8301,-2.8301,-2.8301,-2.8301,-2.8301,-2.8301,-2.8301,-2.8301,-2.8301,-2.8301,-2.8301,-2.8301,-2.8301,-2.8301,-2.8301,-2.8301,-2.8301,-2.8301,-2.8301,-2.8301,-2.8301,-2.8291,-2.8242,-2.8271,-2.8301,-2.8301,-2.8301,-2.8301,-2.8301,-2.8301,-2.7736,-2.7241,-2.6907,-2.6744,-2.6581,-2.6354,-2.5305,-2.364,-2.3087,-2.2425,-2.193,-2.1432,-2.1211,-2.1211,-2.1211,-2.1211,-2.1089,-2.1031,-2.0845,-2.0716,-2.027,-1.9873,-1.9764,-1.9649,-1.954,-1.943,-1.9424,-1.9424,-1.9424,-1.9424,-1.9424,-1.9424,-1.9424,-1.9424,-1.9424,-1.9252,-1.9072,-1.8691,-1.8343,-1.8083,-1.7829,-1.7695,-1.7589,-1.7589,-1.7589,-1.7589,-1.7589,-1.7589,-1.7589,-1.7602,-1.7869,-1.8122,-2.1596,-2.2119,-2.1126,-2.0664,-2.0732,-2.0973,-2.0997,-2.1086,-2.1814,-2.2151,-2.2142,-2.2451,-2.2403,-2.2127,-2.1877,-2.1604,-2.1457,-2.1307,-2.1822,-2.3039,-2.3783,-2.4957,-2.63,-2.7187,-2.796,-2.8077,-2.8301,-2.8291,-2.8301,-2.8301,-2.8301,-2.8301,-2.8301,-2.8301,-2.8301,-2.8301,-2.8301,-2.8301,-2.8301,-2.8301,-2.8301,-2.8301,-2.8301,-2.8301,-2.8301,-2.8301,-2.8301,-2.8301,-2.8301,-2.8301,-2.8301,-2.8301,-2.8301,-2.8301,-2.8291,-2.8291,-2.8291,-2.8301,-2.8301,-2.8301,-2.8301,-2.8291,-2.8184,-2.7736,-2.6853,-2.6409,-2.5744,-2.4531,-2.4531,-2.3704,-2.2482,-2.2044,-2.1702,-2.1375,-2.1211,-2.1211,-2.1211,-2.1211,-2.1211,-2.1089,-2.091,-2.0723,-2.0486,-2.0155,-1.9815,-1.9707,-1.9591,-1.9482,-1.9424,-1.9424,-1.9424,-1.9424,-1.9424,-1.9424,-1.9424,-1.9424,-1.9424,-1.9424,-1.9403,-1.9105,-1.8698,-1.8364,-1.809,-1.7849,-1.7655,-1.7589,-1.7589,-1.7589,-1.7589,-1.7589,-1.7589,-1.7589,-1.7609,-1.7822,-1.8055,-2.1767,-2.2402,-2.1271,-2.0845,-2.0879,-2.1184,-2.1229,-2.1216,-2.2117,-2.2369,-2.2225,-2.2361,-2.2327,-2.2108,-2.1656,-2.1342,-2.1131,-2.0903,-2.1792,-2.3005,-2.4226,-2.5526,-2.6844,-2.7906,-2.8237,-2.8301,-2.8301,-2.8301,-2.8301,-2.8301,-2.8301,-2.8301,-2.8301,-2.8301,-2.8301,-2.8301,-2.8301,-2.8301,-2.8301,-2.8301,-2.8301,-2.8301,-2.8301,-2.8301,-2.8301,-2.8301,-2.8301,-2.8301,-2.8301,-2.8301,-2.8301,-2.8301,-2.8301,-2.8301,-2.8301,-2.8301,-2.8301,-2.8301,-2.8301,-2.8301,-2.8301,-2.8184,-2.7853,-2.7295,-2.669,-2.63,-2.536,-2.3424,-2.3311,-2.2595,-2.1603,-2.1268,-2.1261,-2.1261,-2.1211,-2.1211,-2.1211,-2.1211,-2.1211,-2.1089,-2.091,-2.0615,-2.0378,-2.004,-1.9815,-1.9707,-1.9591,-1.9424,-1.9424,-1.9424,-1.9424,-1.9424,-1.9424,-1.9424,-1.9424,-1.9424,-1.9424,-1.939,-1.9377,-1.9156,-1.8657,-1.8337,-1.807,-1.7842,-1.7615,-1.7589,-1.7589,-1.7589,-1.7589,-1.7589,-1.7589,-1.7589,-1.7655,-1.7842,-1.7949,-2.1268,-2.1318,-2.1238,-2.1159,-2.1152,-2.1779,-2.1983,-2.1862,-2.2556,-2.2515,-2.1995,-2.1653,-2.1467,-2.1316,-2.1343,-2.1272,-2.1222,-2.1159,-2.2445,-2.3764,-2.482,-2.6,-2.734,-2.813,-2.8301,-2.8301,-2.8301,-2.8301,-2.8301,-2.8301,-2.8301,-2.8301,-2.8301,-2.8301,-2.8301,-2.8301,-2.8301,-2.8301,-2.8301,-2.8301,-2.8301,-2.8301,-2.8301,-2.8301,-2.8301,-2.8301,-2.8301,-2.8301,-2.8301,-2.8301,-2.8301,-2.8301,-2.8301,-2.8301,-2.8301,-2.8301,-2.8301,-2.8301,-2.8301,-2.8301,-2.8301,-2.796,-2.752,-2.6971,-2.6527,-2.5397,-2.4292,-2.3199,-2.2813,-2.2263,-2.1603,-2.1211,-2.1211,-2.1211,-2.1211,-2.1211,-2.1211,-2.1211,-2.1211,-2.1146,-2.0974,-2.073,-2.0436,-2.0155,-1.9758,-1.9591,-1.9533,-1.9424,-1.9424,-1.9424,-1.9424,-1.9424,-1.9424,-1.9424,-1.9424,-1.9424,-1.9424,-1.9279,-1.9205,-1.8938,-1.8577,-1.8297,-1.8036,-1.7796,-1.7589,-1.7589,-1.7589,-1.7589,-1.7589,-1.7589,-1.7589,-1.7589,-1.7589,-1.7689,-1.7716,-2.1211,-2.1211,-2.1211,-2.1211,-2.1211,-2.1432,-2.1546,-2.1546,-2.1774,-2.1774,-2.1554,-2.1325,-2.1211,-2.1211,-2.1211,-2.1211,-2.1211,-2.1211,-2.2749,-2.4005,-2.4939,-2.6173,-2.7511,-2.8301,-2.8301,-2.8301,-2.8301,-2.8301,-2.8301,-2.8301,-2.8301,-2.8301,-2.8301,-2.8301,-2.8301,-2.8301,-2.8301,-2.8301,-2.8301,-2.8301,-2.8301,-2.8301,-2.8301,-2.8301,-2.8301,-2.8301,-2.8301,-2.8301,-2.8301,-2.8301,-2.8301,-2.8301,-2.8301,-2.8301,-2.8301,-2.8301,-2.8301,-2.8301,-2.8301,-2.8301,-2.8301,-2.8237,-2.7853,-2.7295,-2.6581,-2.5397,-2.4236,-2.3255,-2.2377,-2.1816,-2.1432,-2.1211,-2.1211,-2.1211,-2.1211,-2.1211,-2.1211,-2.1211,-2.1211,-2.1153,-2.1089,-2.091,-2.0615,-2.0321,-1.9873,-1.9533,-1.9482,-1.9424,-1.9424,-1.9403,-1.9397,-1.9397,-1.939,-1.9377,-1.937,-1.939,-1.941,-1.9219,-1.9078,-1.8758,-1.8437,-1.8243,-1.7935,-1.7749,-1.7589,-1.7589,-1.7589,-1.7589,-1.7589,-1.7589,-1.7589,-1.7589,-1.7589,-1.7589,-1.7589,-2.1211,-2.1211,-2.1211,-2.1211,-2.1211,-2.1211,-2.1211,-2.1211,-2.1268,-2.1211,-2.1211,-2.1211,-2.1211,-2.1211,-2.1211,-2.1546,-2.171,-2.2036,-2.3359,-2.4514,-2.5562,-2.6509,-2.7682,-2.8301,-2.8301,-2.8301,-2.8301,-2.8301,-2.8301,-2.8301,-2.8301,-2.8301,-2.8301,-2.8301,-2.8301,-2.8301,-2.8301,-2.8301,-2.8301,-2.8301,-2.8301,-2.8301,-2.8301,-2.8301,-2.8301,-2.8301,-2.8301,-2.8301,-2.8301,-2.8301,-2.8301,-2.8301,-2.8301,-2.8301,-2.8301,-2.8301,-2.8301,-2.8301,-2.8301,-2.8301,-2.8301,-2.8237,-2.8237,-2.7574,-2.6626,-2.568,-2.4855,-2.3143,-2.2263,-2.1596,-2.1375,-2.1211,-2.1211,-2.1211,-2.1211,-2.1211,-2.1211,-2.1211,-2.1211,-2.1211,-2.1089,-2.1031,-2.0615,-2.0263,-1.9873,-1.9533,-1.9424,-1.9424,-1.9424,-1.9397,-1.9285,-1.9285,-1.9292,-1.9265,-1.9245,-1.9192,-1.9118,-1.9011,-1.8838,-1.8564,-1.829,-1.8042,-1.7923,-1.7695,-1.7589,-1.7589,-1.7589,-1.7589,-1.7589,-1.7589,-1.7589,-1.7589,-1.7589,-1.7589,-1.7589,-2.1211,-2.1211,-2.1211,-2.1211,-2.1318,-2.1211,-2.1211,-2.1211,-2.1211,-2.1261,-2.1375,-2.1375,-2.1375,-2.1375,-2.1489,-2.2036,-2.2757,-2.2926,-2.403,-2.5689,-2.6127,-2.7133,-2.7853,-2.8301,-2.8301,-2.8301,-2.8301,-2.8301,-2.8301,-2.8301,-2.8301,-2.8301,-2.8301,-2.8301,-2.8301,-2.8301,-2.8301,-2.8301,-2.8301,-2.8301,-2.8301,-2.8301,-2.8301,-2.8301,-2.8301,-2.8301,-2.8301,-2.8301,-2.8301,-2.8301,-2.8301,-2.8301,-2.8301,-2.8301,-2.8301,-2.8301,-2.8301,-2.8301,-2.8301,-2.8301,-2.8301,-2.8301,-2.8291,-2.7799,-2.6907,-2.6182,-2.5406,-2.3528,-2.27,-2.2093,-2.1653,-2.1211,-2.1211,-2.1211,-2.1211,-2.1211,-2.1211,-2.1211,-2.1211,-2.1211,-2.1153,-2.1096,-2.0615,-2.0213,-1.9815,-1.9533,-1.9424,-1.9424,-1.9424,-1.939,-1.9279,-1.9172,-1.9158,-1.9058,-1.9005,-1.8958,-1.8885,-1.8721,-1.8555,-1.8295,-1.811,-1.7896,-1.7736,-1.7602,-1.7589,-1.7589,-1.7589,-1.7589,-1.7589,-1.7589,-1.7589,-1.7589,-1.7589,-1.7602,-1.7615,-2.1211,-2.1211,-2.1211,-2.1653,-2.2207,-2.1546,-2.1211,-2.1211,-2.1268,-2.1653,-2.232,-2.2369,-2.2369,-2.2369,-2.2369,-2.2862,-2.3855,-2.3199,-2.4253,-2.6309,-2.6581,-2.7241,-2.796,-2.8301,-2.8301,-2.8301,-2.8301,-2.8301,-2.8301,-2.8301,-2.8301,-2.8301,-2.8301,-2.8301,-2.8301,-2.8301,-2.8301,-2.8301,-2.8301,-2.8301,-2.8301,-2.8301,-2.8301,-2.8301,-2.8301,-2.8301,-2.8301,-2.8301,-2.8301,-2.8301,-2.8301,-2.8301,-2.8301,-2.8301,-2.8301,-2.8301,-2.8301,-2.8301,-2.8301,-2.8301,-2.8301,-2.8301,-2.8237,-2.8077,-2.7682,-2.6009,-2.5012,-2.3958,-2.2757,-2.2036,-2.1261,-2.1211,-2.1211,-2.1211,-2.1211,-2.1211,-2.1211,-2.1211,-2.1211,-2.1211,-2.1211,-2.0917,-2.05,-2.027,-1.9931,-1.9533,-1.9424,-1.9424,-1.9424,-1.939,-1.9279,-1.9078,-1.8971,-1.8851,-1.8764,-1.8744,-1.8718,-1.8637,-1.8437,-1.8115,-1.7936,-1.7736,-1.7662,-1.7589,-1.7589,-1.7589,-1.7589,-1.7589,-1.7589,-1.7589,-1.7589,-1.7589,-1.7589,-1.7629,-1.7689,-2.1211,-2.1211,-2.1211,-2.1873,-2.2757,-2.215,-2.1979,-2.2369,-2.2418,-2.2862,-2.3416,-2.3199,-2.3255,-2.3247,-2.2862,-2.3807,-2.4956,-2.4181,-2.4918,-2.6862,-2.7133,-2.7682,-2.8121,-2.8301,-2.8301,-2.8301,-2.8301,-2.8301,-2.8301,-2.8301,-2.8301,-2.8301,-2.8301,-2.8301,-2.8301,-2.8301,-2.8301,-2.8301,-2.8301,-2.8301,-2.8301,-2.8301,-2.8301,-2.8301,-2.8301,-2.8301,-2.8301,-2.8301,-2.8301,-2.8301,-2.8301,-2.8301,-2.8301,-2.8301,-2.8301,-2.8301,-2.8301,-2.8301,-2.8301,-2.8301,-2.8301,-2.8301,-2.8291,-2.8301,-2.8014,-2.6563,-2.5452,-2.4292,-2.2749,-2.1873,-2.1261,-2.1261,-2.1211,-2.1211,-2.1211,-2.1211,-2.1211,-2.1211,-2.1211,-2.1211,-2.1153,-2.0795,-2.0443,-2.0277,-2.0046,-1.9707,-1.9424,-1.9424,-1.9424,-1.9397,-1.9232,-1.8985,-1.8858,-1.8778,-1.8671,-1.8577,-1.8537,-1.849,-1.8303,-1.8035,-1.7842,-1.7655,-1.7615,-1.7589,-1.7589,-1.7589,-1.7589,-1.7589,-1.7602,-1.7602,-1.7589,-1.7589,-1.7589,-1.7655,-1.7736,-2.1211,-2.1211,-2.1211,-2.1979,-2.2982,-2.3311,-2.3855,-2.4663,-2.4616,-2.4616,-2.4663,-2.3751,-2.3975,-2.4236,-2.2587,-2.3648,-2.5808,-2.5232,-2.6291,-2.752,-2.7906,-2.8237,-2.8237,-2.8301,-2.8301,-2.8301,-2.8301,-2.8301,-2.8301,-2.8301,-2.8301,-2.8301,-2.8301,-2.8301,-2.8301,-2.8301,-2.8301,-2.8301,-2.8301,-2.8301,-2.8301,-2.8301,-2.8301,-2.8301,-2.8301,-2.8301,-2.8301,-2.8301,-2.8301,-2.8301,-2.8301,-2.8301,-2.8301,-2.8301,-2.8301,-2.8301,-2.8301,-2.8237,-2.8014,-2.796,-2.7736,-2.7565,-2.7726,-2.8014,-2.7628,-2.64,-2.5067,-2.4189,-2.2918,-2.2093,-2.1432,-2.1318,-2.1211,-2.1211,-2.1211,-2.1211,-2.1211,-2.1211,-2.1211,-2.1211,-2.1211,-2.0974,-2.0558,-2.027,-2.0104,-1.9764,-1.9482,-1.9424,-1.9424,-1.9424,-1.9199,-1.8831,-1.8731,-1.8731,-1.8617,-1.847,-1.8364,-1.8317,-1.8297,-1.811,-1.7849,-1.7655,-1.7662,-1.7649,-1.7602,-1.7589,-1.7589,-1.7609,-1.7642,-1.7642,-1.7689,-1.7749,-1.7802,-1.7736,-1.7809,-2.1211,-2.1261,-2.2093,-2.3135,-2.4403,-2.6018,-2.6518,-2.5963,-2.5113,-2.5122,-2.5963,-2.5634,-2.5525,-2.5854,-2.5305,-2.6127,-2.6626,-2.6907,-2.7133,-2.7799,-2.8301,-2.8301,-2.8301,-2.8301,-2.8301,-2.8301,-2.8301,-2.8301,-2.8301,-2.8301,-2.8301,-2.8301,-2.8301,-2.8301,-2.8301,-2.8301,-2.8301,-2.8301,-2.8301,-2.8301,-2.8301,-2.8301,-2.8301,-2.8301,-2.8301,-2.8301,-2.8301,-2.8301,-2.8301,-2.8301,-2.8301,-2.8301,-2.8301,-2.8301,-2.8301,-2.8301,-2.8184,-2.8014,-2.7241,-2.7015,-2.6789,-2.6173,-2.5891,-2.6345,-2.6127,-2.5415,-2.4078,-2.3528,-2.27,-2.171,-2.1318,-2.1261,-2.1211,-2.1211,-2.1211,-2.1211,-2.1211,-2.1211,-2.1211,-2.1211,-2.1211,-2.0974,-2.0558,-2.0328,-2.0162,-1.9758,-1.9533,-1.9482,-1.9424,-1.9424,-1.9269,-1.8838,-1.8637,-1.8644,-1.851,-1.8357,-1.8237,-1.8143,-1.823,-1.8203,-1.7909,-1.7762,-1.7749,-1.7742,-1.7749,-1.7675,-1.7589,-1.7675,-1.7876,-1.7856,-1.7896,-1.7963,-1.8003,-1.7969,-1.8023,-2.1211,-2.1375,-2.2482,-2.3911,-2.5571,-2.7457,-2.7853,-2.7124,-2.6391,-2.6617,-2.7124,-2.6636,-2.6744,-2.6961,-2.6236,-2.6454,-2.8014,-2.7015,-2.7133,-2.8023,-2.8301,-2.8301,-2.8301,-2.8301,-2.8301,-2.8301,-2.8301,-2.8301,-2.8301,-2.8301,-2.8301,-2.8301,-2.8301,-2.8301,-2.8301,-2.8301,-2.8301,-2.8301,-2.8301,-2.8301,-2.8301,-2.8301,-2.8301,-2.8301,-2.8301,-2.8301,-2.8301,-2.8301,-2.8301,-2.8301,-2.8301,-2.8301,-2.813,-2.7906,-2.7124,-2.6952,-2.6672,-2.6336,-2.5899,-2.579,-2.5333,-2.4782,-2.4283,-2.4403,-2.4467,-2.3975,-2.3424,-2.2982,-2.1987,-2.1211,-2.1211,-2.1211,-2.1211,-2.1211,-2.1211,-2.1211,-2.1211,-2.1211,-2.1211,-2.1211,-2.1089,-2.091,-2.068,-2.0443,-2.0104,-1.9707,-1.9482,-1.9424,-1.9424,-1.9424,-1.9205,-1.8918,-1.8698,-1.8557,-1.8437,-1.841,-1.8384,-1.8417,-1.8571,-1.8457,-1.8076,-1.7903,-1.7916,-1.7923,-1.7929,-1.7903,-1.7916,-1.805,-1.8203,-1.8163,-1.817,-1.829,-1.8337,-1.8303,-1.841,-2.1268,-2.1482,-2.2757,-2.4697,-2.6636,-2.7853,-2.8237,-2.8301,-2.8067,-2.8237,-2.8023,-2.7133,-2.7295,-2.7628,-2.6617,-2.678,-2.7682,-2.7359,-2.7349,-2.8291,-2.8301,-2.8301,-2.8301,-2.8301,-2.8301,-2.8301,-2.8301,-2.8301,-2.8301,-2.8301,-2.8301,-2.8301,-2.8301,-2.8301,-2.8301,-2.8301,-2.8301,-2.8301,-2.8301,-2.8301,-2.8301,-2.8301,-2.8301,-2.8301,-2.8301,-2.8301,-2.8301,-2.8301,-2.8301,-2.8301,-2.813,-2.8077,-2.7403,-2.6898,-2.5845,-2.5397,-2.5278,-2.4948,-2.4735,-2.4569,-2.4394,-2.3902,-2.3463,-2.3079,-2.2869,-2.2813,-2.2539,-2.2377,-2.1546,-2.1268,-2.1211,-2.1211,-2.1211,-2.1211,-2.1211,-2.1211,-2.1211,-2.1211,-2.1211,-2.1146,-2.1024,-2.0852,-2.0615,-2.0378,-2.0046,-1.9597,-1.943,-1.9424,-1.9424,-1.9424,-1.9245,-1.9018,-1.8831,-1.8684,-1.8704,-1.8677,-1.8657,-1.8724,-1.8851,-1.8711,-1.8337,-1.8183,-1.8035,-1.813,-1.8176,-1.831,-1.8384,-1.8464,-1.847,-1.8424,-1.847,-1.8637,-1.8671,-1.8611,-1.8744,-2.1767,-2.2749,-2.4808,-2.6527,-2.7789,-2.8184,-2.8301,-2.8301,-2.8301,-2.8301,-2.8237,-2.8014,-2.796,-2.796,-2.7565,-2.7736,-2.7906,-2.7906,-2.8067,-2.8237,-2.8301,-2.8301,-2.8301,-2.8301,-2.8301,-2.8301,-2.8301,-2.8301,-2.8301,-2.8301,-2.8301,-2.8301,-2.8301,-2.8301,-2.8301,-2.8301,-2.8301,-2.8301,-2.8301,-2.8301,-2.8301,-2.8301,-2.8301,-2.8301,-2.8301,-2.8301,-2.8301,-2.8301,-2.8301,-2.8237,-2.7305,-2.6518,-2.5608,-2.5287,-2.5003,-2.4718,-2.4386,-2.4005,-2.3575,-2.3303,-2.3079,-2.2474,-2.1923,-2.1759,-2.1653,-2.1653,-2.166,-2.1546,-2.1489,-2.1318,-2.1211,-2.1211,-2.1211,-2.1211,-2.1211,-2.1211,-2.1211,-2.1211,-2.1211,-2.1089,-2.0967,-2.0788,-2.0551,-2.0263,-1.9931,-1.9707,-1.9482,-1.9424,-1.9424,-1.9424,-1.9424,-1.9178,-1.8991,-1.8885,-1.8918,-1.8885,-1.8824,-1.8885,-1.8998,-1.8818,-1.8577,-1.8537,-1.8484,-1.8417,-1.8444,-1.8597,-1.8704,-1.8738,-1.8731,-1.8704,-1.8771,-1.8938,-1.8918,-1.8851,-1.9032,-2.193,-2.3255,-2.5525,-2.7187,-2.8184,-2.8301,-2.8301,-2.8301,-2.8301,-2.8301,-2.8301,-2.8301,-2.8301,-2.8301,-2.8301,-2.8301,-2.8301,-2.8291,-2.8237,-2.8237,-2.8301,-2.8301,-2.8301,-2.8301,-2.8301,-2.8301,-2.8301,-2.8301,-2.8184,-2.8301,-2.8301,-2.8237,-2.8237,-2.8237,-2.8237,-2.8237,-2.8237,-2.8301,-2.8184,-2.8184,-2.8184,-2.8237,-2.8291,-2.8301,-2.8301,-2.8301,-2.8301,-2.8301,-2.8301,-2.796,-2.7187,-2.5525,-2.4569,-2.4022,-2.364,-2.3247,-2.2918,-2.2862,-2.2425,-2.215,-2.1987,-2.1432,-2.1211,-2.1375,-2.1375,-2.1375,-2.1375,-2.1318,-2.1318,-2.1211,-2.1211,-2.1211,-2.1211,-2.1211,-2.1211,-2.1211,-2.1211,-2.1211,-2.1211,-2.1146,-2.0967,-2.0666,-2.0436,-2.009,-1.9815,-1.9591,-1.9424,-1.9424,-1.9424,-1.9424,-1.9424,-1.9377,-1.9118,-1.9092,-1.9152,-1.9065,-1.8945,-1.9025,-1.9118,-1.8998,-1.8838,-1.8885,-1.8878,-1.8771,-1.8771,-1.8925,-1.9011,-1.9011,-1.9052,-1.9052,-1.9182,-1.9239,-1.9165,-1.9085,-1.9199,-2.2263,-2.3695,-2.5854,-2.7349,-2.8184,-2.8301,-2.8301,-2.8301,-2.8301,-2.8301,-2.8301,-2.8301,-2.8301,-2.8301,-2.8301,-2.8301,-2.8301,-2.8301,-2.8301,-2.8301,-2.8301,-2.8301,-2.8301,-2.8301,-2.8301,-2.8301,-2.8301,-2.8077,-2.7853,-2.8077,-2.8184,-2.8077,-2.8067,-2.8121,-2.8014,-2.796,-2.7789,-2.7457,-2.734,-2.7565,-2.7843,-2.8174,-2.8237,-2.8301,-2.8301,-2.8301,-2.8301,-2.8301,-2.8301,-2.7359,-2.6463,-2.4633,-2.3472,-2.2757,-2.2312,-2.1923,-2.1759,-2.1653,-2.1375,-2.1432,-2.1318,-2.1211,-2.1211,-2.1268,-2.1261,-2.1318,-2.1318,-2.1268,-2.1268,-2.1211,-2.1211,-2.1211,-2.1211,-2.1211,-2.1211,-2.1211,-2.1211,-2.1211,-2.1211,-2.1211,-2.091,-2.0608,-2.0321,-1.9982,-1.9758,-1.9533,-1.9424,-1.9424,-1.9424,-1.9424,-1.9424,-1.939,-1.9219,-1.9239,-1.9272,-1.9239,-1.9085,-1.9072,-1.9138,-1.9112,-1.9098,-1.9112,-1.9112,-1.9072,-1.9105,-1.9172,-1.9232,-1.9303,-1.9357,-1.935,-1.9363,-1.9377,-1.9363,-1.931,-1.9357,-2.3919,-2.5972,-2.7403,-2.8077,-2.8291,-2.8301,-2.8301,-2.8301,-2.8301,-2.8301,-2.8301,-2.8301,-2.8301,-2.8301,-2.8301,-2.8301,-2.8301,-2.8301,-2.8301,-2.8301,-2.8301,-2.8301,-2.8184,-2.8067,-2.8237,-2.813,-2.7906,-2.7638,-2.707,-2.7574,-2.7295,-2.579,-2.7682,-2.7286,-2.5726,-2.6009,-2.6518,-2.6173,-2.5781,-2.5836,-2.6282,-2.6888,-2.813,-2.8301,-2.8301,-2.8301,-2.8301,-2.8301,-2.7691,-2.6581,-2.5029,-2.3311,-2.2312,-2.1759,-2.1482,-2.1425,-2.1211,-2.1211,-2.1211,-2.1211,-2.1211,-2.1203,-2.1261,-2.1432,-2.1489,-2.1596,-2.1546,-2.1432,-2.1432,-2.1318,-2.1261,-2.1211,-2.1211,-2.1211,-2.1211,-2.1211,-2.1211,-2.1211,-2.1211,-2.1089,-2.0902,-2.0608,-2.0328,-2.004,-1.97,-1.9533,-1.9424,-1.9424,-1.9424,-1.9424,-1.9424,-1.9383,-1.9279,-1.9132,-1.9058,-1.9292,-1.9239,-1.9205,-1.9185,-1.9212,-1.9252,-1.937,-1.9357,-1.9225,-1.9245,-1.9357,-1.9417,-1.9424,-1.9417,-1.9397,-1.9403,-1.9417,-1.9424,-1.9424,-1.9424]}]]